[[{"header":{"parameterUnit":"m.s-1","parameterCategory":1,"la1":31.0,"la2":29.5877,"lo1":-88.7671,"lo2":-86.6584,"dy":0.0162,"dx":0.0185,"nx":115,"ny":88,"refTime":"2023-05-22T06:00:00:Z","depth":0,"parameterNumber":2,"parameterNumberName":"U-component_of_WINDS"},"data":[0.0,0.0,0.0,0.0,0.0,0.0,0.0,0.0,0.0,0.0,0.0,0.0,0.0,0.0,0.0,0.0,0.0,0.0,0.0,0.0,0.0,0.0,0.0,0.0,0.0,0.0,0.0,0.0,0.0,0.0,0.0,0.0,0.0,0.0,0.0,0.0,0.0,0.0,0.0,0.0,0.0,0.0,0.0,0.0,0.0,0.0,0.0,0.0,0.0,0.0,0.0,0.0,0.0,0.0,0.0,0.0,0.0,0.0,0.0,0.0,0.0,0.0,0.0,0.0,0.0,0.0,0.0,0.0,0.0,0.0,0.0,0.0,0.0,0.0,0.0,0.0,0.0,0.0,0.0,0.0,0.0,0.0,0.0,0.0,0.0,0.0,0.0,0.0,0.0,0.0,0.0,0.0,0.0,0.0,0.0,0.0,0.0,0.0,0.0,0.0,0.0,0.0,0.0,0.0,0.0,0.0,0.0,0.0,0.0,0.0,0.0,0.0,0.0,0.0,0.0,0.0,0.0,0.0,0.0,0.0,0.0,0.0,0.0,0.0,0.0,0.0,0.0,0.0,0.0,0.0,0.0,0.0,0.0,0.0,0.0,0.0,0.0,0.0,0.0,0.0,0.0,0.0,0.0,0.0,0.0,0.0,0.0,0.0,0.0,0.0,0.0,0.0,0.0,0.0,0.0,0.0,0.0,0.0,0.0,0.0,0.0,0.0,0.0,0.0,0.0,0.0,0.0,0.0,0.0,0.0,0.0,0.0,0.0,0.0,0.0,0.0,0.0,0.0,0.0,0.0,0.0,0.0,0.0,0.0,0.0,0.0,0.0,0.0,0.0,0.0,0.0,0.0,0.0,0.0,0.0,0.0,0.0,0.0,0.0,0.0,0.0,0.0,0.0,0.0,0.0,0.0,0.0,0.0,0.0,0.0,0.0,0.0,0.0,0.0,0.0,0.0,0.0,0.0,0.0,0.0,0.0,0.0,0.0,0.0,0.0,0.0,0.0,0.0,0.0,0.0,0.0,0.0,0.0,0.0,0.0,0.0,0.0,0.0,0.0,0.0,0.0,0.0,0.0,0.0,0.0,0.0,0.0,0.0,0.0,0.0,0.0,0.0,0.0,0.0,0.0,0.0,0.0,0.0,0.0,0.0,0.0,0.0,0.0,0.0,0.0,0.0,0.0,0.0,0.0,0.0,0.0,0.0,0.0,0.0,0.0,0.0,0.0,0.0,0.0,0.0,0.0,0.0,0.0,0.0,0.0,0.0,0.0,0.0,0.0,0.0,0.0,0.0,0.0,0.0,0.0,0.0,0.0,0.0,0.0,0.0,0.0,0.0,0.0,0.0,0.0,0.0,0.0,0.0,0.0,0.0,0.0,0.0,0.0,0.0,0.0,0.0,0.0,0.0,0.0,0.0,0.0,0.0,0.0,0.0,0.0,0.0,0.0,0.0,0.0,0.0,0.0,0.0,0.0,0.0,0.0,0.0,0.0,0.0,0.0,0.0,0.0,0.0,0.0,0.0,0.0,0.0,0.0,0.0,0.0,0.0,0.0,0.0,0.0,0.0,0.0,0.0,0.0,0.0,0.0,0.0,0.0,0.0,0.0,0.0,0.0,0.0,0.0,0.0,0.0,0.0,0.0,0.0,0.0,0.0,0.0,0.0,0.0,0.0,0.0,0.0,0.0,0.0,0.0,0.0,0.0,0.0,0.0,0.0,0.0,0.0,0.0,0.0,0.0,0.0,0.0,0.0,0.0,0.0,0.0,0.0,0.0,0.0,0.0,0.0,0.0,0.0,0.0,0.0,0.0,0.0,0.0,0.0,0.0,0.0,0.0,0.0,0.0,0.0,0.0,0.0,0.0,0.0,0.0,0.0,0.0,0.0,0.0,0.0,0.0,0.0,0.0,0.0,0.0,0.0,0.0,0.0,0.0,0.0,0.0,0.0,0.0,0.0,0.0,0.0,0.0,0.0,0.0,0.0,0.0,0.0,0.0,0.0,0.0,0.0,0.0,0.0,0.0,0.0,0.0,0.0,0.0,0.0,0.0,0.0,0.0,0.0,0.0,0.0,0.0,0.0,0.0,0.0,0.0,0.0,0.0,0.0,0.0,0.0,0.0,0.0,0.0,0.0,0.0,0.0,0.0,0.0,0.0,0.0,0.0,0.0,0.0,0.0,0.0,0.0,0.0,0.0,0.0,0.0,0.0,0.0,0.0,0.0,0.0,0.0,0.0,0.0,0.0,0.0,0.0,0.0,0.0,0.0,0.0,0.0,0.0,0.0,0.0,0.0,0.0,0.0,0.0,0.0,0.0,0.0,0.0,0.0,0.0,0.0,0.0,0.0,0.0,0.0,0.0,0.0,0.0,0.0,0.0,0.0,0.0,0.0,0.0,0.0,0.0,0.0,0.0,0.0,0.0,0.0,0.0,0.0,0.0,0.0,0.0,0.0,0.0,0.0,0.0,0.0,0.0,0.0,0.0,0.0,0.0,0.0,0.0,0.0,0.0,0.0,0.0,0.0,0.0,0.0,0.0,0.0,0.0,0.0,0.0,0.0,0.0,0.0,0.0,0.0,0.0,0.0,0.0,0.0,0.0,0.0,0.0,0.0,0.0,0.0,0.0,0.0,0.0,0.0,0.0,0.0,0.0,0.0,0.0,0.0,0.0,0.0,0.0,0.0,0.0,0.0,0.0,0.0,0.0,0.0,0.0,0.0,0.0,0.0,0.0,0.0,0.0,0.0,0.0,0.0,0.0,0.0,0.0,0.0,0.0,0.0,0.0,0.0,0.0,0.0,0.0,0.0,0.0,0.0,0.0,0.0,0.0,0.0,0.0,0.0,0.0,0.0,0.0,0.0,0.0,0.0,0.0,0.0,0.0,0.0,0.0,0.0,0.0,0.0,0.0,0.0,0.0,0.0,0.0,0.0,0.0,0.0,0.0,0.0,0.0,0.0,0.0,0.0,0.0,0.0,0.0,0.0,0.0,0.0,0.0,0.0,0.0,0.0,0.0,0.0,0.0,0.0,0.0,0.0,0.0,0.0,0.0,0.0,0.0,0.0,0.0,0.0,0.0,0.0,0.0,0.0,0.0,0.0,0.0,0.0,0.0,0.0,0.0,0.0,0.0,0.0,0.0,0.0,0.0,0.0,0.0,0.0,0.0,0.0,0.0,0.0,0.0,0.0,0.0,0.0,0.0,0.0,0.0,0.0,0.0,0.0,0.0,0.0,0.0,0.0,0.0,0.0,0.0,0.0,0.0,0.0,0.0,0.0,0.0,0.0,0.0,0.0,0.0,0.0,0.0,0.0,0.0,0.0,0.0,0.0,0.0,0.0,0.0,0.0,0.0,0.0,0.0,0.0,0.0,0.0,0.0,0.0,0.0,0.0,0.0,0.0,0.0,0.0,0.0,0.0,0.0,0.0,0.0,0.0,0.0,0.0,0.0,0.0,0.0,0.0,0.0,0.0,0.0,0.0,0.0,0.0,0.0,0.0,0.0,0.0,0.0,0.0,0.0,0.0,0.0,0.0,0.0,0.0,0.0,0.0,0.0,0.0,0.0,0.0,0.0,0.0,0.0,0.0,0.0,0.0,0.0,0.0,0.0,0.0,0.0,0.0,0.0,0.0,0.0,0.0,0.0,0.0,0.0,0.0,0.0,0.0,0.0,0.0,0.0,0.0,0.0,0.0,0.0,0.0,0.0,0.0,0.0,0.0,0.0,0.0,0.0,0.0,0.0,0.0,0.0,0.0,0.0,0.0,0.0,0.0,0.0,0.0,0.0,0.0,0.0,0.0,0.0,0.0,0.0,0.0,0.0,0.0,0.0,0.0,0.0,0.0,0.0,0.0,0.0,0.0,0.0,0.0,0.0,0.0,0.0,0.0,0.0,0.0,0.0,0.0,0.0,0.0,0.0,0.0,0.0,0.0,0.0,0.0,0.0,0.0,0.0,0.0,0.0,0.0,0.0,0.0,0.0,0.0,0.0,0.0,0.0,0.0,0.0,0.0,0.0,0.0,0.0,0.0,0.0,0.0,0.0,0.0,0.0,0.0,0.0,0.0,0.0,0.0,0.0,0.0,0.0,0.0,0.0,0.0,0.0,0.0,0.0,0.0,0.0,0.0,0.0,0.0,0.0,0.0,0.0,0.0,0.0,0.0,0.0,0.0,0.0,0.0,0.0,0.0,0.0,0.0,0.0,0.0,0.0,0.0,0.0,0.0,0.0,0.0,0.0,0.0,0.0,0.0,0.0,0.0,0.942,0.0,0.0,0.0,1.0821,0.0,0.0,0.0,0.0,0.0,0.0,0.0,0.0,0.0,0.0,0.0,0.0,0.0,0.0,0.0,0.0,0.0,0.0,0.0,0.0,0.0,0.0,0.0,0.0,0.0,0.0,0.0,0.0,0.0,0.0,0.0,0.0,0.0,0.0,0.0,0.0,0.0,0.0,0.0,0.0,0.0,0.0,0.0,0.0,0.0,0.0,0.0,0.0,0.0,0.0,0.0,0.0,0.0,0.0,0.0,0.0,0.0,0.0,0.0,0.0,0.0,0.0,0.0,0.0,0.0,0.0,0.0,0.0,0.0,0.0,0.0,0.0,0.0,0.0,0.0,0.0,0.0,0.0,0.0,0.0,0.0,0.0,0.0,0.0,0.0,0.0,0.0,0.0,0.0,0.0,0.0,0.0,0.0,0.0,0.0,0.0,0.0,0.0,0.0,0.0,0.0,0.0,0.0,0.0,0.0,0.0,0.0,0.0,0.0,0.0,0.7399,0.9029,0.8935,0.8172,0.674,0.0,0.0,0.0,0.0,0.0,0.0,0.0,0.0,0.0,0.0,0.0,0.0,0.0,0.0,0.0,0.0,0.0,0.0,0.0,0.0,0.0,0.0,0.0,0.0,0.0,0.0,0.0,0.0,0.0,0.0,0.0,0.0,0.0,0.0,0.0,0.0,0.0,0.0,0.0,0.0,0.0,0.0,0.0,0.0,0.0,0.0,0.0,0.0,0.0,0.0,0.0,0.0,0.0,0.0,0.0,0.0,0.0,0.0,0.0,0.0,0.0,0.0,0.0,0.0,0.0,0.0,0.0,0.0,0.0,0.0,0.0,0.0,0.0,0.0,0.0,0.0,0.0,0.0,0.0,0.0,0.0,0.0,0.0,0.0,0.0,0.0,0.0,0.0,0.0,0.0,0.0,0.0,0.0,0.0,0.0,0.0,0.0,0.0,0.0,0.0,0.0,0.0,0.0,0.0,0.0,0.0,0.0,0.0,0.0,0.0,0.0,0.0,0.6094,0.4857,0.2423,0.0,0.0,0.0,0.0,0.0,0.0,0.0,0.0,0.0,0.0,0.0,0.0,0.0,0.0,0.0,0.0,0.0,0.0,0.0,0.0,0.0,0.0,0.0,0.0,0.0,0.0,0.0,0.0,0.0,0.0,0.0,0.0,0.0,0.0,0.0,0.0,0.0,0.0,0.0,0.0,0.0,0.0,0.0,0.0,0.0,0.0,0.0,0.0,0.0,0.0,0.0,0.0,0.0,0.0,0.0,0.0,0.0,0.0,0.0,0.0,0.0,0.0,0.0,0.0,0.0,0.0,0.0,0.0,0.0,0.0,0.0,0.0,0.0,0.0,0.0,0.0,0.0,0.0,0.0,0.0,0.0,0.0,0.0,0.0,0.0,0.0,0.0,0.0,0.0,0.0,0.0,0.0,0.0,0.0,0.0,0.0,0.0,0.0,0.0,0.0,0.0,0.0,0.0,0.0,0.0,0.0,0.0,0.0,0.0,0.0,-0.1095,0.0666,0.0295,0.0,-0.1254,0.0,0.0,0.0,0.0,0.0,0.0,0.0,0.0,0.0,0.0,0.0,0.0,0.0,0.0,0.0,0.0,0.0,0.0,0.0,0.0,0.0,0.0,0.0,0.0,0.0,0.0,0.0,0.0,0.0,0.0,0.0,0.0,0.0,0.0,0.0,0.0,0.0,0.0,0.0,0.0,0.0,0.0,0.0,0.0,0.0,0.0,0.0,0.0,0.0,0.0,0.0,0.0,0.0,0.0,0.0,0.0,0.0,0.0,0.0,0.0,0.0,0.0,0.0,0.0,0.0,0.0,0.0,0.0,0.0,0.0,0.0,0.0,0.0,0.0,0.0,0.0,0.0,0.0,0.0,0.0,0.0,0.0,0.0,0.0,0.0,0.0,0.0,0.0,0.0,0.0,0.0,0.0,0.0,0.0,0.0,0.0,0.0,0.0,0.0,0.0,0.0,0.0,0.0,0.0,0.0,0.0,0.0,0.0,0.0,0.0,-0.336,-0.4215,-0.4627,-0.5303,0.0,0.0,0.0,0.0,0.0,0.0,0.0,0.0,0.0,0.0,0.0,0.0,0.0,0.0,0.0,0.0,0.0,0.0,0.0,0.0,0.0,0.0,0.0,0.0,0.0,0.0,0.0,0.0,0.0,0.0,0.0,0.0,0.0,0.0,0.0,0.0,0.0,0.0,0.0,0.0,0.0,0.0,0.0,0.0,0.0,0.0,0.0,0.0,0.0,0.0,0.0,0.0,0.0,0.0,0.0,0.0,0.0,0.0,0.0,0.0,0.0,0.0,0.0,0.0,0.0,0.0,0.0,0.0,0.0,0.0,0.0,0.0,0.0,0.0,0.0,0.0,0.0,0.0,0.0,0.0,0.0,0.0,0.0,0.0,0.0,0.0,0.0,0.0,0.0,0.0,0.0,0.0,0.0,0.0,0.0,0.0,0.0,0.0,0.0,0.0,0.0,0.0,0.0,0.0,0.0,0.0,0.0,0.0,0.0,0.0,-0.0909,-0.5018,-0.7937,-0.8561,-0.9029,-0.949,0.0,0.0,0.0,0.0,0.0,0.0,0.0,0.0,0.0,0.0,0.0,0.0,0.0,0.0,0.0,0.0,0.0,0.0,0.0,0.0,0.0,0.0,0.0,0.0,0.0,0.0,0.0,0.0,0.0,0.0,0.0,0.0,0.0,0.0,0.0,0.0,0.0,0.0,0.0,0.0,0.0,0.0,0.0,0.0,0.0,0.0,0.0,0.0,0.0,0.0,0.0,0.0,0.0,0.0,0.0,0.0,0.0,0.0,0.0,0.0,0.0,0.0,0.0,0.0,0.0,0.0,0.0,0.0,0.0,0.0,0.0,0.0,0.0,0.0,0.0,0.0,0.0,0.0,0.0,0.0,0.0,0.0,0.0,0.0,0.0,0.0,0.0,0.0,0.0,0.0,0.0,0.0,0.0,0.0,0.0,0.0,0.0,0.0,0.0,0.0,0.0,0.0,0.0,0.0,0.0,0.0,0.0,0.0,0.1412,-0.2659,-0.6561,-1.0444,-1.1133,-1.0912,0.0,0.0,0.0,0.0,0.0,0.0,0.0,0.0,0.0,0.0,0.0,0.0,0.0,0.0,0.0,0.0,0.0,0.0,0.0,0.0,0.0,0.0,0.0,0.0,0.0,0.0,0.0,0.0,0.0,0.0,0.0,0.0,0.0,0.0,0.0,0.0,0.0,0.0,0.0,0.0,0.0,0.0,0.0,0.0,0.0,0.0,0.0,0.0,0.0,0.0,0.0,0.0,0.0,0.0,0.0,0.0,0.0,0.0,0.0,0.0,0.0,0.0,0.0,0.0,0.0,0.0,0.0,0.0,0.0,0.0,0.0,0.0,0.0,0.0,0.0,0.0,0.0,0.0,0.0,0.0,0.0,0.0,0.0,0.0,0.0,0.0,0.0,0.0,0.0,0.0,0.0,0.0,0.0,0.0,0.0,0.0,0.0,0.0,0.0,0.0,0.0,0.0,0.0,0.0,0.0,0.0,0.0,0.0,0.0,-0.0558,-0.7243,-1.2023,-1.4702,-1.3449,-1.2795,0.0,0.0,0.0,0.0,0.0,0.0,0.0,0.0,0.0,0.0,0.0,0.0,0.0,0.0,0.0,0.0,0.0,0.0,0.0,0.0,0.0,0.0,0.0,0.0,0.0,0.0,0.0,0.0,0.0,0.0,0.0,0.0,0.0,0.0,0.0,0.0,0.0,0.0,0.0,0.0,0.0,0.0,0.0,0.0,0.0,0.0,0.0,0.0,0.0,0.0,0.0,0.0,0.0,0.0,0.0,0.0,0.0,0.0,0.0,0.0,0.0,0.0,0.0,0.0,0.0,0.0,0.0,0.0,0.0,0.0,0.0,0.0,0.0,0.0,0.0,0.0,0.0,0.0,0.0,0.0,0.0,0.0,0.0,0.0,0.0,0.0,0.0,0.0,0.0,0.0,0.0,0.0,0.0,0.0,0.0,0.0,0.0,0.0,0.0,0.0,0.0,0.0,0.0,0.0,0.0,0.0,0.0,0.0,0.0,-0.566,0.0,-1.7113,-1.8537,-1.6779,-1.5619,0.0,0.0,0.0,0.0,0.0,0.0,0.0,0.0,0.0,0.0,0.0,0.0,0.0,0.0,0.0,0.0,0.0,0.0,0.0,0.0,0.0,0.0,0.0,0.0,0.0,0.0,0.0,0.0,0.0,0.0,0.0,0.0,0.0,0.0,0.0,0.0,0.0,0.0,0.0,0.0,0.0,0.0,0.0,0.0,0.0,0.0,0.0,0.0,0.0,0.0,0.0,0.0,0.0,0.0,0.0,0.0,0.0,0.0,0.0,0.0,0.0,0.0,0.0,0.0,0.0,0.0,0.0,0.0,0.0,0.0,0.0,0.0,0.0,0.0,0.0,0.0,0.0,0.0,0.0,0.0,0.0,0.0,0.0,0.0,0.0,0.0,0.0,0.0,0.0,0.0,0.0,0.0,0.0,0.0,0.0,0.0,0.0,0.0,0.0,0.0,0.0,0.0,0.0,0.0,0.0,0.0,0.0,0.0,-0.4103,-1.4196,-1.8809,-2.1292,-2.177,-2.1194,-1.9479,0.0,0.0,0.0,0.0,0.0,0.0,0.0,0.0,0.0,0.0,0.0,0.0,0.0,0.0,0.0,0.0,0.0,0.0,0.0,0.0,0.0,0.0,0.0,0.0,0.0,0.0,0.0,0.0,0.0,0.0,0.0,0.0,0.0,0.0,0.0,0.0,0.0,0.0,0.0,0.0,0.0,0.0,0.0,0.0,0.0,0.0,0.0,0.0,0.0,0.0,0.0,0.0,0.0,0.0,0.0,0.0,0.0,0.0,0.0,0.0,0.0,0.0,0.0,0.0,0.0,0.0,0.0,0.0,0.0,0.0,0.0,0.0,0.0,0.0,0.0,0.0,0.0,0.0,0.0,0.0,0.0,0.0,0.0,0.0,0.0,0.0,0.0,0.0,0.0,0.0,0.0,0.0,0.0,0.0,0.0,0.0,0.0,0.0,0.0,0.0,0.0,0.0,0.0,0.0,0.0,0.0,0.0,0.0,0.0,-2.1464,-2.3244,-2.4997,-2.6686,-2.4203,-2.2315,0.0,0.0,0.0,0.0,0.0,0.0,0.0,0.0,0.0,0.0,0.0,0.0,0.0,0.0,0.0,0.0,0.0,0.0,0.0,0.0,0.0,0.0,0.0,0.0,0.0,0.0,0.0,0.0,0.0,0.0,0.0,0.0,0.0,0.0,0.0,0.0,0.0,0.0,0.0,0.0,0.0,0.0,0.0,0.0,0.0,0.0,0.0,0.0,0.0,0.0,0.0,0.0,0.0,0.0,0.0,0.0,0.0,0.0,0.0,0.0,0.0,0.0,0.0,0.0,0.0,0.0,0.0,0.0,0.0,0.0,0.0,0.0,0.0,0.0,0.0,0.0,0.0,0.0,0.0,0.0,0.0,0.0,0.0,0.0,0.0,0.0,0.0,0.0,0.0,0.0,0.0,0.0,0.0,0.0,0.0,0.0,0.0,0.0,0.0,0.0,0.0,0.0,0.0,0.0,0.0,0.0,0.0,0.0,0.0,-2.6884,-2.817,-2.9262,-3.0199,-2.7585,-2.5286,-2.3223,0.0,0.0,0.0,0.0,0.0,0.0,0.0,0.0,0.0,0.0,0.0,0.0,0.0,0.0,0.0,0.0,0.0,0.0,0.0,0.0,0.0,0.0,0.0,0.0,0.0,0.0,0.0,0.0,0.0,0.0,0.0,0.0,0.0,0.0,0.0,0.0,0.0,0.0,0.0,0.0,0.0,0.0,0.0,0.0,0.0,0.0,0.0,0.0,0.0,0.0,0.0,0.0,0.0,0.0,0.0,0.0,0.0,0.0,0.0,0.0,0.0,0.0,0.0,0.0,0.0,0.0,0.0,0.0,0.0,0.0,0.0,0.0,0.0,0.0,0.0,0.0,0.0,0.0,0.0,0.0,0.0,0.0,0.0,0.0,0.0,0.0,0.0,0.0,0.0,0.0,0.0,0.0,0.0,0.0,0.0,0.0,0.0,0.0,0.0,0.0,0.0,0.0,0.0,0.0,0.0,0.0,0.0,0.0,-3.0651,-3.3295,-3.3829,-3.2161,-3.1253,-2.8263,0.0,0.0,0.0,0.0,0.0,0.0,0.0,0.0,0.0,0.0,0.0,0.0,0.0,0.0,0.0,0.0,0.0,0.0,0.0,0.0,0.0,0.0,0.0,0.0,0.0,0.0,0.0,0.0,0.0,0.0,0.0,0.0,0.0,0.0,0.0,0.0,0.0,0.0,0.0,0.0,0.0,0.0,0.0,0.0,0.0,0.0,0.0,0.0,0.0,0.0,0.0,0.0,0.0,0.0,0.0,0.0,0.0,0.0,0.0,0.0,0.0,0.0,0.0,0.0,0.0,0.0,0.0,0.0,0.0,0.0,0.0,0.0,0.0,0.0,0.0,0.0,0.0,0.0,0.0,0.0,0.0,0.0,0.0,0.0,0.0,0.0,0.0,0.0,0.0,0.0,0.0,0.0,0.0,0.0,0.0,0.0,0.0,0.0,0.0,0.0,0.0,0.0,0.0,0.0,0.0,0.0,0.0,0.0,0.0,-3.4151,-3.6055,-3.6248,-3.4631,-3.2531,-3.0136,0.0,0.0,0.0,0.0,0.0,0.0,0.0,0.0,0.0,0.0,0.0,0.0,0.0,0.0,0.0,0.0,0.0,0.0,0.0,0.0,0.0,0.0,0.0,0.0,0.0,0.0,0.0,0.0,0.0,0.0,0.0,0.0,0.0,0.0,0.0,0.0,0.0,0.0,0.0,0.0,0.0,0.0,0.0,0.0,0.0,0.0,0.0,0.0,0.0,0.0,0.0,0.0,0.0,0.0,0.0,0.0,0.0,0.0,0.0,0.0,0.0,0.0,0.0,0.0,0.0,0.0,0.0,0.0,0.0,0.0,0.0,0.0,0.0,0.0,0.0,0.0,0.0,0.0,0.0,0.0,0.0,0.0,0.0,0.0,0.0,0.0,0.0,0.0,0.0,0.0,0.0,0.0,0.0,0.0,0.0,0.0,0.0,0.0,0.0,0.0,0.0,0.0,0.0,0.0,0.0,0.0,0.0,0.0,-3.289,-3.6138,-3.6962,-3.7101,-3.6534,-3.4503,-3.1735,0.0,0.0,0.0,0.0,0.0,0.0,0.0,0.0,0.0,0.0,0.0,0.0,0.0,0.0,0.0,0.0,0.0,0.0,0.0,0.0,0.0,0.0,0.0,0.0,0.0,0.0,0.0,0.0,0.0,0.0,0.0,0.0,0.0,0.0,0.0,0.0,0.0,0.0,0.0,0.0,0.0,0.0,0.0,0.0,0.0,0.0,0.0,0.0,0.0,0.0,0.0,0.0,0.0,0.0,0.0,0.0,0.0,0.0,0.0,0.0,0.0,0.0,0.0,0.0,0.0,0.0,0.0,0.0,0.0,0.0,0.0,0.0,0.0,0.0,0.0,0.0,0.0,0.0,0.0,0.0,0.0,0.0,0.0,0.0,0.0,0.0,0.0,0.0,0.0,0.0,0.0,0.0,0.0,0.0,0.0,0.0,0.0,0.0,0.0,0.0,0.0,0.0,0.0,0.0,0.0,0.0,0.0,0.0,-3.3829,-3.6741,-3.6738,-3.6954,-3.7507,-3.6254,-3.2977,0.0,0.0,0.0,0.0,0.0,0.0,0.0,0.0,0.0,0.0,0.0,0.0,0.0,0.0,0.0,0.0,0.0,0.0,0.0,0.0,0.0,0.0,0.0,0.0,0.0,0.0,0.0,0.0,0.0,0.0,0.0,0.0,0.0,0.0,0.0,0.0,0.0,0.0,0.0,0.0,0.0,0.0,0.0,0.0,0.0,0.0,0.0,0.0,0.0,0.0,0.0,0.0,0.0,0.0,0.0,0.0,0.0,0.0,0.0,0.0,0.0,0.0,0.0,0.0,0.0,0.0,0.0,0.0,0.0,0.0,0.0,0.0,0.0,0.0,0.0,0.0,0.0,0.0,0.0,0.0,0.0,0.0,0.0,0.0,0.0,0.0,0.0,0.0,0.0,0.0,0.0,0.0,0.0,0.0,0.0,0.0,0.0,0.0,0.0,0.0,0.0,0.0,0.0,0.0,0.0,0.0,0.0,0.0,-3.3815,-3.4921,-3.6157,-3.6558,-3.609,-3.4814,-3.2527,0.0,0.0,0.0,0.0,0.0,0.0,0.0,0.0,0.0,0.0,0.0,0.0,0.0,0.0,0.0,0.0,0.0,0.0,0.0,0.0,0.0,0.0,0.0,0.0,0.0,0.0,0.0,0.0,0.0,0.0,0.0,0.0,0.0,0.0,0.0,0.0,0.0,0.0,0.0,0.0,0.0,0.0,0.0,0.0,0.0,0.0,0.0,0.0,-3.2914,0.0,0.0,0.0,0.0,0.0,0.0,0.0,0.0,0.0,0.0,0.0,0.0,0.0,0.0,0.0,0.0,0.0,0.0,0.0,0.0,0.0,0.0,0.0,0.0,0.0,0.0,0.0,0.0,0.0,0.0,0.0,0.0,0.0,0.0,0.0,0.0,0.0,0.0,0.0,0.0,0.0,0.0,0.0,0.0,0.0,0.0,0.0,0.0,0.0,0.0,0.0,0.0,0.0,0.0,0.0,0.0,0.0,0.0,0.0,-3.3161,-3.4352,-3.495,-3.5373,-3.5499,-3.4017,-3.1972,0.0,0.0,0.0,0.0,0.0,0.0,0.0,0.0,0.0,0.0,0.0,0.0,0.0,0.0,0.0,0.0,0.0,0.0,0.0,0.0,0.0,0.0,0.0,0.0,0.0,0.0,0.0,0.0,0.0,0.0,0.0,0.0,0.0,0.0,0.0,0.0,0.0,0.0,0.0,0.0,0.0,0.0,0.0,0.0,0.0,0.0,0.0,0.0,0.0,0.0,0.0,0.0,0.0,0.0,0.0,0.0,0.0,0.0,0.0,0.0,0.0,0.0,0.0,0.0,0.0,0.0,0.0,0.0,0.0,0.0,0.0,0.0,0.0,0.0,0.0,0.0,0.0,0.0,0.0,0.0,0.0,0.0,0.0,0.0,0.0,0.0,0.0,0.0,0.0,0.0,0.0,0.0,0.0,0.0,0.0,0.0,0.0,0.0,0.0,0.0,0.0,0.0,0.0,0.0,0.0,0.0,0.0,-2.9904,-3.1966,-3.3673,-3.3243,-3.3554,-3.4637,-3.3021,-3.1134,-2.9004,0.0,0.0,0.0,0.0,0.0,0.0,0.0,0.0,0.0,0.0,0.0,0.0,0.0,0.0,0.0,0.0,0.0,0.0,0.0,0.0,0.0,0.0,0.0,0.0,0.0,0.0,0.0,0.0,0.0,0.0,0.0,0.0,0.0,0.0,0.0,0.0,0.0,0.0,-2.3757,-3.0148,0.0,0.0,0.0,0.0,0.0,0.0,0.0,0.0,-3.499,0.0,0.0,0.0,0.0,0.0,0.0,0.0,0.0,0.0,0.0,0.0,0.0,0.0,0.0,0.0,0.0,0.0,0.0,0.0,0.0,0.0,0.0,0.0,0.0,0.0,0.0,0.0,0.0,0.0,0.0,0.0,0.0,0.0,0.0,0.0,0.0,0.0,0.0,0.0,0.0,0.0,0.0,0.0,0.0,0.0,0.0,0.0,0.0,0.0,0.0,0.0,0.0,0.0,0.0,0.0,0.0,-2.8022,-2.8915,-2.9841,-3.094,-3.0721,-3.068,-3.0928,-3.058,-2.9503,-2.7548,0.0,0.0,0.0,0.0,0.0,0.0,0.0,0.0,0.0,0.0,0.0,0.0,0.0,0.0,0.0,0.0,0.0,0.0,0.0,0.0,0.0,0.0,0.0,0.0,0.0,0.0,0.0,0.0,0.0,0.0,0.0,0.0,0.0,0.0,0.0,0.0,0.0,0.0,0.0,-3.3481,-3.6886,0.0,0.0,0.0,0.0,0.0,0.0,0.0,0.0,-3.4965,0.0,0.0,0.0,0.0,0.0,0.0,0.0,0.0,0.0,0.0,0.0,0.0,0.0,0.0,0.0,0.0,0.0,0.0,0.0,0.0,0.0,0.0,0.0,0.0,0.0,0.0,0.0,0.0,0.0,0.0,0.0,0.0,0.0,0.0,0.0,0.0,0.0,0.0,0.0,0.0,0.0,0.0,0.0,0.0,0.0,0.0,0.0,0.0,0.0,0.0,0.0,0.0,0.0,0.0,0.0,-2.629,-2.7465,-2.8567,-2.96,-2.9547,-2.9661,-2.9938,-2.9356,-2.8447,0.0,0.0,0.0,0.0,0.0,0.0,0.0,0.0,0.0,0.0,0.0,0.0,0.0,0.0,0.0,0.0,0.0,0.0,0.0,0.0,0.0,0.0,0.0,0.0,0.0,0.0,0.0,0.0,0.0,0.0,0.0,0.0,0.0,0.0,0.0,0.0,0.0,0.0,0.0,0.0,-3.453,-3.7263,-3.9669,0.0,0.0,0.0,0.0,0.0,0.0,-3.6001,-3.5017,0.0,0.0,0.0,0.0,0.0,0.0,0.0,0.0,0.0,0.0,0.0,0.0,0.0,0.0,0.0,0.0,0.0,0.0,0.0,0.0,0.0,0.0,0.0,0.0,0.0,0.0,0.0,0.0,0.0,0.0,0.0,0.0,0.0,0.0,0.0,0.0,0.0,0.0,0.0,0.0,0.0,0.0,0.0,0.0,0.0,0.0,0.0,0.0,0.0,0.0,0.0,0.0,0.0,0.0,0.0,-2.457,-2.6012,-2.7237,-2.8337,-2.8266,-2.8474,-2.9018,-2.8102,-2.726,0.0,0.0,0.0,0.0,0.0,0.0,0.0,0.0,0.0,0.0,0.0,0.0,0.0,0.0,0.0,0.0,0.0,0.0,0.0,0.0,0.0,0.0,0.0,0.0,0.0,0.0,0.0,0.0,0.0,0.0,0.0,0.0,0.0,0.0,0.0,0.0,0.0,0.0,0.0,0.0,0.0,-3.7225,-3.9642,-3.9631,0.0,0.0,0.0,0.0,-3.6909,-3.6522,0.0,0.0,0.0,0.0,0.0,0.0,0.0,0.0,0.0,0.0,0.0,0.0,0.0,0.0,0.0,0.0,0.0,0.0,0.0,0.0,0.0,0.0,0.0,0.0,0.0,0.0,0.0,0.0,0.0,0.0,0.0,0.0,0.0,0.0,0.0,0.0,0.0,0.0,0.0,0.0,0.0,0.0,0.0,0.0,0.0,0.0,0.0,0.0,0.0,0.0,0.0,0.0,0.0,0.0,0.0,0.0,-2.399,-2.4735,-2.5536,-2.633,-2.5678,-2.5561,-2.607,-2.5523,-2.5153,0.0,0.0,0.0,0.0,0.0,0.0,0.0,0.0,0.0,0.0,0.0,0.0,0.0,0.0,0.0,0.0,0.0,0.0,0.0,0.0,0.0,0.0,0.0,0.0,0.0,0.0,0.0,0.0,0.0,0.0,0.0,0.0,0.0,0.0,0.0,0.0,0.0,0.0,0.0,0.0,0.0,-3.6661,-3.7962,-3.7975,-3.7977,0.0,0.0,-3.835,-3.8299,-3.8326,0.0,0.0,0.0,0.0,0.0,0.0,0.0,0.0,0.0,0.0,0.0,0.0,0.0,0.0,0.0,0.0,0.0,0.0,0.0,0.0,0.0,0.0,0.0,0.0,0.0,0.0,0.0,0.0,0.0,0.0,0.0,0.0,0.0,0.0,0.0,0.0,0.0,0.0,0.0,0.0,0.0,0.0,0.0,0.0,0.0,0.0,0.0,0.0,0.0,0.0,0.0,0.0,0.0,0.0,0.0,-2.0802,-2.2479,-2.3725,-2.4672,-2.5358,-2.5291,-2.536,-2.5586,-2.5096,-2.4833,0.0,0.0,0.0,0.0,0.0,0.0,0.0,0.0,0.0,0.0,0.0,0.0,0.0,0.0,0.0,0.0,0.0,0.0,0.0,0.0,0.0,0.0,0.0,0.0,0.0,0.0,0.0,0.0,0.0,0.0,0.0,0.0,0.0,0.0,0.0,0.0,0.0,0.0,0.0,0.0,0.0,0.0,-3.7997,-3.8558,0.0,0.0,0.0,-3.8311,-3.9395,0.0,0.0,0.0,0.0,0.0,0.0,0.0,0.0,0.0,0.0,0.0,0.0,0.0,0.0,0.0,0.0,0.0,0.0,0.0,0.0,0.0,0.0,0.0,0.0,0.0,0.0,0.0,0.0,0.0,0.0,0.0,0.0,0.0,0.0,0.0,0.0,0.0,0.0,0.0,0.0,0.0,0.0,0.0,0.0,0.0,0.0,0.0,0.0,0.0,0.0,0.0,0.0,0.0,0.0,0.0,0.0,0.0,-2.1248,-2.2783,-2.3916,-2.4594,-2.471,-2.4979,-2.5227,-2.4398,0.0,0.0,0.0,0.0,0.0,0.0,0.0,0.0,0.0,0.0,0.0,0.0,0.0,0.0,0.0,0.0,0.0,0.0,0.0,0.0,0.0,0.0,0.0,0.0,0.0,0.0,0.0,-1.4773,0.0,0.0,0.0,0.0,0.0,0.0,0.0,0.0,0.0,0.0,0.0,0.0,0.0,0.0,-3.5659,-3.8014,-3.9364,-4.0039,0.0,0.0,-3.8871,-4.0187,-3.8266,-3.6077,0.0,0.0,0.0,0.0,0.0,0.0,0.0,0.0,0.0,0.0,0.0,0.0,0.0,0.0,0.0,0.0,0.0,0.0,0.0,0.0,0.0,0.0,0.0,0.0,0.0,0.0,0.0,0.0,0.0,0.0,0.0,0.0,0.0,0.0,0.0,0.0,0.0,0.0,0.0,0.0,0.0,0.0,0.0,0.0,0.0,0.0,0.0,0.0,0.0,0.0,0.0,0.0,0.0,0.0,-1.9649,-2.0643,-2.1813,-2.2987,-2.4004,-2.3195,-2.3209,-2.4241,-2.2476,-2.1925,0.0,0.0,0.0,0.0,0.0,0.0,0.0,0.0,0.0,0.0,0.0,0.0,0.0,0.0,0.0,0.0,0.0,0.0,0.0,0.0,0.0,0.0,0.0,0.0,0.0,0.0,0.0,0.0,0.0,0.0,0.0,0.0,0.0,0.0,0.0,0.0,0.0,0.0,0.0,0.0,0.0,-3.6295,-3.7306,-3.9631,-4.125,0.0,-4.1175,-4.0965,-4.0472,-3.9011,-3.7079,-3.4663,0.0,0.0,0.0,0.0,0.0,0.0,0.0,0.0,0.0,0.0,0.0,0.0,0.0,0.0,0.0,0.0,0.0,0.0,0.0,0.0,0.0,0.0,0.0,0.0,0.0,0.0,0.0,0.0,0.0,0.0,0.0,0.0,0.0,0.0,0.0,0.0,0.0,0.0,0.0,0.0,0.0,0.0,0.0,0.0,0.0,0.0,0.0,0.0,0.0,0.0,0.0,0.0,0.0,-2.021,-2.0655,-2.2444,-2.3306,-2.3123,-2.3346,-2.3464,-2.328,-2.2556,-2.2045,0.0,0.0,0.0,0.0,0.0,0.0,0.0,0.0,0.0,0.0,0.0,0.0,0.0,0.0,0.0,0.0,0.0,0.0,0.0,0.0,0.0,0.0,0.0,0.0,0.0,0.0,0.0,0.0,-1.8914,-1.9141,-1.9394,0.0,0.0,0.0,0.0,0.0,0.0,0.0,0.0,0.0,0.0,-3.6273,-3.885,-4.0472,0.0,0.0,-4.1564,-4.098,-4.1534,-3.8903,-3.6141,-3.4299,-3.1388,0.0,0.0,0.0,0.0,0.0,0.0,0.0,0.0,0.0,0.0,0.0,0.0,0.0,0.0,0.0,0.0,0.0,0.0,0.0,0.0,0.0,0.0,0.0,0.0,0.0,0.0,0.0,0.0,0.0,0.0,0.0,0.0,0.0,0.0,0.0,0.0,0.0,0.0,0.0,0.0,0.0,0.0,0.0,0.0,0.0,0.0,0.0,0.0,0.0,0.0,0.0,0.0,-2.041,-2.0815,-2.2178,-2.2983,-2.3048,-2.3225,-2.3089,-2.2484,-2.2074,-2.1543,0.0,0.0,0.0,0.0,0.0,0.0,0.0,0.0,0.0,0.0,0.0,0.0,0.0,0.0,0.0,0.0,0.0,0.0,0.0,0.0,0.0,0.0,0.0,0.0,0.0,0.0,0.0,0.0,-1.9551,-1.9605,-2.0068,0.0,0.0,0.0,0.0,0.0,0.0,0.0,0.0,0.0,0.0,-3.6169,-3.9164,-4.0172,-4.0988,-4.1892,-4.0543,-3.9639,-4.0297,-3.7566,-3.4941,-3.367,0.0,0.0,0.0,0.0,0.0,0.0,0.0,0.0,0.0,0.0,0.0,0.0,0.0,0.0,0.0,0.0,0.0,0.0,0.0,0.0,0.0,0.0,0.0,0.0,0.0,0.0,0.0,-2.4693,0.0,0.0,-2.2374,0.0,0.0,0.0,0.0,0.0,0.0,0.0,0.0,0.0,0.0,0.0,0.0,0.0,0.0,0.0,0.0,0.0,0.0,0.0,0.0,0.0,0.0,-1.9841,-2.1363,-2.0794,-2.1627,-2.3975,-2.238,-2.1671,-2.1985,-2.0712,-1.9977,-1.9928,0.0,0.0,0.0,0.0,0.0,0.0,0.0,0.0,0.0,0.0,0.0,0.0,0.0,0.0,0.0,0.0,0.0,0.0,0.0,0.0,0.0,0.0,0.0,0.0,0.0,0.0,-2.0372,-2.0146,-2.0078,0.0,0.0,0.0,0.0,0.0,0.0,0.0,0.0,0.0,-3.0355,-3.3227,-3.5871,-3.7605,-3.8467,-3.8929,-3.9127,-3.7965,-3.6831,-3.6059,-3.4733,-3.3539,0.0,0.0,0.0,0.0,0.0,0.0,0.0,0.0,0.0,0.0,0.0,0.0,0.0,0.0,0.0,0.0,0.0,0.0,0.0,0.0,0.0,0.0,0.0,0.0,0.0,0.0,0.0,-2.4907,-2.3942,0.0,0.0,0.0,0.0,0.0,0.0,0.0,0.0,0.0,0.0,0.0,-2.573,-2.6215,0.0,0.0,0.0,0.0,0.0,0.0,0.0,0.0,0.0,0.0,0.0,0.0,-2.0039,-2.0829,-2.1428,-2.1876,-2.2193,-2.2157,-2.1814,-2.1078,-2.0651,-1.9899,-1.8984,0.0,0.0,0.0,0.0,0.0,0.0,0.0,0.0,0.0,0.0,0.0,0.0,0.0,0.0,0.0,0.0,0.0,0.0,0.0,0.0,0.0,0.0,0.0,0.0,0.0,-1.9564,0.0,0.0,0.0,0.0,0.0,0.0,0.0,0.0,0.0,0.0,0.0,-2.9762,-3.1779,-3.3409,-3.5114,-3.7017,-3.7613,-3.7887,0.0,0.0,0.0,0.0,0.0,0.0,0.0,0.0,0.0,0.0,0.0,0.0,0.0,0.0,-2.9767,-2.7921,-2.7268,-2.713,-2.7494,0.0,0.0,0.0,0.0,0.0,0.0,0.0,0.0,0.0,0.0,0.0,0.0,0.0,0.0,-2.6226,0.0,-2.4101,0.0,0.0,0.0,0.0,0.0,0.0,0.0,0.0,-2.725,-2.6552,-2.6602,-2.7095,-2.6407,0.0,-2.4648,-2.392,0.0,0.0,0.0,0.0,0.0,0.0,0.0,0.0,-2.0029,-2.0673,-2.1126,-2.1424,-2.1502,-2.1717,-2.1436,-2.0634,-2.0101,-1.9341,-1.8448,-1.6919,-1.556,0.0,0.0,0.0,0.0,0.0,0.0,0.0,0.0,0.0,0.0,0.0,0.0,0.0,0.0,0.0,0.0,0.0,0.0,0.0,0.0,0.0,0.0,0.0,-2.0276,0.0,0.0,0.0,0.0,0.0,0.0,0.0,0.0,0.0,-2.7855,-2.88,-3.0292,-3.2288,-3.3001,-3.394,-3.5649,0.0,0.0,0.0,0.0,0.0,0.0,0.0,-3.2372,-3.1224,-3.0683,-3.0048,-2.9056,-2.9409,-2.9767,-2.9524,0.0,0.0,-2.8436,-2.7871,-2.7783,-2.8335,-2.8134,-2.7999,-2.855,-2.8725,-2.8612,0.0,0.0,0.0,0.0,0.0,0.0,0.0,0.0,-2.7763,-2.7631,0.0,-2.5139,0.0,0.0,0.0,0.0,0.0,-2.6481,0.0,0.0,-2.886,-2.7829,-2.6569,-2.702,-2.6418,-2.4871,-2.4454,-2.3679,-2.2736,-2.2616,0.0,0.0,0.0,0.0,0.0,0.0,-1.9795,-2.0686,-1.9821,-2.0151,-2.1845,-2.0991,-2.0469,-2.0391,-1.9062,-1.8234,-1.813,-1.6221,-1.4989,-1.4606,-1.4857,0.0,0.0,0.0,0.0,0.0,0.0,0.0,0.0,0.0,0.0,0.0,0.0,0.0,0.0,0.0,0.0,0.0,0.0,0.0,0.0,-1.9949,0.0,0.0,0.0,0.0,0.0,0.0,0.0,0.0,0.0,0.0,-2.8875,-2.9854,-3.0997,-3.2059,0.0,0.0,0.0,0.0,-3.2198,-3.2856,-3.2369,-3.185,-3.1529,-3.1442,-3.1241,-3.0658,0.0,0.0,-2.9136,-2.945,-2.9664,-2.9028,-2.9422,-3.0118,-3.106,-3.0306,-2.9867,-3.0344,-2.9603,-2.9176,-2.9628,-2.9679,-2.9691,-2.8198,0.0,0.0,0.0,0.0,-2.934,-2.9309,-2.9266,-2.8124,-2.6084,-2.3608,-2.2625,0.0,0.0,0.0,0.0,0.0,0.0,-2.6813,-2.7436,-2.7214,-2.6909,-2.6554,-2.6691,-2.6099,-2.4804,-2.4692,-2.3959,-2.2591,-2.1949,-2.1302,-2.0556,0.0,0.0,0.0,0.0,-1.9728,-2.0581,-1.9752,-1.9868,-2.1001,-1.9178,-1.8224,-1.8221,-1.7806,-1.7141,-1.6174,-1.553,-1.486,-1.3897,-1.3646,0.0,0.0,0.0,0.0,0.0,0.0,0.0,0.0,0.0,0.0,0.0,0.0,0.0,0.0,0.0,0.0,0.0,0.0,0.0,-1.9183,-2.0087,-2.1355,0.0,0.0,0.0,0.0,0.0,0.0,0.0,0.0,0.0,-2.999,-3.0353,-3.0934,0.0,0.0,-3.1296,-3.1832,-3.141,-3.1016,-3.1261,-3.1465,0.0,-3.0939,-3.0834,-3.0658,-3.0118,-3.0344,-3.0498,-3.0188,-3.0276,-3.0152,-2.9611,-2.9664,-2.9905,-3.0143,-3.0018,-2.9854,-2.9967,-2.9754,-2.9603,-2.9754,-2.9779,-2.9666,-2.9285,-2.8827,-2.9274,-2.9592,-2.9757,-2.9303,-2.912,-2.9032,-2.7429,-2.5099,-2.2412,-2.2448,-2.2526,-2.2554,-2.1242,0.0,0.0,0.0,-2.5167,-2.5176,-2.5169,-2.537,-2.5786,-2.5797,-2.5114,-2.3944,-2.3696,-2.3157,-2.2246,-2.1387,-2.0918,-2.0791,0.0,0.0,-2.0029,-1.9707,-1.9785,-2.0283,-2.0024,-1.9869,-1.9913,-1.8259,-1.7299,-1.7334,-1.6927,-1.6261,-1.5493,-1.502,-1.4479,-1.3647,-1.33,-1.3026,0.0,0.0,0.0,0.0,0.0,0.0,0.0,0.0,0.0,0.0,0.0,-1.5142,-1.4878,0.0,0.0,0.0,-1.6255,-1.7856,-2.0495,-2.1188,0.0,0.0,0.0,0.0,0.0,0.0,0.0,-2.8874,-2.9152,-2.9564,-3.0461,-3.0403,-3.0656,-3.1655,-3.1105,-3.0707,-3.0932,0.0,-3.0369,-3.0583,-3.0884,-3.1047,-3.0947,-3.0746,-3.0432,-2.988,-3.0055,-3.0253,-3.0269,-3.0315,-3.0181,-2.9867,-2.9616,-2.944,-2.944,-2.9277,-2.9202,-2.9402,-2.9453,-2.939,-2.9176,-2.9126,-2.8938,-3.0256,-2.9741,-2.9227,-2.929,-2.9656,-2.8621,-2.8088,-2.7813,-2.6102,-2.4514,-2.3218,-2.3627,-2.3335,-2.2422,-2.1256,0.0,-2.1973,-2.2702,-2.3145,-2.3072,-2.3094,-2.3596,-2.4639,-2.465,-2.3839,-2.2451,-2.207,-2.1894,-2.1846,-2.1045,-2.083,-2.1111,-1.9924,-1.9311,-1.9404,-1.9746,-1.9847,-1.9771,-2.0226,-1.9795,-1.8612,-1.7649,-1.7172,-1.7017,-1.6108,-1.5538,-1.553,-1.4629,-1.3921,-1.3661,-1.3574,-1.316,-1.2371,0.0,0.0,0.0,0.0,0.0,0.0,0.0,0.0,0.0,0.0,0.0,0.0,0.0,0.0,-1.6612,-1.7948,0.0,-2.1491,-2.2937,0.0,0.0,0.0,-2.7826,-2.7292,-2.8151,-2.88,-2.87,0.0,0.0,-3.0356,-2.9999,-3.0065,-3.1135,-3.0846,-3.0545,-3.0557,-3.0118,-2.9967,-3.0444,-3.0545,-3.0721,-3.1009,-3.0771,-3.0344,-2.988,-2.9754,-2.9741,-2.9689,-2.9666,-2.9666,-2.9591,-2.9214,-2.8863,-2.8863,-2.8399,-2.8149,-2.8462,-2.8637,-2.855,-2.7903,-2.7755,-2.7434,-2.9905,-2.9779,-2.9641,-2.9705,-2.9679,-2.856,-2.7648,-2.6769,-2.5543,-2.4289,-2.3085,-2.2899,-2.2546,-2.2021,-2.1924,-2.1928,-2.1928,-2.2715,-2.3138,-2.3061,-2.313,-2.3071,-2.3073,-2.3063,-2.2676,-2.2041,-2.1934,-2.1894,-2.1865,-2.1338,-2.1123,-2.1121,-1.9784,-1.9474,-2.0254,-2.0029,-1.9525,-1.8822,-1.8897,-1.7743,-1.5353,-1.5793,-1.5703,-1.4908,-1.4657,-1.4489,-1.4489,-1.4034,-1.3721,-1.3546,-1.2993,-1.2518,-1.2311,-1.2164,0.0,0.0,0.0,0.0,0.0,0.0,0.0,0.0,0.0,-1.727,-1.636,0.0,-1.7442,0.0,-1.9419,-2.1199,-2.1828,-2.3273,0.0,0.0,-2.667,-2.724,-2.6724,-2.7616,-2.7985,-2.7163,-2.7209,-2.7684,-2.8563,-2.8602,-2.8943,-2.9961,-3.0068,-3.0005,-2.998,-2.9892,-2.9829,-2.9967,-3.0005,-3.003,-3.0168,-3.008,-2.993,-2.9817,-2.9428,-2.9151,-2.908,-2.8787,-2.8511,-2.8511,-2.8411,-2.831,-2.8199,-2.7619,-2.6698,-2.6299,-2.6614,-2.692,-2.6107,-2.5594,-2.5199,-2.9779,-2.9792,-2.9275,-2.901,-2.8778,-2.8315,-2.7302,-2.5997,-2.5167,-2.4125,-2.3125,-2.2891,-2.2666,-2.2451,-2.2575,-2.2578,-2.2457,-2.2908,-2.2928,-2.2534,-2.2534,-2.2427,-2.2236,-2.2236,-2.2012,-2.1602,-2.1602,-2.1494,-2.1289,-2.1055,-2.07,-2.0193,-1.9393,-1.9036,-1.9097,-1.8879,-1.8701,-1.8701,-1.7666,-1.6188,-1.4198,-1.4685,-1.4734,-1.4166,-1.3955,-1.3888,-1.3888,-1.3601,-1.3454,-1.3434,-1.2846,-1.2438,-1.2305,-1.2024,-1.1737,0.0,0.0,0.0,0.0,0.0,0.0,0.0,0.0,0.0,0.0,0.0,-1.8394,-1.8713,-2.0192,-2.1659,-2.2888,-2.3745,-2.4744,-2.5887,-2.6542,-2.6818,-2.6521,-2.7046,-2.7128,-2.6554,-2.6281,-2.647,-2.7244,-2.7163,-2.7369,-2.8255,-2.8303,-2.8712,-2.9624,-2.9779,-2.9779,-2.9779,-2.9779,-2.9611,-2.9118,-2.8819,-2.8504,-2.8144,-2.8295,-2.8425,-2.7975,-2.8027,-2.7946,-2.7335,-2.6937,-2.6588,-2.5997,-2.5218,-2.4339,-2.3575,-2.3652,-2.3931,-2.3915,-2.3688,-2.3311,-2.9779,-2.9714,-2.8767,-2.7891,-2.7126,-2.7799,-2.7174,-2.5703,-2.4998,-2.4151,-2.3144,-2.3144,-2.3115,-2.3066,-2.3115,-2.3144,-2.3135,-2.3096,-2.264,-2.1949,-2.1787,-2.1765,-2.1797,-2.1807,-2.1572,-2.1162,-2.1152,-2.0878,-2.0401,-2.0401,-1.9835,-1.8798,-1.8638,-1.8141,-1.7334,-1.7017,-1.7415,-1.855,-1.6472,-1.5018,-1.4082,-1.4088,-1.4088,-1.4075,-1.3801,-1.3647,-1.3641,-1.3327,-1.3153,-1.314,-1.2852,-1.2572,-1.2311,-1.2058,-1.181,0.0,-1.2398,0.0,0.0,0.0,0.0,0.0,0.0,0.0,0.0,-1.8326,-1.9287,-2.0469,-2.0771,-2.1718,-2.3597,-2.399,-2.4591,-2.5744,-2.6102,-2.6124,-2.5975,-2.6102,-2.6113,-2.5975,-2.5588,-2.5488,-2.5995,-2.5739,-2.565,-2.631,-2.6447,-2.7082,-2.8729,-2.909,-2.9036,-2.9282,-2.9245,-2.8541,-2.7854,-2.7321,-2.6738,-2.6153,-2.6629,-2.7189,-2.6347,-2.6822,-2.6927,-2.5775,-2.5153,-2.4519,-2.3199,-2.2522,-2.1827,-2.1064,-2.0825,-2.0928,-2.1614,-2.1732,-2.1498,-2.9779,-2.9792,-2.9534,-2.7349,-2.4229,-2.6898,-2.7972,-2.7657,-2.545,-2.3959,-2.3154,-2.3144,-2.2949,-2.2666,-2.2988,-2.3144,-2.3125,-2.313,-2.2693,-2.1835,-2.1165,-2.1018,-2.1286,-2.1348,-2.1123,-2.0713,-2.0693,-2.0234,-1.9283,-1.9283,-1.8718,-1.7666,-1.6764,-1.6683,-1.7172,0.0,0.0,0.0,-1.4721,-1.3993,-1.4075,-1.4088,-1.4088,-1.4082,-1.3801,0.0,-1.3546,-1.312,-1.2909,-1.2903,-1.2552,0.0,0.0,0.0,0.0,0.0,0.0,0.0,0.0,0.0,0.0,0.0,-1.5057,-1.5718,-1.7543,-1.8919,-1.9922,-2.0585,-2.172,-2.2272,-2.1839,-2.2868,-2.3358,-2.2919,-2.3867,-2.4187,-2.299,-2.3867,-2.4198,-2.2877,-2.2684,-2.3053,-2.3928,-2.3983,-2.4302,-2.516,-2.5453,-2.5621,-2.6023,-2.6436,-2.6438,-2.6182,-2.6314,-2.6023,-2.5766,-2.5686,-2.5483,-2.536,-2.4755,-2.4515,-2.4315,-2.4077,-2.3802,-2.3064,-2.3132,-2.3117,-2.2409,-2.1629,-2.0866,-2.0339,-1.9573,-1.9203,-1.9685,-1.9554,-1.9203,-2.9779,0.0,-2.9197,-2.7711,0.0,-2.6479,-2.6962,-2.7119,-2.5362,-2.3927,-2.2842,-2.2832,-2.2715,-2.2549,-2.3174,-2.334,-2.3144,-2.3135,-2.2457,-2.1221,-2.0791,-2.068,-2.0898,-2.0908,-2.0674,-2.0264,-1.9984,-1.9418,-1.8668,-1.8171,-1.7464,-1.6511,-1.5866,-1.5546,-1.5711,-1.4657,-1.4334,-1.4887,-1.4171,-1.3844,-1.4075,-1.4088,-1.4088,-1.4075,-1.3654,0.0,0.0,0.0,0.0,0.0,0.0,0.0,0.0,0.0,0.0,-1.2593,-1.3181,-1.3429,-1.3287,-1.3549,-1.379,-1.3952,-1.4414,-1.5636,-1.7819,-1.9364,-2.042,-2.0859,-2.1629,-2.1929,-2.1614,-2.2291,-2.2503,-2.206,-2.2631,-2.2744,-2.2109,-2.2539,-2.2754,-2.207,-2.1699,-2.1866,-2.2625,-2.2524,-2.2664,-2.3402,-2.3615,-2.3509,-2.3403,-2.4544,-2.5419,-2.5216,-2.4692,-2.429,-2.4061,-2.3798,-2.3329,-2.2766,-2.278,-2.2717,-2.2371,-2.2424,-2.2302,-2.1436,-2.1382,-2.1224,-2.0323,-1.9737,-1.932,-1.9127,-1.8665,-1.8389,-1.8613,-1.8455,-1.8329,-2.9779,-2.9702,-2.8609,-2.802,-2.7729,-2.6001,-2.543,-2.5564,0.0,0.0,0.0,-2.251,-2.2432,-2.2344,-2.3105,-2.3389,-2.3308,-2.3203,-2.2303,-2.0806,-2.0702,-2.0614,-2.0576,-2.0411,-2.0091,-1.963,-1.893,-1.8328,-1.7639,-1.6916,-1.615,-1.5397,-1.505,-1.4586,-1.4072,-1.4008,-1.4035,-1.4088,-1.4088,-1.4088,-1.4088,-1.4035,-1.4008,-1.4008,-1.344,-1.3133,-1.312,-1.2599,-1.2305,-1.2305,-1.2305,-1.2412,-1.2728,-1.2741,-1.2741,-1.2748,-1.2795,-1.2639,-1.2405,-1.2665,-1.2826,-1.2903,-1.4036,-1.57,-1.7854,-1.9369,-2.0362,-2.0729,-2.0905,-2.126,-2.1611,-2.165,-2.165,-2.165,-2.1728,-2.1748,-2.167,-2.1738,-2.1781,-2.1543,-2.1182,-2.1084,-2.1379,-2.1134,-2.1006,-2.1318,-2.151,-2.1348,-2.1282,-2.2778,-2.4105,-2.3897,-2.3179,-2.2689,-2.2293,-2.1907,-2.1084,-2.0277,-2.0894,-2.1237,-2.0801,-2.103,-2.1011,-1.9971,-1.9756,-1.9349,-1.833,-1.8135,-1.8008,-1.8008,-1.8008,-1.8008,-1.8008,-1.8008,-1.8037,-2.9779,-2.9714,-2.8597,-2.7186,-2.5766,-2.5136,-2.4344,-2.3594,-2.3841,-2.3418,-2.2519,-2.251,-2.21,-2.1445,-2.1934,-2.2902,-2.419,-2.3433,-2.2595,-2.1648,-2.0928,-2.0576,-2.0566,-1.9687,-1.9072,-1.862,-1.77,-1.6509,-1.5436,-1.5173,-1.4648,-1.3954,-1.3648,-1.3574,-1.3681,-1.3707,-1.3834,-1.4082,-1.4088,-1.4088,-1.4082,-1.3751,-1.3619,-1.3599,-1.3133,-1.2889,-1.2799,-1.2485,-1.2305,-1.2305,-1.2305,-1.2325,-1.2365,-1.2378,-1.2358,-1.2378,-1.2605,-1.2802,-1.2768,-1.2973,-1.3146,-1.3225,-1.4165,-1.5475,-1.6966,-1.8166,-1.8779,-1.8929,-1.9877,-2.0674,-2.0742,-2.0752,-2.0752,-2.0781,-2.1094,-2.1172,-2.083,-2.1064,-2.1025,-2.0381,-2.0146,-1.998,-1.9834,-1.9697,-1.9697,-1.9687,-1.9932,-1.9717,-1.9844,-2.0473,-2.0981,-2.0721,-2.0556,-2.0226,-2.0098,-1.9816,-1.9653,-1.9468,-1.928,-1.9294,-1.9082,-1.9191,-1.9113,-1.8439,-1.8656,-1.8557,-1.8086,-1.8008,-1.8008,-1.8008,-1.8008,-1.8008,-1.8008,-1.8008,-1.7998,-2.9456,-2.8858,-2.8347,-2.729,-2.5903,-2.5167,-2.4193,-2.3159,-2.3114,-2.2891,-2.251,-2.2275,-2.1953,-2.166,-2.2275,-2.275,-2.301,-2.3144,-2.2451,-2.124,-2.0808,-2.0585,-2.0469,-1.9297,-1.8502,-1.8064,-1.6569,-1.5304,-1.4485,-1.4012,-1.3563,-1.338,-1.3273,-1.328,-1.3414,-1.3567,-1.3796,-1.413,-1.4099,-1.4008,-1.3758,-1.3625,-1.3486,-1.3414,-1.2973,-1.2822,-1.2815,-1.2458,-1.2305,-1.2305,-1.2305,-1.2371,-1.2532,-1.2545,-1.2545,-1.2545,-1.2741,-1.2672,-1.2512,-1.2639,-1.2792,-1.2933,-1.3244,-1.3805,-1.4572,-1.6292,-1.7327,-1.7412,-1.7961,-1.8528,-1.9099,-1.9165,-1.9326,-1.9873,-2.0068,-2.0185,-2.0205,-2.0156,-2.0098,-1.9912,-1.9707,-1.9502,-1.9316,-1.9277,-1.9277,-1.9277,-1.9277,-1.9268,-1.9248,-1.9588,-1.98,-1.9615,-1.958,-1.9385,-1.9023,-1.8936,-1.8848,-1.8643,-1.8428,-1.83,-1.8286,-1.8309,-1.8163,-1.8066,-1.8193,-1.8203,-1.8018,-1.8008,-1.8008,-1.8008,-1.8008,-1.8008,-1.8008,-1.7833,-1.7745,-2.8937,-2.8096,-2.7474,-2.6619,-2.5572,-2.4651,-2.3859,-2.3083,-2.2546,-2.2279,-2.222,-2.2021,-2.1836,-2.1816,-2.2422,-2.2295,-2.1791,-2.2271,-2.184,-2.0707,-2.0569,-2.0505,-2.0138,-1.8775,-1.784,-1.7035,-1.5257,-1.4136,-1.3715,-1.3017,-1.2766,-1.2993,-1.3073,-1.31,-1.3113,-1.3327,-1.3575,-1.3926,-1.396,-1.3814,-1.3477,-1.3492,-1.332,-1.3113,-1.2806,-1.2721,-1.2714,-1.2425,-1.2305,-1.2305,-1.2305,-1.2412,-1.2701,-1.2721,-1.2645,-1.2645,-1.2728,-1.2545,-1.2331,-1.2305,-1.2405,-1.2619,-1.2438,-1.2405,-1.2777,-1.4328,-1.5646,-1.5937,-1.6262,-1.6783,-1.7512,-1.7839,-1.8119,-1.8599,-1.9014,-1.9271,-1.938,-1.9325,-1.9346,-1.9561,-1.9346,-1.9111,-1.9023,-1.9004,-1.8965,-1.8945,-1.9004,-1.9004,-1.9007,-1.9033,-1.9013,-1.9051,-1.9072,-1.8965,-1.8594,-1.8496,-1.8369,-1.8037,-1.8027,-1.8057,-1.7998,-1.8037,-1.8008,-1.8018,-1.8008,-1.8037,-1.8018,-1.8008,-1.8008,-1.8008,-1.8008,-1.7998,-1.7823,-1.7542,-1.7398,-2.8152,-2.7681,-2.5551,-2.3857,-2.2983,-2.2814,-2.2843,-2.3003,-2.2316,-2.1812,-2.1505,-2.1783,-2.166,-2.1338,-2.1416,-2.1201,-2.0742,-2.082,-2.0732,-2.0557,-2.0615,-2.0117,-1.9079,-1.7743,-1.6358,-1.5096,-1.376,-1.2955,-1.26,-1.2432,-1.2371,-1.2418,-1.2652,-1.2792,-1.2876,-1.2903,-1.3064,-1.3518,-1.3546,-1.3501,-1.3437,-1.312,-1.2923,-1.2876,-1.2505,-1.2345,-1.2358,-1.2318,-1.2305,-1.2305,-1.2298,-1.2305,-1.2338,-1.2345,-1.2345,-1.2351,-1.2351,-1.2325,-1.2305,-1.2305,-1.2318,-1.2338,-1.2331,-1.2318,-1.2358,-1.26,-1.3237,-1.4381,-1.5654,-1.6237,-1.6606,-1.7229,-1.7353,-1.6897,-1.7915,-1.8704,-1.8286,-1.8784,-1.916,-1.8779,-1.8537,-1.8494,-1.8074,-1.8016,-1.8046,-1.7975,-1.7916,-1.7906,-1.7966,-1.7977,-1.7949,-1.8085,-1.8368,-1.8436,-1.8134,-1.8076,-1.8076,-1.8018,-1.8008,-1.8008,-1.8008,-1.8008,-1.8008,-1.8008,-1.8008,-1.8008,-1.8008,-1.8008,-1.8008,-1.7988,-1.7978,-1.7881,-1.7542,-1.71,-1.6997,-2.6847,-2.613,-2.4497,-2.3156,-2.2222,-2.2139,-2.2546,-2.2981,-2.1915,-2.1293,-2.0972,-2.1302,-2.1396,-2.124,-2.124,-2.0986,-2.0586,-2.0576,-1.9837,-1.8758,-1.8671,-1.8417,-1.7857,-1.6636,-1.5504,-1.4709,-1.3418,-1.2599,-1.2351,-1.2305,-1.2305,-1.2311,-1.2432,-1.2485,-1.2492,-1.2659,-1.2889,-1.3108,-1.312,-1.3101,-1.31,-1.2993,-1.2786,-1.2505,-1.2365,-1.2305,-1.2305,-1.2305,-1.2225,-1.2064,-1.2051,-1.2044,-1.2044,-1.1877,-1.1944,-1.2258,-1.2305,-1.2305,-1.2305,-1.2305,-1.2305,-1.2305,-1.2305,-1.2305,-1.2305,-1.2305,-1.2573,-1.3121,-1.3695,-1.4201,-1.4743,-1.5323,-1.5634,-1.569,-1.6029,-1.6259,-1.6655,-1.6773,-1.6839,-1.6893,-1.6741,-1.6554,-1.6403,-1.6367,-1.6367,-1.6358,-1.6392,-1.6453,-1.6358,-1.636,-1.6316,-1.6333,-1.6519,-1.7037,-1.7676,-1.8008,-1.8008,-1.8008,-1.8008,-1.8008,-1.8008,-1.8008,-1.8008,-1.8008,-1.8008,-1.8008,-1.8008,-1.8008,-1.8008,-1.7959,-1.7715,-1.7529,-1.709,-1.6648,-1.649,-2.5524,-2.4502,-2.3377,-2.2393,-2.1709,-2.1709,-2.2088,-2.2584,-2.1669,-2.0963,-2.0639,-2.0946,-2.1045,-2.1064,-2.1172,-2.0986,-2.0605,-2.0576,-1.9381,-1.7434,-1.67,-1.6557,-1.67,-1.5743,-1.4885,-1.4236,-1.3175,-1.2512,-1.2318,-1.2305,-1.2305,-1.2305,-1.2305,-1.2305,-1.2325,-1.2525,-1.2701,-1.2639,-1.2685,-1.2595,-1.2266,-1.2227,-1.2205,-1.2251,-1.2305,-1.2305,-1.2298,-1.2225,-1.2091,-1.1877,-1.1797,-1.1744,-1.1737,-1.1617,-1.1777,-1.2231,-1.2305,-1.2305,-1.2305,-1.2305,-1.2305,-1.2305,-1.2305,-1.2305,-1.2305,-1.2305,-1.2305,-1.2311,-1.2305,-1.268,-1.3171,-1.3564,-1.392,-1.4307,-1.392,-1.4076,-1.5041,-1.516,-1.5421,-1.5549,-1.5543,-1.5163,-1.5234,-1.5305,-1.5305,-1.5296,-1.528,-1.5168,-1.5163,-1.5262,-1.524,-1.5188,-1.5242,-1.5737,-1.701,-1.7432,-1.7569,-1.7716,-1.7716,-1.8008,-1.8008,-1.8008,-1.8008,-1.8008,-1.8008,-1.8008,-1.8008,-1.8008,-1.792,-1.7783,-1.751,-1.707,-1.6645,-1.6179,-1.5928,-2.4445,-2.3408,-2.197,-2.134,-2.126,-2.126,-2.1479,-2.195,-2.143,-2.0986,-2.0644,-2.0615,-2.0596,-2.0625,-2.0977,-2.0977,-2.0605,-2.0566,-1.9372,-1.7146,-1.5249,-1.4816,-1.5711,-1.5132,-1.4279,-1.3434,-1.2804,-1.2358,-1.2311,-1.2305,-1.2305,-1.2305,-1.2305,-1.2305,-1.2311,-1.2338,-1.2331,-1.2365,-1.2385,-1.19,-1.1117,-1.0714,-1.1168,-1.2057,-1.2305,-1.2231,-1.2278,-1.2037,-1.1877,-1.1864,-1.159,-1.145,-1.147,-1.1697,-1.1977,-1.2245,-1.2298,-1.2305,-1.2305,-1.2305,-1.2305,-1.2305,-1.2305,-1.2305,-1.2305,-1.2305,-1.2305,-1.2305,-1.2305,-1.2378,-1.2452,-1.2599,-1.2606,-1.2579,-1.2476,-1.2926,-1.3688,-1.4489,-1.5092,-1.5133,-1.4974,-1.4879,-1.5021,-1.5163,-1.5021,-1.4966,-1.5111,-1.4992,-1.4903,-1.4984,-1.4992,-1.4919,-1.5021,-1.5234,-1.5376,-1.6149,-1.6576,-1.6784,-1.7217,-1.7852,-1.7998,-1.8008,-1.8008,-1.8008,-1.8008,-1.8008,-1.8008,-1.793,-1.7716,-1.7492,-1.7084,-1.6689,-1.5704,-1.5633,-1.5518,-2.2101,-2.1225,-2.0899,-2.081,-2.0801,-2.081,-2.0918,-2.1027,-2.0909,-2.0723,-2.0596,-2.0566,-2.041,-2.0166,-2.0312,-2.0449,-2.0547,-2.0566,-1.9232,-1.6702,-1.4509,-1.3715,-1.401,-1.3908,-1.3549,-1.297,-1.2692,-1.2485,-1.2318,-1.2305,-1.2305,-1.2305,-1.2305,-1.2305,-1.2305,-1.2305,-1.2305,-1.2305,-1.2305,-1.215,-1.1768,-1.1607,-1.1531,-1.124,-1.131,-1.162,-1.2298,-1.2024,-1.1784,-1.1597,-1.1309,-1.1149,-1.1196,-1.161,-1.1911,-1.2024,-1.2198,-1.2305,-1.2305,-1.2305,-1.2305,-1.2305,-1.2305,-1.2305,-1.2305,-1.2305,-1.2305,-1.2305,-1.2305,-1.2305,-1.2305,-1.2305,-1.2305,-1.2298,-1.2338,-1.2391,-1.2718,-1.3164,-1.3375,-1.3375,-1.3375,-1.3375,-1.3448,-1.3382,-1.3382,-1.3382,-1.3339,-1.3411,-1.3397,-1.3346,-1.3426,-1.339,-1.3302,-1.3302,-1.3375,-1.4728,-1.5728,-1.5939,-1.6349,-1.6849,-1.7114,-1.7619,-1.7716,-1.7754,-1.7823,-1.7794,-1.7725,-1.792,-1.7668,-1.6618,-1.629,-1.6018,-1.445,-1.4887,-1.4982,-2.0353,-1.983,-2.0029,-2.0234,-2.0342,-2.0215,-2.033,-2.0525,-2.0301,-2.0146,-2.0166,-1.9841,-1.9516,-1.9202,-1.8901,-1.9354,-2.0149,-2.042,-1.8611,-1.5144,-1.354,-1.3028,-1.3173,-1.3113,-1.2953,-1.2829,-1.2714,-1.2485,-1.2331,-1.2305,-1.2305,-1.2305,-1.2305,-1.2305,-1.2305,-1.2305,-1.2305,-1.2305,-1.2305,-1.215,-1.1848,-1.1471,-1.0972,-1.026,-1.0132,-1.0666,-1.1713,-1.1741,-1.1643,-1.141,-1.1062,-1.0935,-1.1156,-1.1603,-1.1917,-1.2011,-1.2191,-1.2305,-1.2305,-1.2305,-1.2305,-1.2305,-1.2305,-1.2305,-1.2305,-1.2305,-1.2305,-1.2305,-1.2305,-1.2305,-1.2305,-1.2305,-1.2305,-1.2305,-1.2305,-1.2305,-1.2305,-1.2305,-1.2378,-1.2378,-1.2452,-1.2378,-1.2305,-1.2305,-1.2378,-1.2305,-1.2305,-1.2305,-1.2305,-1.2305,-1.2305,-1.2305,-1.2452,-1.2445,-1.2592,-1.3593,-1.445,-1.4728,-1.5508,-1.5983,-1.6441,-1.6954,-1.7285,-1.7401,-1.7401,-1.7373,-1.751,-1.7794,-1.709,-1.5936,-1.6067,-1.6138,-1.5148,-1.4455,-1.4414,-1.937,-1.9297,-1.9287,-1.958,-1.9844,-1.9477,-1.9777,-2.0262,-1.9561,-1.9101,-1.8834,-1.8291,-1.7961,-1.7719,-1.7072,-1.7488,-1.8898,-1.9774,-1.7484,-1.3081,-1.2447,-1.266,-1.3106,-1.2859,-1.2739,-1.2761,-1.2452,-1.2325,-1.2311,-1.2305,-1.2305,-1.2305,-1.2305,-1.2305,-1.2305,-1.2305,-1.2305,-1.2305,-1.2305,-1.1848,-1.0864,-1.0121,-0.9558,-0.9207,-0.9056,-0.9494,-1.0491,-1.1026,-1.1312,-1.1308,-1.0843,-1.0855,-1.1343,-1.1677,-1.1977,-1.2211,-1.2298,-1.2305,-1.2305,-1.2305,-1.2305,-1.2305,-1.2305,-1.2305,-1.2305,-1.2305,-1.2305,-1.2305,-1.2305,-1.2305,-1.2305,-1.2305,-1.2305,-1.2305,-1.2305,-1.2305,-1.2305,-1.2305,-1.2305,-1.2305,-1.2305,-1.2305,-1.2305,-1.2305,-1.2305,-1.2305,-1.2305,-1.2305,-1.2305,-1.2305,-1.2305,-1.2305,-1.2305,-1.2305,-1.2305,-1.2378,-1.2952,-1.3593,-1.4514,-1.5255,-1.5581,-1.6035,-1.6209,-1.6305,-1.6078,-1.606,-1.654,-1.6729,-1.6524,-1.5757,-1.6085,-1.5677,-1.4462,-1.3545,-1.3846,-1.9111,-1.8887,-1.917,-1.9355,-1.9389,-1.8665,-1.8862,-1.9464,-1.8015,-1.6998,-1.658,-1.6716,-1.6698,-1.6433,-1.6127,-1.6146,-1.6522,-1.7046,-1.5734,-1.3246,-1.2516,-1.2391,-1.251,-1.2492,-1.2445,-1.2432,-1.2351,-1.2305,-1.2305,-1.2305,-1.2305,-1.2305,-1.2305,-1.2305,-1.2305,-1.2305,-1.2305,-1.2305,-1.2305,-1.215,-1.1768,-1.0864,-0.9925,-0.9223,-0.9104,-0.898,-0.8455,-0.9637,-1.0654,-1.1279,-1.0384,-1.0286,-1.1152,-1.151,-1.179,-1.2231,-1.2305,-1.2305,-1.2305,-1.2305,-1.2305,-1.2305,-1.2305,-1.2305,-1.2305,-1.2305,-1.2305,-1.2305,-1.2305,-1.2305,-1.2305,-1.2305,-1.2231,-1.2305,-1.2305,-1.215,-1.2077,-1.2231,-1.2305,-1.2305,-1.2305,-1.2305,-1.2305,-1.2305,-1.2305,-1.2305,-1.2305,-1.2305,-1.2305,-1.2305,-1.2305,-1.2305,-1.2305,-1.2305,-1.2305,-1.2305,-1.2592,-1.2952,-1.3665,-1.4418,-1.4744,-1.4885,-1.5056,-1.5088,-1.4874,-1.503,-1.5496,-1.5661,-1.5506,-1.4993,-1.4705,-1.3849,-1.2687,-1.2557,-1.3036,-1.811,-1.8296,-1.7812,-1.771,-1.784,-1.7188,-1.7424,-1.7917,-1.6646,-1.5266,-1.4475,-1.4993,-1.5274,-1.5024,-1.4699,-1.4364,-1.414,-1.4494,-1.3982,-1.2966,-1.253,-1.233,-1.2325,-1.2305,-1.2305,-1.2305,-1.2305,-1.2305,-1.2305,-1.2305,-1.2305,-1.2305,-1.2305,-1.2305,-1.2305,-1.2305,-1.2305,-1.2305,-1.2305,-1.2305,-1.2077,-1.1316,-1.029,-0.9296,-0.9092,-0.8461,-0.75,-0.8329,-0.9438,-1.0535,-1.0412,-1.059,-1.1215,-1.147,-1.1757,-1.1972,-1.2238,-1.2305,-1.2305,-1.2305,-1.2305,-1.2305,-1.2305,-1.2305,-1.2305,-1.2305,-1.2305,-1.2305,-1.2305,-1.2305,-1.2231,-1.1922,-1.1768,-1.1768,-1.1286,-1.1125,-1.0983,-1.1385,-1.1471,-1.1397,-1.1781,-1.1996,-1.1848,-1.215,-1.2231,-1.2305,-1.2305,-1.2305,-1.2305,-1.2305,-1.2231,-1.2231,-1.2305,-1.2305,-1.2305,-1.2305,-1.2305,-1.2526,-1.2886,-1.3455,-1.3988,-1.373,-1.3727,-1.3847,-1.3716,-1.3971,-1.4477,-1.4805,-1.479,-1.4085,-1.3427,-1.3076,-1.2569,-1.2236,-1.2427,-1.642,-1.7517,-1.5634,-1.5093,-1.5441,-1.5176,-1.5621,-1.6202,-1.5226,-1.3892,-1.2756,-1.3353,-1.3636,-1.3404,-1.2945,-1.2662,-1.2339,-1.2608,-1.2621,-1.2461,-1.229,-1.226,-1.2325,-1.2305,-1.2305,-1.2305,-1.2305,-1.2305,-1.2305,-1.2305,-1.2305,-1.2305,-1.2305,-1.2305,-1.2305,-1.2305,-1.2305,-1.2305,-1.2305,-1.2305,-1.2231,-1.1316,-1.0364,-0.9259,-0.8878,-0.8326,-0.7583,-0.7523,-0.8128,-0.9754,-1.0474,-1.0827,-1.1009,-1.1536,-1.1797,-1.1748,-1.2072,-1.2044,-1.215,-1.1848,-1.1855,-1.1774,-1.1922,-1.2224,-1.2077,-1.215,-1.2305,-1.2305,-1.2305,-1.2305,-1.215,-1.1465,-1.0938,-1.0548,-1.0209,-0.959,-0.8854,-1.0013,-1.0559,-1.0196,-1.1025,-1.1768,-1.0864,-1.1471,-1.1774,-1.1855,-1.1855,-1.1706,-1.1706,-1.1626,-1.2003,-1.2077,-1.1929,-1.215,-1.215,-1.2305,-1.2305,-1.2378,-1.2526,-1.2861,-1.3134,-1.2853,-1.2699,-1.2776,-1.2742,-1.3016,-1.3247,-1.3514,-1.3557,-1.3006,-1.2744,-1.28,-1.2558,-1.2026,-1.1703,-1.5733,-1.6042,-1.493,-1.4313,-1.4095,-1.3671,-1.4247,-1.5163,-1.3248,-1.2262,-1.1825,-1.2134,-1.2283,-1.206,-1.2256,-1.2318,-1.233,-1.2318,-1.2325,-1.2317,-1.233,-1.2304,-1.2318,-1.2305,-1.2305,-1.2305,-1.2305,-1.2305,-1.2305,-1.2305,-1.2305,-1.2305,-1.2305,-1.2305,-1.2305,-1.2305,-1.2305,-1.2305,-1.2305,-1.2298,-1.2137,-1.1304,-1.0586,-1.0064,-0.916,-0.8467,-0.8014,-0.7986,-0.7763,-0.781,-0.9092,-0.9939,-1.0122,-1.0921,-1.1484,-1.1637,-1.1363,-1.0995,-1.0765,-1.0409,-1.0121,-1.0196,-1.0864,-1.1162,-1.1236,-1.1848,-1.2231,-1.2305,-1.2305,-1.2231,-1.2077,-1.1316,-1.0185,-0.8983,-0.9412,-1.0002,-1.0013,-1.0473,-1.064,-1.0484,-1.0196,-1.0045,-0.9895,-0.997,-1.0276,-1.0276,-1.0276,-1.0276,-1.0501,-1.0421,-1.0645,-1.1093,-1.1168,-1.1694,-1.1996,-1.2231,-1.2305,-1.2305,-1.2378,-1.2385,-1.2469,-1.2179,-1.2052,-1.204,-1.1859,-1.2055,-1.195,-1.2079,-1.1826,-1.1903,-1.1791,-1.1753,-1.1546,-1.1104,-1.1073,-1.4345,-1.4829,-1.3523,-1.2717,-1.2365,-1.2289,-1.2639,-1.296,-1.2037,-1.1273,-1.123,-1.152,-1.1583,-1.1476,-1.1777,-1.208,-1.2281,-1.2315,-1.224,-1.2038,-1.2118,-1.2184,-1.2271,-1.2305,-1.2305,-1.2305,-1.2305,-1.2305,-1.2305,-1.2305,-1.2305,-1.2305,-1.2305,-1.2305,-1.2305,-1.2305,-1.2305,-1.2305,-1.2298,-1.2104,-1.1535,-1.1449,-1.0338,-0.9548,-0.8654,-0.8216,-0.727,-0.7091,-0.7087,-0.7483,-0.8382,-0.892,-0.9025,-0.9726,-1.056,-1.132,-1.067,-0.9739,-0.897,-0.8949,-0.9296,-0.9372,-0.989,-1.0115,-1.0265,-1.0726,-1.1025,-1.095,-1.1025,-1.1025,-1.0875,-1.0115,-0.8836,-0.7706,-0.8609,-0.9362,-0.8983,-0.9135,-0.9286,-0.9059,-0.914,-0.9069,-0.877,-0.8998,-0.9226,-0.9372,-0.9523,-0.9448,-0.9448,-0.9296,-0.9367,-0.989,-1.019,-1.0496,-1.072,-1.095,-1.1397,-1.1471,-1.1855,-1.1929,-1.1893,-1.1617,-1.1792,-1.1715,-1.1315,-1.1029,-1.1015,-1.1042,-1.1141,-1.1098,-1.0913,-1.0783,-1.0673,-1.06,-1.0476,-1.2646,-1.3699,-1.1692,-1.0732,-1.0752,-1.0994,-1.1076,-1.0877,-1.1102,-1.0844,-1.0486,-1.0915,-1.1051,-1.12,-1.1162,-1.1577,-1.2129,-1.2235,-1.1677,-1.1404,-1.1385,-1.1631,-1.1509,-1.1883,-1.1924,-1.1898,-1.2024,-1.1842,-1.162,-1.1768,-1.1929,-1.17,-1.1781,-1.1929,-1.1632,-1.1781,-1.199,-1.1864,-1.1685,-1.1332,-1.0797,-1.0879,-0.9947,-0.8308,-0.8245,-0.7481,-0.634,-0.5833,-0.6288,-0.7642,-0.8021,-0.8057,-0.7957,-0.8184,-0.9184,-1.0295,-0.9569,-0.8259,-0.7013,-0.8005,-0.8846,-0.8765,-0.8917,-0.9145,-0.9221,-0.9442,-0.9674,-0.9674,-0.9372,-0.9448,-0.9221,-0.8389,-0.7633,-0.6872,-0.733,-0.7176,-0.6718,-0.7176,-0.7399,-0.6641,-0.8165,-0.8318,-0.8241,-0.8313,-0.8917,-0.8161,-0.8313,-0.8237,-0.8237,-0.8237,-0.8461,-0.8988,-0.9145,-0.9221,-0.9372,-0.9523,-1.0045,-1.049,-1.1019,-1.1298,-1.1315,-1.132,-1.1648,-1.1539,-1.0823,-1.0503,-1.0496,-1.0549,-1.0348,-1.0117,-0.9768,-1.004,-1.0321,-1.0219,-1.011,-1.1633,-1.1283,-1.0161,-0.9995,-1.0456,-0.9993,-1.0064,-1.0604,-1.0664,-0.99,-0.9088,-0.9614,-0.9959,-0.9801,-1.0221,-1.0735,-1.1228,-1.1648,-1.1146,-0.9055,-1.002,-0.9979,-0.9993,-1.0548,-1.0961,-1.0779,-1.0222,-1.0018,-1.0007,-1.0179,-0.9976,-1.0051,-1.0201,-0.9976,-1.0051,-1.0248,-1.0267,-1.0522,-1.0154,-1.0024,-0.9913,-0.9687,-0.9141,-0.802,-0.8021,-0.7438,-0.6671,-0.6396,-0.6268,-0.6218,-0.663,-0.7038,-0.7113,-0.7894,-0.8467,-0.8548,-0.8417,-0.7559,-0.6667,-0.6771,-0.7026,-0.7173,-0.7783,-0.8084,-0.8161,-0.8765,-0.9145,-0.9296,-0.9296,-0.8765,-0.8161,-0.7936,-0.7253,-0.6644,-0.649,-0.6644,-0.6493,-0.7176,-0.748,-0.7403,-0.7099,-0.6872,-0.6718,-0.6868,-0.7096,-0.7022,-0.7022,-0.7022,-0.7099,-0.7249,-0.7553,-0.8084,-0.8161,-0.8237,-0.8542,-0.8694,-0.914,-0.9632,-1.014,-1.0393,-1.0493,-1.0651,-1.0831,-1.0647,-1.0219,-1.002,-0.9746,-0.9244,-0.8899,-0.8748,-0.8737,-0.9116,-0.9436,-0.9518,-0.96,-1.085,-1.0491,-0.9658,-0.8826,-0.8313,-0.8575,-0.9426,-1.0251,-0.967,-0.8918,-0.8275,-0.8679,-0.8794,-0.87,-0.9003,-0.9359,-0.9758,-1.0171,-0.9611,-0.8442,-0.8938,-0.9012,-0.8726,-0.8995,-0.9259,-0.9597,-0.9522,-0.9341,-0.9276,-0.9271,-0.9448,-0.9296,-0.9291,-0.9448,-0.9266,-0.919,-0.9464,-0.9577,-0.9216,-0.8917,-0.8602,-0.8684,-0.822,-0.7636,-0.7104,-0.6531,-0.6075,-0.6071,-0.5815,-0.562,-0.5815,-0.6075,-0.6148,-0.6718,-0.7031,-0.6991,-0.6937,-0.6765,-0.6335,-0.627,-0.6335,-0.6261,-0.6791,-0.6945,-0.7176,-0.7633,-0.7859,-0.7931,-0.7783,-0.7629,-0.7173,-0.7099,-0.6718,-0.649,-0.6261,-0.6261,-0.6412,-0.6795,-0.7099,-0.7022,-0.6644,-0.649,-0.6257,-0.6261,-0.6335,-0.6641,-0.6641,-0.6641,-0.6563,-0.6718,-0.6718,-0.7022,-0.7099,-0.7253,-0.7706,-0.8008,-0.8389,-0.8784,-0.916,-0.9306,-0.9343,-0.9606,-0.9787,-0.9557,-0.9227,-0.8952,-0.8657,-0.8091,-0.7897,-0.8156,-0.828,-0.8404,-0.8468,-0.8613,-0.8759,-1.0153,-1.0474,-0.933,-0.7506,-0.583,-0.7104,-0.8663,-0.9786,-0.8608,-0.7901,-0.7608,-0.7673,-0.7792,-0.7832,-0.7842,-0.8017,-0.8317,-0.8368,-0.8149,-0.7486,-0.7894,-0.7899,-0.7691,-0.7442,-0.7611,-0.8515,-0.8505,-0.8595,-0.8538,-0.876,-0.8341,-0.866,-0.8651,-0.8375,-0.8594,-0.8651,-0.836,-0.8284,-0.8155,-0.7706,-0.7142,-0.7436,-0.7212,-0.6651,-0.602,-0.562,-0.5557,-0.5491,-0.5428,-0.5428,-0.5428,-0.5428,-0.5432,-0.5406,-0.5484,-0.5823,-0.5974,-0.6127,-0.6291,-0.6304,-0.6261,-0.6261,-0.6335,-0.6335,-0.6412,-0.649,-0.6567,-0.649,-0.6567,-0.6567,-0.6338,-0.6412,-0.6412,-0.6261,-0.6261,-0.6261,-0.6261,-0.6261,-0.6412,-0.6412,-0.6412,-0.6335,-0.6261,-0.6261,-0.6261,-0.6261,-0.6261,-0.6261,-0.6261,-0.6335,-0.6409,-0.649,-0.6644,-0.6641,-0.7022,-0.7157,-0.7536,-0.7757,-0.8198,-0.8162,-0.8138,-0.8023,-0.8113,-0.8454,-0.8242,-0.7972,-0.7637,-0.7246,-0.7246,-0.7637,-0.7572,-0.7312,-0.7447,-0.7782,-0.7922,-0.9511,-1.0382,-0.7908,-0.6312,-0.5645,-0.6479,-0.7488,-0.8275,-0.7886,-0.6994,-0.6051,-0.6421,-0.6775,-0.6867,-0.6907,-0.7283,-0.7657,-0.7614,-0.7085,-0.6354,-0.6634,-0.6766,-0.6219,-0.6226,-0.6186,-0.6146,-0.6554,-0.676,-0.6687,-0.6452,-0.6884,-0.6565,-0.6622,-0.6626,-0.6699,-0.6414,-0.6635,-0.6706,-0.6549,-0.6226,-0.6052,-0.6011,-0.6136,-0.5752,-0.5491,-0.5425,-0.5428,-0.5428,-0.5428,-0.5428,-0.5428,-0.5428,-0.5446,-0.5464,-0.5483,-0.5587,-0.5765,-0.5989,-0.6242,-0.6276,-0.6325,-0.6261,-0.6261,-0.6261,-0.6261,-0.6261,-0.6261,-0.6261,-0.6261,-0.6261,-0.6261,-0.6261,-0.6261,-0.6261,-0.6261,-0.6261,-0.6261,-0.6261,-0.6261,-0.6261,-0.6261,-0.6261,-0.6261,-0.6261,-0.6261,-0.6261,-0.6261,-0.6261,-0.6261,-0.6254,-0.6328,-0.6331,-0.6335,-0.6335,-0.6412,-0.6465,-0.667,-0.6651,-0.6861,-0.6741,-0.6596,-0.632,-0.6371,-0.706,-0.726,-0.6985,-0.6658,-0.6404,-0.6338,-0.647,-0.628,-0.6156,-0.6548,-0.6942,-0.7265,-0.8591,-0.8795,-0.7016,-0.5835,-0.5265,-0.556,-0.6069,-0.6563,-0.6348,-0.5782,-0.5269,-0.5405,-0.5706,-0.5845,-0.5773,-0.6069,-0.632,-0.6311,-0.5915,-0.5535,-0.5689,-0.5747,-0.5257,-0.5399,-0.5403,-0.5528,-0.5633,-0.5796,-0.582,-0.5919,-0.5861,-0.583,-0.58,-0.58,-0.5779,-0.5803,-0.5664,-0.5652,-0.5583,-0.5511,-0.5369,-0.5428,-0.5428,-0.5428,-0.5428,-0.5428,-0.5428,-0.5428,-0.5428,-0.5428,-0.5428,-0.5428,-0.5386,-0.543,-0.5443,-0.5464,-0.5718,-0.6033,-0.6264,-0.6325,-0.6254,-0.6261,-0.6261,-0.6261,-0.6261,-0.6261,-0.6261,-0.6261,-0.6261,-0.6261,-0.6261,-0.6261,-0.6261,-0.6261,-0.6261,-0.6261,-0.6261,-0.6261,-0.6261,-0.6261,-0.6261,-0.6261,-0.6261,-0.6261,-0.6261,-0.6261,-0.6261,-0.6261,-0.6261,-0.6257,-0.6251,-0.621,-0.6207,-0.6217,-0.6207,-0.6179,-0.6139,-0.6057,-0.5973,-0.5867,-0.5769,-0.5775,-0.5859,-0.6203,-0.6148,-0.6203,-0.6009,-0.5818,-0.5557,-0.5428,-0.5627,-0.5826,-0.5899,-0.6164,-0.6486,-0.7348,-0.6817,-0.621,-0.5497,-0.4889,-0.4891,-0.505,-0.5229,-0.5012,-0.4833,-0.4549,-0.4771,-0.4951,-0.4991,-0.4954,-0.4958,-0.4908,-0.4961,-0.5078,-0.5126,-0.5154,-0.5087,-0.5125,-0.5186,-0.5233,-0.5237,-0.5362,-0.5572,-0.5657,-0.5735,-0.5739,-0.5688,-0.5705,-0.5718,-0.5677,-0.5593,-0.5562,-0.5515,-0.5443,-0.5376,-0.5369,-0.5435,-0.5432,-0.5432,-0.5369,-0.5369,-0.5372,-0.5369,-0.5372,-0.5372,-0.5369,-0.5372,-0.5432,-0.5432,-0.5423,-0.5477,-0.5684,-0.5919,-0.6179,-0.6291,-0.63,-0.6264,-0.6268,-0.6268,-0.6268,-0.6271,-0.6268,-0.6268,-0.6268,-0.6271,-0.6271,-0.6264,-0.6264,-0.6261,-0.6261,-0.6261,-0.6261,-0.6261,-0.6261,-0.6261,-0.6261,-0.6261,-0.6261,-0.6261,-0.6261,-0.6261,-0.6261,-0.6261,-0.6261,-0.6261,-0.6237,-0.6166,-0.6142,-0.6156,-0.6142,-0.6101,-0.6044,-0.5959,-0.5871,-0.5776,-0.5671,-0.5572,-0.5663,-0.5782,-0.5693,-0.5686,-0.5425,-0.5428,-0.5428,-0.5428,-0.5428,-0.5495,-0.5631,-0.5631,-0.5826,-0.5428,-0.486,-0.489,-0.4711,-0.4607,-0.4783,-0.4911,-0.4948,-0.4769,-0.4677,-0.4499,-0.467,-0.4813,-0.4877,-0.4806,-0.4816,-0.4833,-0.4785,-0.4736,-0.4735,-0.4877,-0.4942,-0.4948,-0.4955,-0.5053,-0.5077,-0.5159,-0.5267,-0.543,-0.5559,-0.5552,-0.5484,-0.5477,-0.5379,-0.5145,-0.5051,-0.542,-0.5349,-0.5333,-0.5252,-0.5113,-0.5113,-0.5183,-0.5249,-0.5249,-0.5183,-0.5046,-0.5043,-0.5116,-0.5186,-0.5256,-0.5326,-0.5393,-0.5389,-0.5393,-0.5454,-0.5638,-0.583,-0.5835,-0.5842,-0.5901,-0.5886,-0.6005,-0.62,-0.5928,-0.5935,-0.5941,-0.6291,-0.6129,-0.6207,-0.6207,-0.62,-0.6278,-0.6274,-0.6271,-0.6264,-0.6264,-0.6268,-0.6268,-0.6268,-0.6271,-0.6264,-0.6264,-0.6261,-0.6261,-0.6261,-0.6261,-0.6261,-0.6244,-0.623,-0.6257,-0.6196,-0.6125,-0.6129,-0.6142,-0.6091,-0.5979,-0.5884,-0.5776,-0.5688,-0.5583,-0.5494,-0.5471,-0.5543,-0.5449,-0.5428,-0.5428,-0.5428,-0.5428,-0.5428,-0.5428,-0.5428,-0.5428,-0.5428,-0.5428,-0.4787,-0.4525,-0.4535,-0.4562,-0.4509,-0.4636,-0.466,-0.4646,-0.4596,-0.4539,-0.4525,-0.4539,-0.4599,-0.466,-0.4663,-0.4677,-0.4653,-0.4599,-0.4528,-0.4523,-0.467,-0.4796,-0.4886,-0.4941,-0.5016,-0.4735,-0.5061,-0.5318,-0.5387,-0.5372,-0.5423,-0.5396,-0.5309,-0.4712,-0.403,-0.3894,-0.3828,-0.3828,-0.3758,-0.3284,-0.288,-0.3282,-0.3892,-0.3825,-0.3892,-0.3892,-0.3894,-0.3894,-0.3894,-0.3894,-0.3894,-0.3894,-0.3828,-0.3961,-0.4167,-0.5413,-0.546,-0.4605,-0.3158,-0.3958,-0.4321,-0.45,-0.452,-0.4428,-0.4523,-0.4503,-0.4459,-0.4454,-0.4511,-0.4935,-0.5497,-0.5096,-0.5491,-0.5727,-0.5802,-0.5879,-0.5879,-0.6278,-0.6281,-0.6281,-0.62,-0.5957,-0.5792,-0.5867,-0.6025,-0.6261,-0.6261,-0.6261,-0.6213,-0.6152,-0.62,-0.6251,-0.6176,-0.6115,-0.6132,-0.6115,-0.5969,-0.5854,-0.5701,-0.5606,-0.5501,-0.5433,-0.542,-0.5473,-0.5442,-0.5428,-0.5428,-0.5428,-0.5428,-0.5428,-0.5428,-0.5428,-0.5428,-0.5428,-0.5428,-0.4429,-0.446,-0.4467,-0.4467,-0.4467,-0.447,-0.4477,-0.4477,-0.4477,-0.4477,-0.447,-0.4473,-0.447,-0.4484,-0.4575,-0.4579,-0.4487,-0.447,-0.4478,-0.4552,-0.4586,-0.465,-0.4561,-0.4578,-0.4112,-0.3946,-0.4042,-0.4341,-0.4517,-0.4681,-0.4751,-0.5379,-0.5393,-0.41,-0.2547,-0.2009,-0.2007,-0.205,-0.205,-0.1448,-0.0719,-0.1437,-0.1907,-0.2049,-0.2056,-0.0,-0.2009,-0.2012,-0.2012,-0.2012,-0.2012,-0.2013,-0.2013,-0.208,-0.3297,-0.4666,-0.5447,-0.3818,-0.2018,-0.1558,-0.2159,-0.232,-0.2324,-0.2343,-0.2345,-0.0,-0.234,-0.2348,-0.232,-0.3202,-0.3919,-0.3052,-0.3129,-0.3915,-0.4781,-0.494,-0.5018,-0.4937,-0.4937,-0.4854,-0.4854,-0.5093,-0.501,-0.524,-0.5631,-0.6106,-0.6264,-0.6264,-0.6217,-0.6069,-0.611,-0.6264,-0.6237,-0.6149,-0.6016,-0.5989,-0.5939,-0.5669,-0.552,-0.5527,-0.5398,-0.5376,-0.5389,-0.5439,-0.5428,-0.5432,-0.5432,-0.5432,-0.5428,-0.5428,-0.5428,-0.5428,-0.5428,-0.5428,-0.5428,-0.4341,-0.4463,-0.447,-0.4477,-0.4477,-0.449,-0.4435,-0.449,-0.4435,-0.4324,-0.4262,-0.448,-0.4477,-0.4428,-0.4383,-0.434,-0.4494,-0.4494,-0.4166,-0.4172,-0.4511,-0.4419,-0.421,-0.3597,-0.2693,-0.2388,-0.2591,-0.2697,-0.2944,-0.3354,-0.4118,-0.5163,-0.5355,-0.3222,-0.0,-0.0,-0.0,-0.0,-0.0,-0.0,-0.0,-0.0,-0.0,-0.0,-0.0,-0.0,-0.0,-0.0,-0.0,-0.0,-0.0,-0.0,-0.0,-0.0,-0.0,-0.372,-0.4476,-0.2847,-0.1093,-0.0,-0.0,-0.0,-0.0,-0.0,-0.0,-0.0,-0.0,-0.0,-0.0,-0.0,-0.0,-0.0,-0.0,-0.1644,-0.2662,-0.266,-0.2738,-0.3051,-0.3049,-0.3281,-0.3363,-0.3522,-0.4077,-0.4309,-0.4613,-0.5162,-0.6271,-0.6271,-0.6035,-0.5912,-0.6076,-0.619,-0.6274,-0.612,-0.5907,-0.568,-0.517,-0.4982,-0.4848,-0.5069,-0.53,-0.5267,-0.4764,-0.5372,-0.5372,-0.5372,-0.5236,-0.4894,-0.4824,-0.5226,-0.5428,-0.5432,-0.5432,-0.5432,-0.5428,-0.4227,-0.4341,-0.4436,-0.4477,-0.4421,-0.3469,-0.3641,-0.4212,-0.353,-0.3077,-0.3132,-0.4036,-0.449,-0.4262,-0.3466,-0.3691,-0.4209,-0.3416,-0.2738,-0.2345,-0.2514,-0.353,-0.3705,-0.354,-0.2824,-0.0,-0.0,-0.1626,-0.2694,-0.2518,-0.3822,-0.4851,-0.5029,-0.3125,-0.0,-0.0,-0.0,-0.0,-0.0,-0.0,-0.0,-0.0,-0.0,-0.0,-0.0,-0.0,-0.0,-0.0,-0.0,-0.0,-0.0,-0.0,-0.0,-0.0,-0.0,-0.0,-0.0,-0.0,-0.0,-0.0,-0.0,-0.0,-0.0,-0.0,-0.0,-0.0,-0.0,-0.0,-0.0,-0.0,-0.0,-0.0,-0.0,-0.0,-0.0,-0.0,-0.0,-0.0,-0.0,-0.0,-0.0,-0.1803,-0.2511,-0.3221,-0.3682,-0.4146,-0.5329,-0.6203,-0.5967,-0.5329,-0.5174,-0.5646,-0.5808,-0.5591,-0.5315,-0.4858,-0.4345,-0.4158,-0.3975,-0.3975,-0.3983,-0.3846,-0.3618,-0.4495,-0.5243,-0.5246,-0.4906,-0.4292,-0.4359,-0.51,-0.5369,-0.5369,-0.5369,-0.5299,-0.5369,-0.4113,-0.4207,-0.4426,-0.433,-0.3852,-0.2287,-0.212,-0.2852,-0.2012,-0.1563,-0.1618,-0.274,-0.3761,-0.3872,-0.3588,-0.2573,-0.2798,-0.1956,-0.106,-0.0837,-0.1285,-0.2183,-0.2807,-0.2753,-0.0,-0.0,-0.0,-0.0856,-0.1683,-0.186,-0.2378,-0.3116,-0.3685,-0.1847,-0.0,-0.0,-0.0,-0.0,-0.0,-0.0,-0.0,-0.0,-0.0,-0.0,-0.0,-0.0,-0.0,-0.0,-0.0,-0.0,-0.0,-0.0,-0.0,-0.0,-0.0,-0.0,-0.0,-0.0,-0.0,-0.0,-0.0,-0.0,-0.0,-0.0,-0.0,-0.0,-0.0,-0.0,-0.0,-0.0,-0.0,-0.0,-0.0,-0.0,-0.0,-0.0,-0.0,-0.0,-0.0,-0.0,-0.0,-0.0,-0.0,-0.0,-0.0,-0.0,-0.3752,-0.5018,-0.5986,-0.5029,-0.3606,-0.4316,-0.5185,-0.4878,-0.4566,-0.3428,-0.2407,-0.2131,-0.201,-0.2049,-0.1971,-0.0,-0.0,-0.2484,-0.336,-0.4509,-0.4643,-0.403,-0.4434,-0.5113,-0.504,-0.4694,-0.4631,-0.4564,-0.5246,-0.3988,-0.4239,-0.4435,-0.3974,-0.306,-0.1003,-0.0335,-0.0,-0.0,-0.0,-0.0,-0.0,-0.1846,-0.3596,-0.337,-0.2411,-0.0,-0.0,-0.0,-0.0,-0.0,-0.0,-0.0,-0.0,-0.0,-0.0,-0.0,-0.0056,0.0227,0.04,0.0058,-0.0176,-0.0419,-0.0,-0.0,-0.0,-0.0,-0.0,-0.0,-0.0,-0.0,-0.0,-0.0,-0.0,-0.0,-0.0,-0.0,-0.0,-0.0,-0.0,-0.0,-0.0,-0.0,-0.0,-0.0,-0.0,-0.0,-0.0,-0.0,-0.0,-0.0,-0.0,-0.0,-0.0,-0.0,-0.0,-0.0,-0.0,-0.0,-0.0,-0.0,-0.0,-0.0,-0.0,-0.0,-0.0,-0.0,-0.0,-0.0,-0.0,-0.0,-0.0,-0.0,-0.0,-0.0,-0.0,-0.0,-0.0,-0.0,-0.0,-0.0,-0.2431,-0.3448,-0.3534,-0.2941,-0.1405,-0.0506,-0.0,-0.0,-0.0,-0.0,-0.0,-0.0,-0.0,-0.1615,-0.2958,-0.3565,-0.3832,-0.4241,-0.4448,-0.3961,-0.3689,-0.3625,-0.3625,-0.3961,-0.4063,-0.4204,-0.4412,-0.431,-0.3901,-0.3304,-0.1903,-0.0,-0.0,-0.0,-0.0,-0.0,-0.0,-0.1345,-0.0,-0.0,-0.0,-0.0,-0.0,-0.0,-0.0,-0.0,-0.0,-0.0,-0.0,-0.0,-0.0,0.165,0.3682,0.3117,0.3138,0.3004,0.1942,0.1077,-0.0,-0.0,-0.0,-0.0,-0.0,-0.0,0.2821,0.2058,0.1465,0.1486,0.1453,0.1476,0.1494,0.1476,0.1133,0.0448,-0.0,-0.0,-0.0,-0.0,-0.0,-0.0,-0.0,-0.0,-0.0,-0.0,-0.0,-0.0,-0.0,-0.0,-0.0,-0.0,-0.0,-0.0,-0.0,-0.0,-0.0,-0.0,-0.0,-0.0,-0.0,-0.0,-0.0,-0.0,-0.0,-0.0,-0.0,-0.0,-0.0,-0.0,-0.0,-0.0,-0.0,-0.0,-0.0,-0.0,-0.0,-0.0,-0.1171,-0.1605,-0.0,-0.0,-0.0,-0.0,-0.0,-0.0,-0.0,-0.0,-0.0,-0.0,-0.0,-0.1345,-0.2085,-0.276,-0.3374,-0.3578,-0.3094,-0.0,-0.0,-0.0,-0.1874,-0.4026,-0.4133,-0.4328,-0.4389,-0.4402,-0.4473,-0.2802,-0.0,-0.0,-0.0,-0.0,-0.0,-0.0,-0.0,-0.0,-0.0,-0.0,-0.0,-0.0,-0.0,-0.0,-0.0,-0.0,-0.0,-0.0,-0.0,0.1349,0.3022,0.4579,0.4955,0.465,0.4116,0.3748,0.2999,-0.0,-0.0,-0.0,0.1232,0.2122,0.3071,0.3587,0.3767,0.3235,0.3058,0.3014,0.2984,0.2982,0.2858,0.2581,0.1634,-0.0,-0.0,-0.0,-0.0,-0.0,-0.0,-0.0,-0.0,-0.0,-0.0,-0.0,-0.0,-0.0,-0.0,-0.0,-0.0,-0.0,-0.0,-0.0,-0.0,-0.0,-0.0,-0.0,-0.0,-0.0,-0.0,-0.0,-0.0,-0.0,-0.0,-0.0,-0.0,-0.0,-0.0,-0.0,-0.0,-0.0,-0.0,-0.0,-0.0,-0.0,-0.0,-0.0,-0.0,-0.0,-0.0,-0.0,-0.0,-0.0,-0.0,-0.0,-0.0,-0.0,-0.0,-0.0,-0.0,-0.0,-0.0,-0.0,-0.0,-0.2359,-0.0,-0.0,-0.0,-0.0,-0.3976,-0.4006,-0.414,-0.4217,-0.4237,-0.4436,-0.28,-0.0,-0.0,-0.0,-0.0,-0.0,-0.0,-0.0,-0.0,-0.0,-0.0,-0.0,-0.0,-0.0,-0.0,-0.0,-0.0,-0.0,-0.0,-0.0,0.2366,0.3685,0.4538,0.4649,0.4579,0.4585,0.45,0.414,0.3643,0.3045,0.2382,0.2308,0.2117,0.3195,0.415,0.4863,0.4441,0.421,0.4062,0.4086,0.408,0.4062,0.4243,0.3437,-0.0,-0.0,-0.0,-0.0,-0.0,-0.0,-0.0,-0.0,-0.0,-0.0,-0.0,-0.0,-0.0,-0.0,-0.0,-0.0,-0.0,-0.0,-0.0,-0.0,-0.0,-0.0,-0.0,-0.0,-0.0,-0.0,-0.0,-0.0,-0.0,-0.0,-0.0,-0.0,-0.0,-0.0,-0.0,-0.0,-0.0,-0.0,-0.0,-0.0,-0.0,-0.0,-0.0,-0.0,-0.0,-0.0,-0.0,-0.0,-0.0,-0.0,-0.0,-0.0,-0.0,-0.0,-0.0,-0.0,-0.0,-0.0,-0.0,-0.0,-0.0,-0.0,-0.0,-0.0,-0.0,-0.4144,-0.4334,-0.4382,-0.4402,-0.4409,-0.4463,-0.2792,-0.0,-0.0,-0.0,-0.0,-0.0,-0.0,-0.0,-0.0,-0.0,-0.0,-0.0,-0.0,-0.0,-0.0,-0.0,-0.0,-0.0,-0.0,-0.0,0.2761,0.4505,0.4528,0.4471,0.4639,0.4799,0.4691,0.4765,0.4541,0.4241,0.3915,0.3579,0.2975,0.3646,0.4311,0.4869,0.4762,0.4626,0.4525,0.4535,0.4521,0.4478,0.4599,0.4118,0.3997,-0.0,-0.0,-0.0,-0.0,-0.0,-0.0,-0.0,0.3641,0.2621,0.1945,0.1945,0.1946,0.1008,-0.0,-0.0,-0.0,-0.0,-0.0,-0.0,-0.0,-0.0,-0.0,-0.0,-0.0,-0.0,-0.0,-0.0,-0.0,-0.0,-0.0,-0.0,-0.0,-0.0,-0.0,-0.0,-0.0,-0.0,-0.0,-0.0,-0.0,-0.0,-0.0,-0.0,-0.0,-0.0,-0.0,-0.0,-0.0,-0.0,-0.0,-0.0,-0.0,-0.0,-0.0,-0.0,-0.0,-0.0,-0.0,-0.0,-0.0,-0.0,-0.0,-0.0,-0.0,-0.4124,-0.4287,-0.4355,-0.4409,-0.446,-0.4473,-0.335,-0.1729,-0.0559,-0.0,-0.0,-0.0,-0.0,-0.0,-0.0,-0.0,-0.0,-0.0,-0.0,-0.0,-0.0,-0.0,-0.0,-0.0,-0.0,0.202,0.321,0.4485,0.4512,0.4515,0.4599,0.4684,0.4629,0.4616,0.4539,0.4475,0.4485,0.4403,0.4368,0.4513,0.4588,0.4673,0.4619,0.4572,0.4597,0.457,0.4532,0.4553,0.4545,0.4607,0.488,-0.0,-0.0,-0.0,-0.0,0.0872,0.2216,0.4105,0.4584,0.4306,0.3894,0.3758,0.3689,0.3291,0.2417,-0.0,-0.0,-0.0,-0.0,-0.0,-0.0,-0.0,-0.0,-0.0,-0.0,-0.0,-0.0,-0.0,-0.0,-0.0,-0.0,-0.0,-0.0,-0.0,-0.0,-0.0,-0.0,-0.0,-0.0,-0.0,-0.0,-0.0,-0.0,-0.0,-0.0,-0.0,-0.0,-0.0,-0.0,-0.0,-0.0,-0.0,-0.0,-0.0,-0.0,-0.0,-0.0,-0.0,-0.0,-0.0,-0.0,-0.0,-0.0,-0.0,-0.0,-0.4012,-0.4046,-0.413,-0.4338,-0.4453,-0.4457,-0.4405,-0.419,-0.1666,-0.0,-0.0,-0.0,-0.0,-0.0,-0.0,-0.0,-0.0,-0.0,-0.0,-0.0,-0.0,-0.0,-0.0,0.0449,0.2076,0.3658,0.4511,0.4511,0.4487,0.4501,0.4507,0.4519,0.4536,0.4494,0.4501,0.4501,0.4511,0.4528,0.4472,0.4521,0.4571,0.4585,0.4584,0.4622,0.4626,0.4599,0.4587,0.4628,0.4677,0.471,0.4789,0.4895,0.4434,0.3762,0.2132,0.1804,0.3013,0.4028,0.5119,0.5049,0.5116,0.5183,0.5393,0.4913,0.4095,0.3493,0.3021,0.2887,0.2887,0.2978,0.285,0.2293,-0.0,-0.0,-0.0,-0.0,-0.0,-0.0,-0.0,-0.0,-0.0,-0.0,-0.0,-0.0,-0.0,-0.0,-0.0,-0.0,-0.0,-0.0,-0.0,-0.0,-0.0,-0.0,-0.0,-0.0,-0.0,-0.0,-0.0,-0.0,-0.0,-0.0,-0.0,-0.0,-0.0,-0.0,-0.0,-0.0,-0.0,-0.0,-0.0,-0.0,-0.0,-0.0,-0.0,-0.3914,-0.4036,-0.4133,-0.4331,-0.4494,-0.4348,-0.4372,-0.4453,-0.3806,-0.2073,-0.0,-0.0,-0.0,-0.0,-0.0,-0.0,-0.0,-0.0,-0.0,-0.0,-0.0,-0.0,-0.0,0.2189,0.3602,0.4166,0.4501,0.4484,0.447,0.4463,0.4463,0.4519,0.4463,0.4463,0.4463,0.4463,0.4463,0.447,0.4501,0.4485,0.4505,0.4515,0.45,0.4572,0.4514,0.4521,0.4536,0.4556,0.4584,0.4568,0.476,0.5064,0.5242,0.4888,0.457,0.43,0.4223,0.4834,0.5109,0.5379,0.5376,0.5372,0.5372,0.5369,0.5169,0.4909,0.4712,0.4643,0.466,0.4772,0.4659,0.4004,0.3444,0.2742,0.2225,0.227,0.2315,0.192,0.1431,-0.0,-0.0,-0.0,-0.0,-0.0,-0.0,-0.0,-0.0,-0.0,-0.0,-0.0,-0.0,-0.0,-0.0,-0.0,-0.0,-0.0,-0.0,-0.0,-0.0,-0.0,0.3776,0.3038,0.2116,0.1549,-0.0,-0.0,-0.0,-0.0,-0.0,-0.0,-0.0,-0.0,-0.0,-0.0,-0.0,-0.3782,-0.3941,-0.4107,-0.429,-0.4345,-0.4227,-0.4241,-0.4291,-0.441,-0.3556,-0.1863,-0.0,-0.0,-0.0,-0.0,-0.0,-0.0,-0.0,-0.0,-0.0,-0.0,-0.0,0.2245,0.3546,0.3996,0.4501,0.4484,0.4467,0.4463,0.4463,0.4463,0.4463,0.4463,0.4463,0.4463,0.4463,0.4463,0.4463,0.4463,0.4463,0.4463,0.4472,0.4502,0.447,0.4463,0.4463,0.4549,0.456,0.4573,0.4625,0.4772,0.4937,0.5216,0.5259,0.5302,0.5239,0.5236,0.5372,0.5372,0.5435,0.5428,0.5428,0.5428,0.5428,0.5428,0.5103,0.5106,0.5103,0.5103,0.5148,0.5258,0.4824,0.4675,0.4167,0.4051,0.4028,0.4058,0.3939,0.3614,-0.0,-0.0,-0.0,-0.0,-0.0,-0.0,-0.0,-0.0,0.5751,0.5382,0.5272,0.3722,0.2572,0.1812,0.1417,-0.0,-0.0,-0.0,-0.0,0.3736,0.4147,0.4469,0.4351,0.3954,0.3355,0.285,-0.0,-0.0,0.1347,0.1212,-0.0,-0.0,-0.0,0.1009,0.074,-0.0,-0.3715,-0.3826,-0.4073,-0.415,-0.4216,-0.414,-0.4095,-0.4059,-0.4271,-0.4446,-0.4006,-0.1749,-0.0611,-0.0,-0.0,-0.0,-0.0,-0.0,-0.0,-0.0,-0.0,-0.0,0.2979,0.4113,0.4216,0.4373,0.447,0.4463,0.4463,0.4463,0.4463,0.4463,0.4463,0.4463,0.4463,0.4463,0.4463,0.4463,0.4463,0.4463,0.4463,0.4463,0.4467,0.4467,0.4463,0.4463,0.4563,0.4597,0.4615,0.464,0.4752,0.4999,0.5179,0.5318,0.5411,0.5432,0.5432,0.5428,0.5428,0.5428,0.5428,0.5428,0.5428,0.5428,0.5428,0.5428,0.5432,0.5439,0.5439,0.5476,0.5592,0.5616,0.5471,0.5396,0.5406,0.5368,0.5447,0.549,0.5281,0.5159,0.439,0.3391,0.3419,0.3436,0.3434,0.3467,0.3852,0.4811,0.5557,0.5645,0.5025,0.4397,0.3854,0.3645,0.3534,0.3401,0.3283,0.3759,0.4704,0.4941,0.5123,0.503,0.505,0.5171,0.4645,0.392,0.3599,0.3157,0.3027,0.2898,0.303,0.3023,0.2887,0.2485,0.1344,-0.3708,-0.3893,-0.3907,-0.4,-0.4139,-0.4045,-0.3958,-0.3996,-0.3817,-0.4034,-0.4073,-0.3887,-0.0,-0.0,-0.0,-0.0,-0.0,-0.0,-0.0,-0.0,-0.0,-0.0,0.3429,0.3761,0.3688,0.4018,0.4463,0.4463,0.4463,0.4463,0.4463,0.4463,0.4463,0.4463,0.4463,0.4463,0.4463,0.4463,0.4463,0.4463,0.4463,0.4463,0.4463,0.4463,0.4463,0.4463,0.4477,0.4546,0.4543,0.4618,0.4745,0.5013,0.5186,0.5308,0.5418,0.5428,0.5428,0.5428,0.5428,0.5428,0.5428,0.5428,0.5428,0.5428,0.5428,0.5428,0.5435,0.5456,0.5413,0.5491,0.5603,0.5617,0.5617,0.5549,0.5555,0.563,0.5739,0.5651,0.548,0.5516,0.5272,0.5035,0.5243,0.5229,0.524,0.5217,0.5185,0.595,0.5943,0.6073,0.6118,0.5796,0.5472,0.5765,0.5628,0.5214,0.5163,0.5422,0.5484,0.5598,0.5664,0.5698,0.5781,0.5656,0.558,0.4996,0.4722,0.4384,0.4495,0.4367,0.4712,0.4846,0.464,0.4167,0.3086]},{"header":{"parameterUnit":"m.s-1","parameterCategory":1,"la1":31.0,"la2":29.5877,"lo1":-88.7671,"lo2":-86.6584,"dy":0.0162,"dx":0.0185,"nx":115,"ny":88,"refTime":"2023-05-22T06:00:00:Z","depth":0,"parameterNumber":3,"parameterNumberName":"V-component_of_WINDS"},"data":[0.0,0.0,0.0,0.0,0.0,0.0,0.0,0.0,0.0,0.0,0.0,0.0,0.0,0.0,0.0,0.0,0.0,0.0,0.0,0.0,0.0,0.0,0.0,0.0,0.0,0.0,0.0,0.0,0.0,0.0,0.0,0.0,0.0,0.0,0.0,0.0,0.0,0.0,0.0,0.0,0.0,0.0,0.0,0.0,0.0,0.0,0.0,0.0,0.0,0.0,0.0,0.0,0.0,0.0,0.0,0.0,0.0,0.0,0.0,0.0,0.0,0.0,0.0,0.0,0.0,0.0,0.0,0.0,0.0,0.0,0.0,0.0,0.0,0.0,0.0,0.0,0.0,0.0,0.0,0.0,0.0,0.0,0.0,0.0,0.0,0.0,0.0,0.0,0.0,0.0,0.0,0.0,0.0,0.0,0.0,0.0,0.0,0.0,0.0,0.0,0.0,0.0,0.0,0.0,0.0,0.0,0.0,0.0,0.0,0.0,0.0,0.0,0.0,0.0,0.0,0.0,0.0,0.0,0.0,0.0,0.0,0.0,0.0,0.0,0.0,0.0,0.0,0.0,0.0,0.0,0.0,0.0,0.0,0.0,0.0,0.0,0.0,0.0,0.0,0.0,0.0,0.0,0.0,0.0,0.0,0.0,0.0,0.0,0.0,0.0,0.0,0.0,0.0,0.0,0.0,0.0,0.0,0.0,0.0,0.0,0.0,0.0,0.0,0.0,0.0,0.0,0.0,0.0,0.0,0.0,0.0,0.0,0.0,0.0,0.0,0.0,0.0,0.0,0.0,0.0,0.0,0.0,0.0,0.0,0.0,0.0,0.0,0.0,0.0,0.0,0.0,0.0,0.0,0.0,0.0,0.0,0.0,0.0,0.0,0.0,0.0,0.0,0.0,0.0,0.0,0.0,0.0,0.0,0.0,0.0,0.0,0.0,0.0,0.0,0.0,0.0,0.0,0.0,0.0,0.0,0.0,0.0,0.0,0.0,0.0,0.0,0.0,0.0,0.0,0.0,0.0,0.0,0.0,0.0,0.0,0.0,0.0,0.0,0.0,0.0,0.0,0.0,0.0,0.0,0.0,0.0,0.0,0.0,0.0,0.0,0.0,0.0,0.0,0.0,0.0,0.0,0.0,0.0,0.0,0.0,0.0,0.0,0.0,0.0,0.0,0.0,0.0,0.0,0.0,0.0,0.0,0.0,0.0,0.0,0.0,0.0,0.0,0.0,0.0,0.0,0.0,0.0,0.0,0.0,0.0,0.0,0.0,0.0,0.0,0.0,0.0,0.0,0.0,0.0,0.0,0.0,0.0,0.0,0.0,0.0,0.0,0.0,0.0,0.0,0.0,0.0,0.0,0.0,0.0,0.0,0.0,0.0,0.0,0.0,0.0,0.0,0.0,0.0,0.0,0.0,0.0,0.0,0.0,0.0,0.0,0.0,0.0,0.0,0.0,0.0,0.0,0.0,0.0,0.0,0.0,0.0,0.0,0.0,0.0,0.0,0.0,0.0,0.0,0.0,0.0,0.0,0.0,0.0,0.0,0.0,0.0,0.0,0.0,0.0,0.0,0.0,0.0,0.0,0.0,0.0,0.0,0.0,0.0,0.0,0.0,0.0,0.0,0.0,0.0,0.0,0.0,0.0,0.0,0.0,0.0,0.0,0.0,0.0,0.0,0.0,0.0,0.0,0.0,0.0,0.0,0.0,0.0,0.0,0.0,0.0,0.0,0.0,0.0,0.0,0.0,0.0,0.0,0.0,0.0,0.0,0.0,0.0,0.0,0.0,0.0,0.0,0.0,0.0,0.0,0.0,0.0,0.0,0.0,0.0,0.0,0.0,0.0,0.0,0.0,0.0,0.0,0.0,0.0,0.0,0.0,0.0,0.0,0.0,0.0,0.0,0.0,0.0,0.0,0.0,0.0,0.0,0.0,0.0,0.0,0.0,0.0,0.0,0.0,0.0,0.0,0.0,0.0,0.0,0.0,0.0,0.0,0.0,0.0,0.0,0.0,0.0,0.0,0.0,0.0,0.0,0.0,0.0,0.0,0.0,0.0,0.0,0.0,0.0,0.0,0.0,0.0,0.0,0.0,0.0,0.0,0.0,0.0,0.0,0.0,0.0,0.0,0.0,0.0,0.0,0.0,0.0,0.0,0.0,0.0,0.0,0.0,0.0,0.0,0.0,0.0,0.0,0.0,0.0,0.0,0.0,0.0,0.0,0.0,0.0,0.0,0.0,0.0,0.0,0.0,0.0,0.0,0.0,0.0,0.0,0.0,0.0,0.0,0.0,0.0,0.0,0.0,0.0,0.0,0.0,0.0,0.0,0.0,0.0,0.0,0.0,0.0,0.0,0.0,0.0,0.0,0.0,0.0,0.0,0.0,0.0,0.0,0.0,0.0,0.0,0.0,0.0,0.0,0.0,0.0,0.0,0.0,0.0,0.0,0.0,0.0,0.0,0.0,0.0,0.0,0.0,0.0,0.0,0.0,0.0,0.0,0.0,0.0,0.0,0.0,0.0,0.0,0.0,0.0,0.0,0.0,0.0,0.0,0.0,0.0,0.0,0.0,0.0,0.0,0.0,0.0,0.0,0.0,0.0,0.0,0.0,0.0,0.0,0.0,0.0,0.0,0.0,0.0,0.0,0.0,0.0,0.0,0.0,0.0,0.0,0.0,0.0,0.0,0.0,0.0,0.0,0.0,0.0,0.0,0.0,0.0,0.0,0.0,0.0,0.0,0.0,0.0,0.0,0.0,0.0,0.0,0.0,0.0,0.0,0.0,0.0,0.0,0.0,0.0,0.0,0.0,0.0,0.0,0.0,0.0,0.0,0.0,0.0,0.0,0.0,0.0,0.0,0.0,0.0,0.0,0.0,0.0,0.0,0.0,0.0,0.0,0.0,0.0,0.0,0.0,0.0,0.0,0.0,0.0,0.0,0.0,0.0,0.0,0.0,0.0,0.0,0.0,0.0,0.0,0.0,0.0,0.0,0.0,0.0,0.0,0.0,0.0,0.0,0.0,0.0,0.0,0.0,0.0,0.0,0.0,0.0,0.0,0.0,0.0,0.0,0.0,0.0,0.0,0.0,0.0,0.0,0.0,0.0,0.0,0.0,0.0,0.0,0.0,0.0,0.0,0.0,0.0,0.0,0.0,0.0,0.0,0.0,0.0,0.0,0.0,0.0,0.0,0.0,0.0,0.0,0.0,0.0,0.0,0.0,0.0,0.0,0.0,0.0,0.0,0.0,0.0,0.0,0.0,0.0,0.0,0.0,0.0,0.0,0.0,0.0,0.0,0.0,0.0,0.0,0.0,0.0,0.0,0.0,0.0,0.0,0.0,0.0,0.0,0.0,0.0,0.0,0.0,0.0,0.0,0.0,0.0,0.0,0.0,0.0,0.0,0.0,0.0,0.0,0.0,0.0,0.0,0.0,0.0,0.0,0.0,0.0,0.0,0.0,0.0,0.0,0.0,0.0,0.0,0.0,0.0,0.0,0.0,0.0,0.0,0.0,0.0,0.0,0.0,0.0,0.0,0.0,0.0,0.0,0.0,0.0,0.0,0.0,0.0,0.0,0.0,0.0,0.0,0.0,0.0,0.0,0.0,0.0,0.0,0.0,0.0,0.0,0.0,0.0,0.0,0.0,0.0,0.0,0.0,0.0,0.0,0.0,0.0,0.0,0.0,0.0,0.0,0.0,0.0,0.0,0.0,0.0,0.0,0.0,0.0,0.0,0.0,0.0,0.0,0.0,0.0,0.0,0.0,0.0,0.0,0.0,0.0,0.0,0.0,0.0,0.0,0.0,0.0,0.0,0.0,0.0,0.0,0.0,0.0,0.0,0.0,0.0,0.0,0.0,0.0,0.0,0.0,0.0,0.0,0.0,0.0,0.0,0.0,0.0,0.0,0.0,0.0,0.0,0.0,0.0,0.0,0.0,0.0,0.0,0.0,0.0,0.0,0.0,0.0,0.0,0.0,0.0,0.0,0.0,0.0,0.0,0.0,0.0,0.0,0.0,0.0,0.0,0.0,0.0,0.0,0.0,0.0,0.0,0.0,0.0,0.0,0.0,0.0,0.0,0.0,0.0,0.0,0.0,0.0,0.0,0.0,0.0,0.0,0.0,0.0,0.0,0.0,0.0,0.0,0.0,0.0,0.0,0.0,0.0,0.0,0.0,0.0,0.0,0.0,0.0,0.0,0.0,0.0,0.0,0.0,0.0,0.0,0.0,0.0,0.0,0.0,0.0,0.0,0.0,-2.8153,0.0,0.0,0.0,-2.819,0.0,0.0,0.0,0.0,0.0,0.0,0.0,0.0,0.0,0.0,0.0,0.0,0.0,0.0,0.0,0.0,0.0,0.0,0.0,0.0,0.0,0.0,0.0,0.0,0.0,0.0,0.0,0.0,0.0,0.0,0.0,0.0,0.0,0.0,0.0,0.0,0.0,0.0,0.0,0.0,0.0,0.0,0.0,0.0,0.0,0.0,0.0,0.0,0.0,0.0,0.0,0.0,0.0,0.0,0.0,0.0,0.0,0.0,0.0,0.0,0.0,0.0,0.0,0.0,0.0,0.0,0.0,0.0,0.0,0.0,0.0,0.0,0.0,0.0,0.0,0.0,0.0,0.0,0.0,0.0,0.0,0.0,0.0,0.0,0.0,0.0,0.0,0.0,0.0,0.0,0.0,0.0,0.0,0.0,0.0,0.0,0.0,0.0,0.0,0.0,0.0,0.0,0.0,0.0,0.0,0.0,0.0,0.0,0.0,0.0,-2.9134,-2.9304,-2.8556,-2.85,-2.9193,0.0,0.0,0.0,0.0,0.0,0.0,0.0,0.0,0.0,0.0,0.0,0.0,0.0,0.0,0.0,0.0,0.0,0.0,0.0,0.0,0.0,0.0,0.0,0.0,0.0,0.0,0.0,0.0,0.0,0.0,0.0,0.0,0.0,0.0,0.0,0.0,0.0,0.0,0.0,0.0,0.0,0.0,0.0,0.0,0.0,0.0,0.0,0.0,0.0,0.0,0.0,0.0,0.0,0.0,0.0,0.0,0.0,0.0,0.0,0.0,0.0,0.0,0.0,0.0,0.0,0.0,0.0,0.0,0.0,0.0,0.0,0.0,0.0,0.0,0.0,0.0,0.0,0.0,0.0,0.0,0.0,0.0,0.0,0.0,0.0,0.0,0.0,0.0,0.0,0.0,0.0,0.0,0.0,0.0,0.0,0.0,0.0,0.0,0.0,0.0,0.0,0.0,0.0,0.0,0.0,0.0,0.0,0.0,0.0,0.0,0.0,0.0,-3.0291,-3.0237,-3.0784,0.0,0.0,0.0,0.0,0.0,0.0,0.0,0.0,0.0,0.0,0.0,0.0,0.0,0.0,0.0,0.0,0.0,0.0,0.0,0.0,0.0,0.0,0.0,0.0,0.0,0.0,0.0,0.0,0.0,0.0,0.0,0.0,0.0,0.0,0.0,0.0,0.0,0.0,0.0,0.0,0.0,0.0,0.0,0.0,0.0,0.0,0.0,0.0,0.0,0.0,0.0,0.0,0.0,0.0,0.0,0.0,0.0,0.0,0.0,0.0,0.0,0.0,0.0,0.0,0.0,0.0,0.0,0.0,0.0,0.0,0.0,0.0,0.0,0.0,0.0,0.0,0.0,0.0,0.0,0.0,0.0,0.0,0.0,0.0,0.0,0.0,0.0,0.0,0.0,0.0,0.0,0.0,0.0,0.0,0.0,0.0,0.0,0.0,0.0,0.0,0.0,0.0,0.0,0.0,0.0,0.0,0.0,0.0,0.0,0.0,-3.1368,-3.39,-3.3749,0.0,-3.3785,0.0,0.0,0.0,0.0,0.0,0.0,0.0,0.0,0.0,0.0,0.0,0.0,0.0,0.0,0.0,0.0,0.0,0.0,0.0,0.0,0.0,0.0,0.0,0.0,0.0,0.0,0.0,0.0,0.0,0.0,0.0,0.0,0.0,0.0,0.0,0.0,0.0,0.0,0.0,0.0,0.0,0.0,0.0,0.0,0.0,0.0,0.0,0.0,0.0,0.0,0.0,0.0,0.0,0.0,0.0,0.0,0.0,0.0,0.0,0.0,0.0,0.0,0.0,0.0,0.0,0.0,0.0,0.0,0.0,0.0,0.0,0.0,0.0,0.0,0.0,0.0,0.0,0.0,0.0,0.0,0.0,0.0,0.0,0.0,0.0,0.0,0.0,0.0,0.0,0.0,0.0,0.0,0.0,0.0,0.0,0.0,0.0,0.0,0.0,0.0,0.0,0.0,0.0,0.0,0.0,0.0,0.0,0.0,0.0,0.0,-3.1972,-3.3722,-3.3451,-3.3014,0.0,0.0,0.0,0.0,0.0,0.0,0.0,0.0,0.0,0.0,0.0,0.0,0.0,0.0,0.0,0.0,0.0,0.0,0.0,0.0,0.0,0.0,0.0,0.0,0.0,0.0,0.0,0.0,0.0,0.0,0.0,0.0,0.0,0.0,0.0,0.0,0.0,0.0,0.0,0.0,0.0,0.0,0.0,0.0,0.0,0.0,0.0,0.0,0.0,0.0,0.0,0.0,0.0,0.0,0.0,0.0,0.0,0.0,0.0,0.0,0.0,0.0,0.0,0.0,0.0,0.0,0.0,0.0,0.0,0.0,0.0,0.0,0.0,0.0,0.0,0.0,0.0,0.0,0.0,0.0,0.0,0.0,0.0,0.0,0.0,0.0,0.0,0.0,0.0,0.0,0.0,0.0,0.0,0.0,0.0,0.0,0.0,0.0,0.0,0.0,0.0,0.0,0.0,0.0,0.0,0.0,0.0,0.0,0.0,0.0,-3.2038,-3.2604,-3.3707,-3.2808,-3.2013,-3.1532,0.0,0.0,0.0,0.0,0.0,0.0,0.0,0.0,0.0,0.0,0.0,0.0,0.0,0.0,0.0,0.0,0.0,0.0,0.0,0.0,0.0,0.0,0.0,0.0,0.0,0.0,0.0,0.0,0.0,0.0,0.0,0.0,0.0,0.0,0.0,0.0,0.0,0.0,0.0,0.0,0.0,0.0,0.0,0.0,0.0,0.0,0.0,0.0,0.0,0.0,0.0,0.0,0.0,0.0,0.0,0.0,0.0,0.0,0.0,0.0,0.0,0.0,0.0,0.0,0.0,0.0,0.0,0.0,0.0,0.0,0.0,0.0,0.0,0.0,0.0,0.0,0.0,0.0,0.0,0.0,0.0,0.0,0.0,0.0,0.0,0.0,0.0,0.0,0.0,0.0,0.0,0.0,0.0,0.0,0.0,0.0,0.0,0.0,0.0,0.0,0.0,0.0,0.0,0.0,0.0,0.0,0.0,0.0,-3.5929,-3.3782,-3.3365,-3.4978,-3.2563,-3.169,0.0,0.0,0.0,0.0,0.0,0.0,0.0,0.0,0.0,0.0,0.0,0.0,0.0,0.0,0.0,0.0,0.0,0.0,0.0,0.0,0.0,0.0,0.0,0.0,0.0,0.0,0.0,0.0,0.0,0.0,0.0,0.0,0.0,0.0,0.0,0.0,0.0,0.0,0.0,0.0,0.0,0.0,0.0,0.0,0.0,0.0,0.0,0.0,0.0,0.0,0.0,0.0,0.0,0.0,0.0,0.0,0.0,0.0,0.0,0.0,0.0,0.0,0.0,0.0,0.0,0.0,0.0,0.0,0.0,0.0,0.0,0.0,0.0,0.0,0.0,0.0,0.0,0.0,0.0,0.0,0.0,0.0,0.0,0.0,0.0,0.0,0.0,0.0,0.0,0.0,0.0,0.0,0.0,0.0,0.0,0.0,0.0,0.0,0.0,0.0,0.0,0.0,0.0,0.0,0.0,0.0,0.0,0.0,0.0,-3.1968,-3.076,-3.0719,-3.1891,-3.0208,-2.996,0.0,0.0,0.0,0.0,0.0,0.0,0.0,0.0,0.0,0.0,0.0,0.0,0.0,0.0,0.0,0.0,0.0,0.0,0.0,0.0,0.0,0.0,0.0,0.0,0.0,0.0,0.0,0.0,0.0,0.0,0.0,0.0,0.0,0.0,0.0,0.0,0.0,0.0,0.0,0.0,0.0,0.0,0.0,0.0,0.0,0.0,0.0,0.0,0.0,0.0,0.0,0.0,0.0,0.0,0.0,0.0,0.0,0.0,0.0,0.0,0.0,0.0,0.0,0.0,0.0,0.0,0.0,0.0,0.0,0.0,0.0,0.0,0.0,0.0,0.0,0.0,0.0,0.0,0.0,0.0,0.0,0.0,0.0,0.0,0.0,0.0,0.0,0.0,0.0,0.0,0.0,0.0,0.0,0.0,0.0,0.0,0.0,0.0,0.0,0.0,0.0,0.0,0.0,0.0,0.0,0.0,0.0,0.0,0.0,-2.8785,0.0,-2.8202,-2.8274,-2.7788,-2.8032,0.0,0.0,0.0,0.0,0.0,0.0,0.0,0.0,0.0,0.0,0.0,0.0,0.0,0.0,0.0,0.0,0.0,0.0,0.0,0.0,0.0,0.0,0.0,0.0,0.0,0.0,0.0,0.0,0.0,0.0,0.0,0.0,0.0,0.0,0.0,0.0,0.0,0.0,0.0,0.0,0.0,0.0,0.0,0.0,0.0,0.0,0.0,0.0,0.0,0.0,0.0,0.0,0.0,0.0,0.0,0.0,0.0,0.0,0.0,0.0,0.0,0.0,0.0,0.0,0.0,0.0,0.0,0.0,0.0,0.0,0.0,0.0,0.0,0.0,0.0,0.0,0.0,0.0,0.0,0.0,0.0,0.0,0.0,0.0,0.0,0.0,0.0,0.0,0.0,0.0,0.0,0.0,0.0,0.0,0.0,0.0,0.0,0.0,0.0,0.0,0.0,0.0,0.0,0.0,0.0,0.0,0.0,0.0,-2.8298,-2.6982,-2.6862,-2.606,-2.4498,-2.5483,-2.5967,0.0,0.0,0.0,0.0,0.0,0.0,0.0,0.0,0.0,0.0,0.0,0.0,0.0,0.0,0.0,0.0,0.0,0.0,0.0,0.0,0.0,0.0,0.0,0.0,0.0,0.0,0.0,0.0,0.0,0.0,0.0,0.0,0.0,0.0,0.0,0.0,0.0,0.0,0.0,0.0,0.0,0.0,0.0,0.0,0.0,0.0,0.0,0.0,0.0,0.0,0.0,0.0,0.0,0.0,0.0,0.0,0.0,0.0,0.0,0.0,0.0,0.0,0.0,0.0,0.0,0.0,0.0,0.0,0.0,0.0,0.0,0.0,0.0,0.0,0.0,0.0,0.0,0.0,0.0,0.0,0.0,0.0,0.0,0.0,0.0,0.0,0.0,0.0,0.0,0.0,0.0,0.0,0.0,0.0,0.0,0.0,0.0,0.0,0.0,0.0,0.0,0.0,0.0,0.0,0.0,0.0,0.0,0.0,0.0,-2.322,-2.2743,-2.2705,-2.3096,-2.3578,-2.5112,0.0,0.0,0.0,0.0,0.0,0.0,0.0,0.0,0.0,0.0,0.0,0.0,0.0,0.0,0.0,0.0,0.0,0.0,0.0,0.0,0.0,0.0,0.0,0.0,0.0,0.0,0.0,0.0,0.0,0.0,0.0,0.0,0.0,0.0,0.0,0.0,0.0,0.0,0.0,0.0,0.0,0.0,0.0,0.0,0.0,0.0,0.0,0.0,0.0,0.0,0.0,0.0,0.0,0.0,0.0,0.0,0.0,0.0,0.0,0.0,0.0,0.0,0.0,0.0,0.0,0.0,0.0,0.0,0.0,0.0,0.0,0.0,0.0,0.0,0.0,0.0,0.0,0.0,0.0,0.0,0.0,0.0,0.0,0.0,0.0,0.0,0.0,0.0,0.0,0.0,0.0,0.0,0.0,0.0,0.0,0.0,0.0,0.0,0.0,0.0,0.0,0.0,0.0,0.0,0.0,0.0,0.0,0.0,0.0,-2.0629,-2.0373,-2.049,-2.0853,-2.214,-2.4312,-2.7554,0.0,0.0,0.0,0.0,0.0,0.0,0.0,0.0,0.0,0.0,0.0,0.0,0.0,0.0,0.0,0.0,0.0,0.0,0.0,0.0,0.0,0.0,0.0,0.0,0.0,0.0,0.0,0.0,0.0,0.0,0.0,0.0,0.0,0.0,0.0,0.0,0.0,0.0,0.0,0.0,0.0,0.0,0.0,0.0,0.0,0.0,0.0,0.0,0.0,0.0,0.0,0.0,0.0,0.0,0.0,0.0,0.0,0.0,0.0,0.0,0.0,0.0,0.0,0.0,0.0,0.0,0.0,0.0,0.0,0.0,0.0,0.0,0.0,0.0,0.0,0.0,0.0,0.0,0.0,0.0,0.0,0.0,0.0,0.0,0.0,0.0,0.0,0.0,0.0,0.0,0.0,0.0,0.0,0.0,0.0,0.0,0.0,0.0,0.0,0.0,0.0,0.0,0.0,0.0,0.0,0.0,0.0,0.0,-1.906,-1.971,-1.9531,-1.8475,-2.118,-2.3715,0.0,0.0,0.0,0.0,0.0,0.0,0.0,0.0,0.0,0.0,0.0,0.0,0.0,0.0,0.0,0.0,0.0,0.0,0.0,0.0,0.0,0.0,0.0,0.0,0.0,0.0,0.0,0.0,0.0,0.0,0.0,0.0,0.0,0.0,0.0,0.0,0.0,0.0,0.0,0.0,0.0,0.0,0.0,0.0,0.0,0.0,0.0,0.0,0.0,0.0,0.0,0.0,0.0,0.0,0.0,0.0,0.0,0.0,0.0,0.0,0.0,0.0,0.0,0.0,0.0,0.0,0.0,0.0,0.0,0.0,0.0,0.0,0.0,0.0,0.0,0.0,0.0,0.0,0.0,0.0,0.0,0.0,0.0,0.0,0.0,0.0,0.0,0.0,0.0,0.0,0.0,0.0,0.0,0.0,0.0,0.0,0.0,0.0,0.0,0.0,0.0,0.0,0.0,0.0,0.0,0.0,0.0,0.0,0.0,-1.8639,-2.0399,-2.0928,-2.0095,-2.2149,-2.4079,0.0,0.0,0.0,0.0,0.0,0.0,0.0,0.0,0.0,0.0,0.0,0.0,0.0,0.0,0.0,0.0,0.0,0.0,0.0,0.0,0.0,0.0,0.0,0.0,0.0,0.0,0.0,0.0,0.0,0.0,0.0,0.0,0.0,0.0,0.0,0.0,0.0,0.0,0.0,0.0,0.0,0.0,0.0,0.0,0.0,0.0,0.0,0.0,0.0,0.0,0.0,0.0,0.0,0.0,0.0,0.0,0.0,0.0,0.0,0.0,0.0,0.0,0.0,0.0,0.0,0.0,0.0,0.0,0.0,0.0,0.0,0.0,0.0,0.0,0.0,0.0,0.0,0.0,0.0,0.0,0.0,0.0,0.0,0.0,0.0,0.0,0.0,0.0,0.0,0.0,0.0,0.0,0.0,0.0,0.0,0.0,0.0,0.0,0.0,0.0,0.0,0.0,0.0,0.0,0.0,0.0,0.0,0.0,-1.9665,-1.9316,-2.1448,-2.2403,-2.2169,-2.3382,-2.5018,0.0,0.0,0.0,0.0,0.0,0.0,0.0,0.0,0.0,0.0,0.0,0.0,0.0,0.0,0.0,0.0,0.0,0.0,0.0,0.0,0.0,0.0,0.0,0.0,0.0,0.0,0.0,0.0,0.0,0.0,0.0,0.0,0.0,0.0,0.0,0.0,0.0,0.0,0.0,0.0,0.0,0.0,0.0,0.0,0.0,0.0,0.0,0.0,0.0,0.0,0.0,0.0,0.0,0.0,0.0,0.0,0.0,0.0,0.0,0.0,0.0,0.0,0.0,0.0,0.0,0.0,0.0,0.0,0.0,0.0,0.0,0.0,0.0,0.0,0.0,0.0,0.0,0.0,0.0,0.0,0.0,0.0,0.0,0.0,0.0,0.0,0.0,0.0,0.0,0.0,0.0,0.0,0.0,0.0,0.0,0.0,0.0,0.0,0.0,0.0,0.0,0.0,0.0,0.0,0.0,0.0,0.0,0.0,-1.9531,-2.0893,-2.2734,-2.3998,-2.4474,-2.4801,-2.5997,0.0,0.0,0.0,0.0,0.0,0.0,0.0,0.0,0.0,0.0,0.0,0.0,0.0,0.0,0.0,0.0,0.0,0.0,0.0,0.0,0.0,0.0,0.0,0.0,0.0,0.0,0.0,0.0,0.0,0.0,0.0,0.0,0.0,0.0,0.0,0.0,0.0,0.0,0.0,0.0,0.0,0.0,0.0,0.0,0.0,0.0,0.0,0.0,0.0,0.0,0.0,0.0,0.0,0.0,0.0,0.0,0.0,0.0,0.0,0.0,0.0,0.0,0.0,0.0,0.0,0.0,0.0,0.0,0.0,0.0,0.0,0.0,0.0,0.0,0.0,0.0,0.0,0.0,0.0,0.0,0.0,0.0,0.0,0.0,0.0,0.0,0.0,0.0,0.0,0.0,0.0,0.0,0.0,0.0,0.0,0.0,0.0,0.0,0.0,0.0,0.0,0.0,0.0,0.0,0.0,0.0,0.0,0.0,-2.1439,-2.2895,-2.4388,-2.5598,-2.6584,-2.5879,-2.5873,0.0,0.0,0.0,0.0,0.0,0.0,0.0,0.0,0.0,0.0,0.0,0.0,0.0,0.0,0.0,0.0,0.0,0.0,0.0,0.0,0.0,0.0,0.0,0.0,0.0,0.0,0.0,0.0,0.0,0.0,0.0,0.0,0.0,0.0,0.0,0.0,0.0,0.0,0.0,0.0,0.0,0.0,0.0,0.0,0.0,0.0,0.0,0.0,-2.2833,0.0,0.0,0.0,0.0,0.0,0.0,0.0,0.0,0.0,0.0,0.0,0.0,0.0,0.0,0.0,0.0,0.0,0.0,0.0,0.0,0.0,0.0,0.0,0.0,0.0,0.0,0.0,0.0,0.0,0.0,0.0,0.0,0.0,0.0,0.0,0.0,0.0,0.0,0.0,0.0,0.0,0.0,0.0,0.0,0.0,0.0,0.0,0.0,0.0,0.0,0.0,0.0,0.0,0.0,0.0,0.0,0.0,0.0,0.0,-2.2263,-2.35,-2.4929,-2.6174,-2.724,-2.6697,-2.6709,0.0,0.0,0.0,0.0,0.0,0.0,0.0,0.0,0.0,0.0,0.0,0.0,0.0,0.0,0.0,0.0,0.0,0.0,0.0,0.0,0.0,0.0,0.0,0.0,0.0,0.0,0.0,0.0,0.0,0.0,0.0,0.0,0.0,0.0,0.0,0.0,0.0,0.0,0.0,0.0,0.0,0.0,0.0,0.0,0.0,0.0,0.0,0.0,0.0,0.0,0.0,0.0,0.0,0.0,0.0,0.0,0.0,0.0,0.0,0.0,0.0,0.0,0.0,0.0,0.0,0.0,0.0,0.0,0.0,0.0,0.0,0.0,0.0,0.0,0.0,0.0,0.0,0.0,0.0,0.0,0.0,0.0,0.0,0.0,0.0,0.0,0.0,0.0,0.0,0.0,0.0,0.0,0.0,0.0,0.0,0.0,0.0,0.0,0.0,0.0,0.0,0.0,0.0,0.0,0.0,0.0,0.0,-2.3364,-2.3224,-2.413,-2.5624,-2.681,-2.7675,-2.7708,-2.8033,-2.8752,0.0,0.0,0.0,0.0,0.0,0.0,0.0,0.0,0.0,0.0,0.0,0.0,0.0,0.0,0.0,0.0,0.0,0.0,0.0,0.0,0.0,0.0,0.0,0.0,0.0,0.0,0.0,0.0,0.0,0.0,0.0,0.0,0.0,0.0,0.0,0.0,0.0,0.0,-2.4709,-2.072,0.0,0.0,0.0,0.0,0.0,0.0,0.0,0.0,-2.45,0.0,0.0,0.0,0.0,0.0,0.0,0.0,0.0,0.0,0.0,0.0,0.0,0.0,0.0,0.0,0.0,0.0,0.0,0.0,0.0,0.0,0.0,0.0,0.0,0.0,0.0,0.0,0.0,0.0,0.0,0.0,0.0,0.0,0.0,0.0,0.0,0.0,0.0,0.0,0.0,0.0,0.0,0.0,0.0,0.0,0.0,0.0,0.0,0.0,0.0,0.0,0.0,0.0,0.0,0.0,0.0,-2.7298,-2.6496,-2.6401,-2.7015,-2.8398,-2.9241,-2.9349,-2.9402,-2.9247,-2.9029,0.0,0.0,0.0,0.0,0.0,0.0,0.0,0.0,0.0,0.0,0.0,0.0,0.0,0.0,0.0,0.0,0.0,0.0,0.0,0.0,0.0,0.0,0.0,0.0,0.0,0.0,0.0,0.0,0.0,0.0,0.0,0.0,0.0,0.0,0.0,0.0,0.0,0.0,0.0,-2.1743,-2.0028,0.0,0.0,0.0,0.0,0.0,0.0,0.0,0.0,-2.6588,0.0,0.0,0.0,0.0,0.0,0.0,0.0,0.0,0.0,0.0,0.0,0.0,0.0,0.0,0.0,0.0,0.0,0.0,0.0,0.0,0.0,0.0,0.0,0.0,0.0,0.0,0.0,0.0,0.0,0.0,0.0,0.0,0.0,0.0,0.0,0.0,0.0,0.0,0.0,0.0,0.0,0.0,0.0,0.0,0.0,0.0,0.0,0.0,0.0,0.0,0.0,0.0,0.0,0.0,0.0,-2.8441,-2.7585,-2.7466,-2.8336,-2.9036,-2.9532,-2.9807,-2.9228,-2.8948,0.0,0.0,0.0,0.0,0.0,0.0,0.0,0.0,0.0,0.0,0.0,0.0,0.0,0.0,0.0,0.0,0.0,0.0,0.0,0.0,0.0,0.0,0.0,0.0,0.0,0.0,0.0,0.0,0.0,0.0,0.0,0.0,0.0,0.0,0.0,0.0,0.0,0.0,0.0,0.0,-2.2531,-2.1514,-2.0104,0.0,0.0,0.0,0.0,0.0,0.0,-2.6639,-2.7605,0.0,0.0,0.0,0.0,0.0,0.0,0.0,0.0,0.0,0.0,0.0,0.0,0.0,0.0,0.0,0.0,0.0,0.0,0.0,0.0,0.0,0.0,0.0,0.0,0.0,0.0,0.0,0.0,0.0,0.0,0.0,0.0,0.0,0.0,0.0,0.0,0.0,0.0,0.0,0.0,0.0,0.0,0.0,0.0,0.0,0.0,0.0,0.0,0.0,0.0,0.0,0.0,0.0,0.0,0.0,-2.8896,-2.8139,-2.8082,-2.8836,-2.9016,-2.9358,-2.9919,-2.8848,-2.8601,0.0,0.0,0.0,0.0,0.0,0.0,0.0,0.0,0.0,0.0,0.0,0.0,0.0,0.0,0.0,0.0,0.0,0.0,0.0,0.0,0.0,0.0,0.0,0.0,0.0,0.0,0.0,0.0,0.0,0.0,0.0,0.0,0.0,0.0,0.0,0.0,0.0,0.0,0.0,0.0,0.0,-2.3829,-2.2428,-2.3345,0.0,0.0,0.0,0.0,-2.845,-2.8534,0.0,0.0,0.0,0.0,0.0,0.0,0.0,0.0,0.0,0.0,0.0,0.0,0.0,0.0,0.0,0.0,0.0,0.0,0.0,0.0,0.0,0.0,0.0,0.0,0.0,0.0,0.0,0.0,0.0,0.0,0.0,0.0,0.0,0.0,0.0,0.0,0.0,0.0,0.0,0.0,0.0,0.0,0.0,0.0,0.0,0.0,0.0,0.0,0.0,0.0,0.0,0.0,0.0,0.0,0.0,0.0,-2.8338,-2.8961,-2.899,-2.8484,-2.9151,-2.9796,-3.0389,-2.9752,-2.9451,0.0,0.0,0.0,0.0,0.0,0.0,0.0,0.0,0.0,0.0,0.0,0.0,0.0,0.0,0.0,0.0,0.0,0.0,0.0,0.0,0.0,0.0,0.0,0.0,0.0,0.0,0.0,0.0,0.0,0.0,0.0,0.0,0.0,0.0,0.0,0.0,0.0,0.0,0.0,0.0,0.0,-2.8643,-2.6213,-2.7213,-2.7974,0.0,0.0,-2.9427,-2.9654,-3.1314,0.0,0.0,0.0,0.0,0.0,0.0,0.0,0.0,0.0,0.0,0.0,0.0,0.0,0.0,0.0,0.0,0.0,0.0,0.0,0.0,0.0,0.0,0.0,0.0,0.0,0.0,0.0,0.0,0.0,0.0,0.0,0.0,0.0,0.0,0.0,0.0,0.0,0.0,0.0,0.0,0.0,0.0,0.0,0.0,0.0,0.0,0.0,0.0,0.0,0.0,0.0,0.0,0.0,0.0,0.0,-2.8632,-2.9428,-2.9167,-2.9015,-2.9042,-2.9744,-3.0223,-3.0492,-2.9909,-2.9594,0.0,0.0,0.0,0.0,0.0,0.0,0.0,0.0,0.0,0.0,0.0,0.0,0.0,0.0,0.0,0.0,0.0,0.0,0.0,0.0,0.0,0.0,0.0,0.0,0.0,0.0,0.0,0.0,0.0,0.0,0.0,0.0,0.0,0.0,0.0,0.0,0.0,0.0,0.0,0.0,0.0,0.0,-2.8503,-2.9188,0.0,0.0,0.0,-3.1023,-3.2044,0.0,0.0,0.0,0.0,0.0,0.0,0.0,0.0,0.0,0.0,0.0,0.0,0.0,0.0,0.0,0.0,0.0,0.0,0.0,0.0,0.0,0.0,0.0,0.0,0.0,0.0,0.0,0.0,0.0,0.0,0.0,0.0,0.0,0.0,0.0,0.0,0.0,0.0,0.0,0.0,0.0,0.0,0.0,0.0,0.0,0.0,0.0,0.0,0.0,0.0,0.0,0.0,0.0,0.0,0.0,0.0,0.0,-3.0066,-2.8771,-2.8502,-2.931,-2.9976,-3.0437,-3.0739,-3.013,0.0,0.0,0.0,0.0,0.0,0.0,0.0,0.0,0.0,0.0,0.0,0.0,0.0,0.0,0.0,0.0,0.0,0.0,0.0,0.0,0.0,0.0,0.0,0.0,0.0,0.0,0.0,-3.1147,0.0,0.0,0.0,0.0,0.0,0.0,0.0,0.0,0.0,0.0,0.0,0.0,0.0,0.0,-3.0726,-3.0238,-3.0893,-3.1991,0.0,0.0,-3.2616,-3.3721,-3.4004,-3.3938,0.0,0.0,0.0,0.0,0.0,0.0,0.0,0.0,0.0,0.0,0.0,0.0,0.0,0.0,0.0,0.0,0.0,0.0,0.0,0.0,0.0,0.0,0.0,0.0,0.0,0.0,0.0,0.0,0.0,0.0,0.0,0.0,0.0,0.0,0.0,0.0,0.0,0.0,0.0,0.0,0.0,0.0,0.0,0.0,0.0,0.0,0.0,0.0,0.0,0.0,0.0,0.0,0.0,0.0,-2.8062,-2.9345,-2.767,-2.7395,-2.8607,-2.9291,-3.0247,-3.1449,-3.0795,-3.1023,0.0,0.0,0.0,0.0,0.0,0.0,0.0,0.0,0.0,0.0,0.0,0.0,0.0,0.0,0.0,0.0,0.0,0.0,0.0,0.0,0.0,0.0,0.0,0.0,0.0,0.0,0.0,0.0,0.0,0.0,0.0,0.0,0.0,0.0,0.0,0.0,0.0,0.0,0.0,0.0,0.0,-3.2252,-3.1442,-3.3107,-3.446,0.0,-3.455,-3.4374,-3.396,-3.6061,-3.6279,-3.1902,0.0,0.0,0.0,0.0,0.0,0.0,0.0,0.0,0.0,0.0,0.0,0.0,0.0,0.0,0.0,0.0,0.0,0.0,0.0,0.0,0.0,0.0,0.0,0.0,0.0,0.0,0.0,0.0,0.0,0.0,0.0,0.0,0.0,0.0,0.0,0.0,0.0,0.0,0.0,0.0,0.0,0.0,0.0,0.0,0.0,0.0,0.0,0.0,0.0,0.0,0.0,0.0,0.0,-2.8862,-2.9361,-2.8342,-2.8273,-2.92,-3.0289,-3.1279,-3.219,-3.1916,-3.163,0.0,0.0,0.0,0.0,0.0,0.0,0.0,0.0,0.0,0.0,0.0,0.0,0.0,0.0,0.0,0.0,0.0,0.0,0.0,0.0,0.0,0.0,0.0,0.0,0.0,0.0,0.0,0.0,-3.326,-3.3152,-3.3592,0.0,0.0,0.0,0.0,0.0,0.0,0.0,0.0,0.0,0.0,-3.3384,-3.3035,-3.396,0.0,0.0,-3.4876,-3.4387,-3.4851,-3.4875,-3.4297,-3.2549,-3.2788,0.0,0.0,0.0,0.0,0.0,0.0,0.0,0.0,0.0,0.0,0.0,0.0,0.0,0.0,0.0,0.0,0.0,0.0,0.0,0.0,0.0,0.0,0.0,0.0,0.0,0.0,0.0,0.0,0.0,0.0,0.0,0.0,0.0,0.0,0.0,0.0,0.0,0.0,0.0,0.0,0.0,0.0,0.0,0.0,0.0,0.0,0.0,0.0,0.0,0.0,0.0,0.0,-2.9697,-2.9726,-2.9166,-2.9285,-3.0173,-3.153,-3.252,-3.3177,-3.3193,-3.2702,0.0,0.0,0.0,0.0,0.0,0.0,0.0,0.0,0.0,0.0,0.0,0.0,0.0,0.0,0.0,0.0,0.0,0.0,0.0,0.0,0.0,0.0,0.0,0.0,0.0,0.0,0.0,0.0,-3.3863,-3.3786,-3.39,0.0,0.0,0.0,0.0,0.0,0.0,0.0,0.0,0.0,0.0,-3.4324,-3.4195,-3.4614,-3.5162,-3.5938,-3.4781,-3.4155,-3.5185,-3.4574,-3.3742,-3.3088,0.0,0.0,0.0,0.0,0.0,0.0,0.0,0.0,0.0,0.0,0.0,0.0,0.0,0.0,0.0,0.0,0.0,0.0,0.0,0.0,0.0,0.0,0.0,0.0,0.0,0.0,0.0,-2.9559,0.0,0.0,-2.9557,0.0,0.0,0.0,0.0,0.0,0.0,0.0,0.0,0.0,0.0,0.0,0.0,0.0,0.0,0.0,0.0,0.0,0.0,0.0,0.0,0.0,0.0,-3.0408,-3.0368,-2.9836,-3.018,-3.1529,-3.287,-3.3853,-3.451,-3.4471,-3.4428,-3.4344,0.0,0.0,0.0,0.0,0.0,0.0,0.0,0.0,0.0,0.0,0.0,0.0,0.0,0.0,0.0,0.0,0.0,0.0,0.0,0.0,0.0,0.0,0.0,0.0,0.0,0.0,-3.5464,-3.4895,-3.3917,0.0,0.0,0.0,0.0,0.0,0.0,0.0,0.0,0.0,-3.2982,-3.4407,-3.5251,-3.4762,-3.5094,-3.5516,-3.5385,-3.4485,-3.4046,-3.4974,-3.5967,-3.5809,0.0,0.0,0.0,0.0,0.0,0.0,0.0,0.0,0.0,0.0,0.0,0.0,0.0,0.0,0.0,0.0,0.0,0.0,0.0,0.0,0.0,0.0,0.0,0.0,0.0,0.0,0.0,-3.2168,-3.1628,0.0,0.0,0.0,0.0,0.0,0.0,0.0,0.0,0.0,0.0,0.0,-2.9339,-3.083,0.0,0.0,0.0,0.0,0.0,0.0,0.0,0.0,0.0,0.0,0.0,0.0,-3.1303,-3.1769,-3.1178,-3.1534,-3.2902,-3.3794,-3.4572,-3.5253,-3.5234,-3.5171,-3.4964,0.0,0.0,0.0,0.0,0.0,0.0,0.0,0.0,0.0,0.0,0.0,0.0,0.0,0.0,0.0,0.0,0.0,0.0,0.0,0.0,0.0,0.0,0.0,0.0,0.0,-3.4058,0.0,0.0,0.0,0.0,0.0,0.0,0.0,0.0,0.0,0.0,0.0,-3.3492,-3.2765,-3.4747,-3.5732,-3.4218,-3.5383,-3.6428,0.0,0.0,0.0,0.0,0.0,0.0,0.0,0.0,0.0,0.0,0.0,0.0,0.0,0.0,-3.5474,-3.3275,-3.2497,-3.2332,-3.2766,0.0,0.0,0.0,0.0,0.0,0.0,0.0,0.0,0.0,0.0,0.0,0.0,0.0,0.0,-3.3418,0.0,-3.3789,0.0,0.0,0.0,0.0,0.0,0.0,0.0,0.0,-3.1486,-3.1925,-3.1424,-3.2869,-3.3648,0.0,-3.4238,-3.3534,0.0,0.0,0.0,0.0,0.0,0.0,0.0,0.0,-3.221,-3.2451,-3.2531,-3.299,-3.3914,-3.4587,-3.5152,-3.556,-3.5528,-3.5437,-3.525,-3.4121,-3.3947,0.0,0.0,0.0,0.0,0.0,0.0,0.0,0.0,0.0,0.0,0.0,0.0,0.0,0.0,0.0,0.0,0.0,0.0,0.0,0.0,0.0,0.0,0.0,-3.3251,0.0,0.0,0.0,0.0,0.0,0.0,0.0,0.0,0.0,-3.305,-3.4322,-3.5001,-3.4625,-3.6173,-3.6716,-3.5032,0.0,0.0,0.0,0.0,0.0,0.0,0.0,-3.4867,-3.483,-3.4528,-3.4566,-3.5404,-3.5518,-3.5474,-3.5499,0.0,0.0,-3.3888,-3.3215,-3.311,-3.3769,-3.3529,-3.3516,-3.448,-3.4385,-3.4098,0.0,0.0,0.0,0.0,0.0,0.0,0.0,0.0,-3.3381,-3.4121,0.0,-3.492,0.0,0.0,0.0,0.0,0.0,-3.3591,0.0,0.0,-3.3347,-3.4061,-3.4783,-3.5372,-3.5702,-3.5851,-3.7122,-3.7529,-3.692,-3.417,0.0,0.0,0.0,0.0,0.0,0.0,-3.3108,-3.2628,-3.3818,-3.4553,-3.4622,-3.5283,-3.5633,-3.5677,-3.5476,-3.5404,-3.5392,-3.6221,-3.641,-3.5702,-3.6317,0.0,0.0,0.0,0.0,0.0,0.0,0.0,0.0,0.0,0.0,0.0,0.0,0.0,0.0,0.0,0.0,0.0,0.0,0.0,0.0,-3.3698,0.0,0.0,0.0,0.0,0.0,0.0,0.0,0.0,0.0,0.0,-3.4259,-3.5579,-3.6941,-3.8038,0.0,0.0,0.0,0.0,-3.5293,-3.5856,-3.548,-3.5685,-3.7079,-3.7306,-3.7067,-3.6537,0.0,0.0,-3.7292,-3.6368,-3.5509,-3.5528,-3.5533,-3.5893,-3.7015,-3.6118,-3.5594,-3.6163,-3.528,-3.4771,-3.531,-3.537,-3.5385,-3.4667,0.0,0.0,0.0,0.0,-3.4812,-3.5398,-3.614,-3.6322,-3.6908,-3.7597,-3.7103,0.0,0.0,0.0,0.0,0.0,0.0,-3.526,-3.5595,-3.6279,-3.6699,-3.6885,-3.7076,-3.7447,-3.8014,-3.8389,-3.8529,-3.8353,-3.653,-3.5278,-3.4723,0.0,0.0,0.0,0.0,-3.3828,-3.4594,-3.4558,-3.4762,-3.5299,-3.588,-3.6352,-3.6746,-3.671,-3.6551,-3.6328,-3.6586,-3.6779,-3.6924,-3.6017,0.0,0.0,0.0,0.0,0.0,0.0,0.0,0.0,0.0,0.0,0.0,0.0,0.0,0.0,0.0,0.0,0.0,0.0,0.0,-3.2244,-3.199,-3.196,0.0,0.0,0.0,0.0,0.0,0.0,0.0,0.0,0.0,-3.5899,-3.6334,-3.638,0.0,0.0,-3.6482,-3.5045,-3.5502,-3.6156,-3.628,-3.6517,0.0,-3.6709,-3.6746,-3.6537,-3.5893,-3.6163,-3.667,-3.7279,-3.6727,-3.6094,-3.5604,-3.5509,-3.5639,-3.5923,-3.5774,-3.5579,-3.5714,-3.5459,-3.528,-3.5459,-3.5489,-3.5355,-3.5368,-3.544,-3.5198,-3.5111,-3.515,-3.5706,-3.6283,-3.6827,-3.7408,-3.8101,-3.8819,-3.8685,-3.8051,-3.6986,-3.6608,0.0,0.0,0.0,-3.6619,-3.6803,-3.7491,-3.7968,-3.823,-3.8246,-3.8488,-3.8883,-3.8668,-3.8539,-3.8531,-3.7043,-3.6231,-3.6011,0.0,0.0,-3.4692,-3.4134,-3.4269,-3.5131,-3.5213,-3.5479,-3.5924,-3.6422,-3.6887,-3.7173,-3.736,-3.7399,-3.7174,-3.741,-3.7476,-3.7496,-3.6541,-3.5789,0.0,0.0,0.0,0.0,0.0,0.0,0.0,0.0,0.0,0.0,0.0,-3.5244,-3.4422,0.0,0.0,0.0,-3.3512,-3.2887,-3.2171,-3.2164,0.0,0.0,0.0,0.0,0.0,0.0,0.0,-3.4107,-3.4588,-3.5389,-3.6625,-3.6394,-3.6053,-3.5937,-3.6259,-3.6112,-3.5116,0.0,-3.6193,-3.6447,-3.6806,-3.7,-3.6881,-3.6641,-3.6267,-3.5609,-3.5818,-3.6214,-3.6556,-3.6289,-3.5968,-3.5594,-3.5295,-3.5085,-3.5085,-3.4891,-3.4801,-3.504,-3.51,-3.5026,-3.4771,-3.4711,-3.464,-3.6058,-3.5444,-3.4831,-3.4599,-3.4723,-3.5982,-3.6276,-3.5921,-3.7278,-3.8294,-3.9026,-3.9714,-3.9615,-3.8836,-3.815,0.0,-3.8058,-3.7969,-3.7586,-3.7103,-3.7686,-3.8317,-3.8863,-3.8879,-3.8902,-3.8886,-3.8227,-3.7922,-3.7838,-3.6451,-3.6079,-3.6751,-3.4684,-3.3618,-3.3609,-3.4201,-3.4549,-3.4592,-3.5749,-3.6457,-3.6528,-3.7002,-3.7248,-3.734,-3.772,-3.798,-3.7962,-3.836,-3.8248,-3.7533,-3.7294,-3.6156,-3.399,0.0,0.0,0.0,0.0,0.0,0.0,0.0,0.0,0.0,0.0,0.0,0.0,0.0,0.0,-3.1912,-3.2212,0.0,-3.3412,-3.353,0.0,0.0,0.0,-3.3457,-3.2961,-3.3999,-3.4628,-3.4508,0.0,0.0,-3.6661,-3.6069,-3.5989,-3.7105,-3.6761,-3.6402,-3.6417,-3.5893,-3.5714,-3.6282,-3.6402,-3.6611,-3.6956,-3.6671,-3.6163,-3.5609,-3.5459,-3.5444,-3.5539,-3.5355,-3.5355,-3.5265,-3.4816,-3.4397,-3.4397,-3.3995,-3.3696,-3.4222,-3.4433,-3.4328,-3.4,-3.3819,-3.3879,-3.5639,-3.5489,-3.5325,-3.5245,-3.537,-3.6229,-3.6857,-3.7356,-3.8228,-3.906,-3.9783,-3.9462,-3.8854,-3.8142,-3.7973,-3.8173,-3.8758,-3.8756,-3.8891,-3.9345,-3.9463,-3.9362,-3.8975,-3.8959,-3.8688,-3.8176,-3.799,-3.7922,-3.7872,-3.6958,-3.6586,-3.6768,-3.6062,-3.5497,-3.5081,-3.4692,-3.4687,-3.5029,-3.5918,-3.6784,-3.7528,-3.7662,-3.7911,-3.8336,-3.8433,-3.8496,-3.8496,-3.8041,-3.7698,-3.747,-3.5697,-3.4394,-3.3825,-3.3421,0.0,0.0,0.0,0.0,0.0,0.0,0.0,0.0,0.0,-3.4077,-3.2107,0.0,-3.3329,0.0,-3.2967,-3.3436,-3.4263,-3.4341,0.0,0.0,-3.5393,-3.5499,-3.6447,-3.6318,-3.6306,-3.6877,-3.7109,-3.7074,-3.6723,-3.6445,-3.6224,-3.6024,-3.5833,-3.5759,-3.5729,-3.5624,-3.5549,-3.5714,-3.5759,-3.5789,-3.5953,-3.5848,-3.5669,-3.5534,-3.507,-3.4895,-3.5435,-3.4613,-3.3978,-3.3978,-3.3858,-3.3739,-3.3756,-3.3955,-3.3867,-3.3211,-3.3759,-3.4611,-3.4961,-3.4588,-3.4054,-3.5489,-3.5504,-3.5831,-3.6146,-3.6505,-3.6569,-3.7065,-3.7826,-3.857,-3.9368,-4.0054,-3.9648,-3.9259,-3.8886,-3.8905,-3.9106,-3.9491,-3.9479,-3.9513,-3.9627,-3.9627,-3.9238,-3.8514,-3.8514,-3.8125,-3.7415,-3.7415,-3.7229,-3.6874,-3.6468,-3.6401,-3.6618,-3.6473,-3.6374,-3.6298,-3.5883,-3.5734,-3.5734,-3.6626,-3.7452,-3.823,-3.8255,-3.8382,-3.8658,-3.834,-3.8157,-3.8157,-3.7367,-3.6964,-3.6909,-3.5293,-3.4174,-3.3807,-3.3036,-3.2247,0.0,0.0,0.0,0.0,0.0,0.0,0.0,0.0,0.0,0.0,0.0,-3.3528,-3.411,-3.428,-3.483,-3.5926,-3.6046,-3.6341,-3.7142,-3.6869,-3.6911,-3.77,-3.7397,-3.7338,-3.7748,-3.7534,-3.7281,-3.7156,-3.6877,-3.6651,-3.6492,-3.6554,-3.6258,-3.5619,-3.5489,-3.5489,-3.5489,-3.5489,-3.5604,-3.5958,-3.5748,-3.5675,-3.5861,-3.4941,-3.4177,-3.4546,-3.4,-3.3305,-3.2721,-3.2823,-3.298,-3.2977,-3.3013,-3.2892,-3.2748,-3.3006,-3.355,-3.3682,-3.3364,-3.2985,-3.5489,-3.5569,-3.6165,-3.6845,-3.7508,-3.689,-3.7231,-3.8286,-3.9051,-3.9604,-4.0087,-4.0087,-4.0037,-3.9952,-4.0037,-4.0087,-4.007,-4.0003,-3.9611,-3.8993,-3.8904,-3.8469,-3.7753,-3.777,-3.7364,-3.6654,-3.6637,-3.6344,-3.5694,-3.5694,-3.5968,-3.6498,-3.658,-3.6786,-3.7173,-3.734,-3.7135,-3.6603,-3.7435,-3.8125,-3.8689,-3.8707,-3.8707,-3.867,-3.7918,-3.7496,-3.7477,-3.6615,-3.6138,-3.6101,-3.5312,-3.4541,-3.3825,-3.3128,-3.2449,0.0,-3.1474,0.0,0.0,0.0,0.0,0.0,0.0,0.0,0.0,-3.3231,-3.3406,-3.5453,-3.5616,-3.6145,-3.7581,-3.7656,-3.7687,-3.781,-3.7801,-3.7833,-3.7794,-3.7801,-3.7817,-3.7794,-3.723,-3.7086,-3.7472,-3.7102,-3.6974,-3.7227,-3.7249,-3.6766,-3.5795,-3.5604,-3.5698,-3.5522,-3.5477,-3.5721,-3.6136,-3.5929,-3.5806,-3.6163,-3.486,-3.3575,-3.3571,-3.3419,-3.2957,-3.183,-3.205,-3.2391,-3.2225,-3.1868,-3.1758,-3.2128,-3.2377,-3.238,-3.2044,-3.1917,-3.1722,-3.5489,-3.5504,-3.5668,-3.6129,-3.678,-3.6684,-3.8149,-4.0619,-4.1328,-4.1083,-4.0104,-4.0087,-3.9749,-3.9259,-3.9817,-4.0087,-4.0054,-3.9463,-3.9108,-3.899,-3.8379,-3.7723,-3.7055,-3.6975,-3.6586,-3.5876,-3.5842,-3.5946,-3.6266,-3.6266,-3.6539,-3.7038,-3.7433,-3.747,-3.7248,0.0,0.0,0.0,-3.7612,-3.7931,-3.867,-3.8707,-3.8707,-3.8689,-3.7918,0.0,-3.747,-3.6046,-3.5229,-3.521,-3.4486,0.0,0.0,0.0,0.0,0.0,0.0,0.0,0.0,0.0,0.0,0.0,-3.5472,-3.4691,-3.4245,-3.4131,-3.4506,-3.5476,-3.5618,-3.599,-3.6891,-3.6954,-3.72,-3.777,-3.7826,-3.7785,-3.7887,-3.7826,-3.7801,-3.7886,-3.7752,-3.7436,-3.7023,-3.6754,-3.6543,-3.6268,-3.6015,-3.592,-3.5654,-3.6054,-3.6222,-3.5707,-3.5561,-3.5654,-3.5792,-3.5681,-3.5562,-3.5554,-3.4546,-3.3587,-3.3467,-3.2988,-3.2462,-3.1599,-3.1985,-3.226,-3.1709,-3.1916,-3.1978,-3.1621,-3.1941,-3.2437,-3.2923,-3.2705,-3.2437,-3.5489,0.0,-3.5894,-3.6442,0.0,-3.7992,-3.9414,-4.1167,-4.0785,-4.0217,-3.9563,-3.9546,-3.9343,-3.9056,-4.0138,-4.0426,-4.0087,-4.007,-3.9491,-3.8482,-3.8094,-3.7308,-3.6197,-3.6214,-3.5808,-3.5098,-3.5684,-3.595,-3.5861,-3.605,-3.6615,-3.7524,-3.7377,-3.7533,-3.7929,-3.8433,-3.8596,-3.8281,-3.8156,-3.8297,-3.867,-3.8707,-3.8707,-3.867,-3.7514,0.0,0.0,0.0,0.0,0.0,0.0,0.0,0.0,0.0,0.0,-3.4367,-3.4564,-3.4532,-3.4167,-3.4841,-3.546,-3.5879,-3.5675,-3.5327,-3.4783,-3.4933,-3.5368,-3.6129,-3.6175,-3.6496,-3.7249,-3.7282,-3.7451,-3.7826,-3.7852,-3.7853,-3.7911,-3.7884,-3.7869,-3.7843,-3.7584,-3.7306,-3.7285,-3.6936,-3.6804,-3.6734,-3.6713,-3.6549,-3.6385,-3.6217,-3.5967,-3.568,-3.5927,-3.6011,-3.5671,-3.5283,-3.508,-3.4889,-3.3614,-3.2899,-3.3324,-3.2627,-3.1999,-3.2234,-3.2152,-3.1765,-3.1445,-3.1586,-3.1683,-3.1366,-3.153,-3.185,-3.2239,-3.2127,-3.1907,-3.5489,-3.5554,-3.629,-3.7016,-3.7818,-3.9284,-4.0304,-4.0912,0.0,0.0,0.0,-3.8988,-3.8853,-3.87,-4.002,-4.0307,-3.9767,-4.0189,-3.9421,-3.7729,-3.7541,-3.6808,-3.5639,-3.5711,-3.5331,-3.4695,-3.579,-3.5971,-3.5378,-3.5664,-3.6488,-3.7636,-3.7018,-3.7267,-3.8401,-3.8487,-3.856,-3.8707,-3.8707,-3.8707,-3.8707,-3.856,-3.8487,-3.8487,-3.6927,-3.6083,-3.6046,-3.4614,-3.3807,-3.3807,-3.3807,-3.41,-3.4734,-3.477,-3.477,-3.4789,-3.4917,-3.4724,-3.4082,-3.4798,-3.5238,-3.521,-3.5405,-3.547,-3.5423,-3.5488,-3.5807,-3.6452,-3.6576,-3.6823,-3.7432,-3.7499,-3.7499,-3.7499,-3.7635,-3.7669,-3.7533,-3.7652,-3.7537,-3.7313,-3.6688,-3.6518,-3.6844,-3.6422,-3.6383,-3.6924,-3.67,-3.6975,-3.6494,-3.5927,-3.557,-3.5428,-3.5693,-3.596,-3.5332,-3.4721,-3.4405,-3.4253,-3.2797,-3.2085,-3.2809,-3.2384,-3.2047,-3.259,-3.2081,-3.1574,-3.1274,-3.1252,-3.119,-3.119,-3.119,-3.119,-3.119,-3.119,-3.1241,-3.5489,-3.5569,-3.6275,-3.7077,-3.7842,-3.8707,-3.9531,-4.0255,-4.0676,-4.0155,-3.9005,-3.8988,-3.8278,-3.7144,-3.799,-3.8304,-3.8154,-3.7683,-3.7235,-3.6936,-3.6248,-3.5819,-3.5622,-3.6071,-3.587,-3.5203,-3.5696,-3.5811,-3.55,-3.5529,-3.6254,-3.732,-3.6747,-3.6795,-3.7588,-3.7661,-3.801,-3.8689,-3.8707,-3.8707,-3.8689,-3.804,-3.7672,-3.7617,-3.6083,-3.5174,-3.5165,-3.4302,-3.3807,-3.3807,-3.3807,-3.3862,-3.3972,-3.4009,-3.3954,-3.4009,-3.4633,-3.4935,-3.4844,-3.5642,-3.6119,-3.6091,-3.5732,-3.559,-3.577,-3.5461,-3.5318,-3.5415,-3.5676,-3.5808,-3.5926,-3.5943,-3.5943,-3.5994,-3.6535,-3.6671,-3.6079,-3.6485,-3.6417,-3.5301,-3.4895,-3.4607,-3.4353,-3.4117,-3.4117,-3.41,-3.4523,-3.415,-3.437,-3.4931,-3.5266,-3.4829,-3.4723,-3.4509,-3.395,-3.364,-3.3532,-3.355,-3.2732,-3.227,-3.3051,-3.258,-3.1968,-3.1618,-3.183,-3.182,-3.1326,-3.119,-3.119,-3.119,-3.119,-3.119,-3.119,-3.119,-3.1173,-3.5733,-3.6117,-3.6446,-3.705,-3.7867,-3.857,-3.9096,-3.9514,-3.9834,-3.9648,-3.8988,-3.8582,-3.8024,-3.7516,-3.8582,-3.8622,-3.792,-3.7953,-3.755,-3.6789,-3.6407,-3.6017,-3.5633,-3.5727,-3.5353,-3.4701,-3.5331,-3.5408,-3.497,-3.5121,-3.5798,-3.6762,-3.6468,-3.6486,-3.6853,-3.7276,-3.7649,-3.8047,-3.8475,-3.8487,-3.8058,-3.7691,-3.7305,-3.6853,-3.5642,-3.499,-3.4972,-3.4229,-3.3807,-3.3807,-3.3807,-3.399,-3.4431,-3.4468,-3.4468,-3.4468,-3.477,-3.4816,-3.4376,-3.4724,-3.5147,-3.5532,-3.4958,-3.4824,-3.5399,-3.5137,-3.4944,-3.4923,-3.5062,-3.5031,-3.4812,-3.4753,-3.4686,-3.4421,-3.4759,-3.4962,-3.4996,-3.4912,-3.481,-3.4489,-3.4134,-3.3778,-3.3457,-3.3389,-3.3389,-3.3389,-3.3389,-3.3372,-3.3339,-3.3253,-3.3446,-3.3803,-3.3914,-3.3575,-3.2949,-3.2797,-3.2645,-3.229,-3.1918,-3.1856,-3.2156,-3.1873,-3.1619,-3.1292,-3.1512,-3.1529,-3.1207,-3.119,-3.119,-3.119,-3.119,-3.119,-3.119,-3.1201,-3.1206,-3.6054,-3.6615,-3.6792,-3.7319,-3.8091,-3.8694,-3.8935,-3.8992,-3.8854,-3.8783,-3.8681,-3.8142,-3.7821,-3.7787,-3.8836,-3.8616,-3.7554,-3.7997,-3.7638,-3.6599,-3.6542,-3.6242,-3.5776,-3.5497,-3.5014,-3.4544,-3.5088,-3.4987,-3.4377,-3.4585,-3.5073,-3.5697,-3.5917,-3.5991,-3.6028,-3.6615,-3.7044,-3.7247,-3.7839,-3.7955,-3.7537,-3.7323,-3.6846,-3.6028,-3.5183,-3.4715,-3.4697,-3.4137,-3.3807,-3.3807,-3.3807,-3.41,-3.466,-3.4715,-3.4743,-3.4743,-3.4734,-3.4468,-3.388,-3.3807,-3.4082,-3.4669,-3.4174,-3.4082,-3.4632,-3.4591,-3.4531,-3.457,-3.4677,-3.4602,-3.437,-3.4268,-3.4076,-3.3727,-3.3607,-3.3888,-3.4253,-3.3812,-3.3508,-3.388,-3.3508,-3.3102,-3.2949,-3.2916,-3.2848,-3.2814,-3.2916,-3.2916,-3.2756,-3.1834,-3.18,-3.2504,-3.3034,-3.2848,-3.2205,-3.2036,-3.1816,-3.1241,-3.1224,-3.1275,-3.1331,-3.1241,-3.119,-3.1207,-3.119,-3.1241,-3.1207,-3.119,-3.119,-3.119,-3.119,-3.1173,-3.1184,-3.1164,-3.1066,-3.6523,-3.6734,-3.7351,-3.8179,-3.8824,-3.8924,-3.8975,-3.8858,-3.8265,-3.797,-3.801,-3.7919,-3.7516,-3.6958,-3.7094,-3.6721,-3.5926,-3.5881,-3.591,-3.5785,-3.5707,-3.5922,-3.6264,-3.598,-3.5687,-3.5349,-3.5157,-3.4649,-3.3927,-3.3927,-3.399,-3.4119,-3.4761,-3.5147,-3.5137,-3.521,-3.565,-3.6399,-3.6472,-3.6842,-3.7426,-3.6793,-3.5993,-3.5137,-3.4357,-3.3917,-3.3954,-3.3844,-3.3807,-3.3807,-3.3788,-3.3807,-3.3899,-3.3917,-3.3917,-3.3935,-3.3935,-3.3862,-3.3807,-3.3807,-3.3844,-3.3899,-3.388,-3.3844,-3.3954,-3.3927,-3.404,-3.4294,-3.4549,-3.4624,-3.4622,-3.4556,-3.4428,-3.4263,-3.4051,-3.4093,-3.4031,-3.3714,-3.3186,-3.2527,-3.2598,-3.2195,-3.1783,-3.1681,-3.1574,-3.1771,-3.1827,-3.181,-3.1754,-3.1613,-3.1404,-3.1642,-3.1975,-3.2093,-3.1568,-3.1309,-3.1309,-3.1207,-3.119,-3.119,-3.119,-3.119,-3.119,-3.119,-3.119,-3.119,-3.119,-3.119,-3.119,-3.1157,-3.114,-3.1128,-3.1164,-3.1008,-3.0663,-3.5627,-3.6131,-3.6836,-3.7602,-3.8297,-3.8345,-3.8085,-3.7686,-3.7391,-3.7254,-3.7257,-3.7271,-3.706,-3.6789,-3.6789,-3.6349,-3.5656,-3.5639,-3.5788,-3.6035,-3.6058,-3.6342,-3.6816,-3.6505,-3.6088,-3.5512,-3.5184,-3.4614,-3.3935,-3.3807,-3.3807,-3.3825,-3.4156,-3.4302,-3.4321,-3.478,-3.5174,-3.553,-3.6046,-3.624,-3.5991,-3.5697,-3.5128,-3.4357,-3.3972,-3.3807,-3.3807,-3.3807,-3.3587,-3.3146,-3.3109,-3.3091,-3.3091,-3.2632,-3.2816,-3.3678,-3.3807,-3.3807,-3.3807,-3.3807,-3.3807,-3.3807,-3.3807,-3.3807,-3.3807,-3.3807,-3.3854,-3.396,-3.4111,-3.4073,-3.3906,-3.3819,-3.372,-3.3457,-3.3231,-3.3336,-3.3773,-3.3277,-3.2871,-3.2976,-3.268,-3.2315,-3.202,-3.195,-3.195,-3.1933,-3.1827,-3.1774,-3.1933,-3.2107,-3.2195,-3.2055,-3.2246,-3.2041,-3.1402,-3.119,-3.119,-3.119,-3.119,-3.119,-3.119,-3.119,-3.119,-3.119,-3.119,-3.119,-3.119,-3.119,-3.119,-3.1106,-3.0683,-3.0362,-2.96,-2.9425,-2.8999,-3.5292,-3.5986,-3.6518,-3.7084,-3.7601,-3.7601,-3.7312,-3.6853,-3.6787,-3.6678,-3.648,-3.6463,-3.6451,-3.6485,-3.6671,-3.6349,-3.569,-3.5639,-3.5882,-3.6347,-3.6433,-3.6755,-3.729,-3.6644,-3.6158,-3.5683,-3.5005,-3.4376,-3.3844,-3.3807,-3.3807,-3.3807,-3.3807,-3.3807,-3.3862,-3.4412,-3.466,-3.4724,-3.5331,-3.5322,-3.4879,-3.4768,-3.4465,-3.3889,-3.3807,-3.3807,-3.3788,-3.3587,-3.322,-3.2632,-3.2412,-3.2265,-3.2247,-3.1916,-3.2357,-3.3605,-3.3807,-3.3807,-3.3807,-3.3807,-3.3807,-3.3807,-3.3807,-3.3807,-3.3807,-3.3807,-3.3807,-3.3825,-3.3807,-3.3689,-3.3437,-3.3364,-3.3196,-3.2903,-3.2793,-3.296,-3.339,-3.2885,-3.2698,-3.3156,-3.277,-3.2517,-3.2484,-3.2451,-3.2451,-3.2433,-3.2398,-3.2343,-3.2517,-3.273,-3.2869,-3.257,-3.2502,-3.2265,-3.1657,-3.1449,-3.1372,-3.1312,-3.1312,-3.119,-3.119,-3.119,-3.119,-3.119,-3.119,-3.119,-3.119,-3.119,-3.1038,-3.0801,-3.0328,-2.9567,-2.8685,-2.8164,-2.7588,-3.6071,-3.6567,-3.6745,-3.6776,-3.6823,-3.6823,-3.6831,-3.6712,-3.6747,-3.6349,-3.5757,-3.5707,-3.5673,-3.5723,-3.6332,-3.6332,-3.569,-3.5622,-3.5864,-3.6355,-3.6366,-3.6902,-3.7697,-3.6309,-3.5792,-3.593,-3.4706,-3.3954,-3.3825,-3.3807,-3.3807,-3.3807,-3.3807,-3.3807,-3.3825,-3.3899,-3.388,-3.3972,-3.4027,-3.4076,-3.4216,-3.4242,-3.4117,-3.3813,-3.3807,-3.3834,-3.3733,-3.3073,-3.2632,-3.2596,-3.1843,-3.1458,-3.1513,-3.2137,-3.2908,-3.3642,-3.3788,-3.3807,-3.3807,-3.3807,-3.3807,-3.3807,-3.3807,-3.3807,-3.3807,-3.3807,-3.3807,-3.3807,-3.3807,-3.378,-3.3753,-3.3698,-3.3716,-3.3643,-3.3369,-3.3239,-3.325,-3.293,-3.255,-3.2639,-3.2669,-3.2648,-3.2583,-3.2517,-3.2583,-3.2651,-3.2778,-3.2897,-3.2702,-3.2879,-3.2897,-3.2737,-3.2583,-3.2484,-3.2417,-3.2039,-3.1842,-3.1733,-3.1545,-3.1235,-3.1173,-3.119,-3.119,-3.119,-3.119,-3.119,-3.119,-3.1055,-3.084,-3.0451,-2.9739,-2.8907,-2.8186,-2.7352,-2.6877,-3.4691,-3.5325,-3.5836,-3.6045,-3.6028,-3.6045,-3.605,-3.6055,-3.6033,-3.5893,-3.5673,-3.5622,-3.5351,-3.4928,-3.5182,-3.5419,-3.5588,-3.5442,-3.5607,-3.6023,-3.591,-3.62,-3.6736,-3.6231,-3.5762,-3.5394,-3.4871,-3.4302,-3.3844,-3.3807,-3.3807,-3.3807,-3.3807,-3.3807,-3.3807,-3.3807,-3.3807,-3.3807,-3.3807,-3.3842,-3.3935,-3.3949,-3.3728,-3.3352,-3.3802,-3.3986,-3.3788,-3.3036,-3.2375,-3.1861,-3.1072,-3.0632,-3.076,-3.1898,-3.2724,-3.3036,-3.3513,-3.3807,-3.3807,-3.3807,-3.3807,-3.3807,-3.3807,-3.3807,-3.3807,-3.3807,-3.3807,-3.3807,-3.3807,-3.3807,-3.3807,-3.3807,-3.3807,-3.3788,-3.367,-3.3588,-3.357,-3.3419,-3.3314,-3.3314,-3.3314,-3.3314,-3.3284,-3.3332,-3.3332,-3.3332,-3.3433,-3.3404,-3.3368,-3.3452,-3.3441,-3.335,-3.3343,-3.3343,-3.3314,-3.2695,-3.2248,-3.2144,-3.1915,-3.1522,-3.1356,-3.13,-3.1312,-3.138,-3.1342,-3.1291,-3.1329,-3.1196,-3.0913,-3.0448,-2.9692,-2.8749,-2.7907,-2.7276,-2.6889,-3.3707,-3.4175,-3.4692,-3.5047,-3.5233,-3.5013,-3.5036,-3.5194,-3.4986,-3.4895,-3.4928,-3.5248,-3.5028,-3.4465,-3.4453,-3.4916,-3.5613,-3.5368,-3.5561,-3.6113,-3.5974,-3.6038,-3.6193,-3.6028,-3.5587,-3.5009,-3.4697,-3.4302,-3.388,-3.3807,-3.3807,-3.3807,-3.3807,-3.3807,-3.3807,-3.3807,-3.3807,-3.3807,-3.3807,-3.3842,-3.3928,-3.4037,-3.377,-3.3299,-3.3665,-3.3827,-3.3541,-3.2702,-3.199,-3.1347,-3.0393,-3.0044,-3.065,-3.188,-3.2742,-3.2999,-3.3495,-3.3807,-3.3807,-3.3807,-3.3807,-3.3807,-3.3807,-3.3807,-3.3807,-3.3807,-3.3807,-3.3807,-3.3807,-3.3807,-3.3807,-3.3807,-3.3807,-3.3807,-3.3807,-3.3807,-3.3807,-3.3807,-3.378,-3.378,-3.3753,-3.378,-3.3807,-3.3807,-3.378,-3.3807,-3.3807,-3.3807,-3.3807,-3.3807,-3.3807,-3.3807,-3.3753,-3.3734,-3.368,-3.3225,-3.284,-3.2695,-3.2332,-3.1882,-3.1582,-3.1554,-3.1507,-3.1555,-3.1555,-3.1504,-3.1428,-3.1291,-3.0991,-3.0612,-2.9747,-2.8816,-2.8045,-2.733,-2.7109,-3.3381,-3.3423,-3.3406,-3.3914,-3.437,-3.3905,-3.3912,-3.4398,-3.388,-3.376,-3.3977,-3.4582,-3.4688,-3.422,-3.4242,-3.4885,-3.5542,-3.5309,-3.565,-3.6434,-3.6407,-3.6251,-3.6009,-3.533,-3.5,-3.4825,-3.4211,-3.3862,-3.3825,-3.3807,-3.3807,-3.3807,-3.3807,-3.3807,-3.3807,-3.3807,-3.3807,-3.3807,-3.3807,-3.3928,-3.4195,-3.4442,-3.4177,-3.3484,-3.3505,-3.3383,-3.3022,-3.2022,-3.1507,-3.128,-2.9995,-2.9824,-3.1164,-3.2082,-3.2908,-3.355,-3.3788,-3.3807,-3.3807,-3.3807,-3.3807,-3.3807,-3.3807,-3.3807,-3.3807,-3.3807,-3.3807,-3.3807,-3.3807,-3.3807,-3.3807,-3.3807,-3.3807,-3.3807,-3.3807,-3.3807,-3.3807,-3.3807,-3.3807,-3.3807,-3.3807,-3.3807,-3.3807,-3.3807,-3.3807,-3.3807,-3.3807,-3.3807,-3.3807,-3.3807,-3.3807,-3.3807,-3.3807,-3.3807,-3.3807,-3.378,-3.3522,-3.3225,-3.2791,-3.2345,-3.2124,-3.1987,-3.1812,-3.1828,-3.1725,-3.169,-3.1773,-3.1629,-3.1407,-3.0924,-2.9936,-2.9025,-2.823,-2.7619,-2.747,-3.3102,-3.2713,-3.3203,-3.3525,-3.3753,-3.3847,-3.4028,-3.4228,-3.4241,-3.4279,-3.4374,-3.4656,-3.4426,-3.3881,-3.3812,-3.4235,-3.4835,-3.4756,-3.5134,-3.5666,-3.5101,-3.4751,-3.4605,-3.4321,-3.4192,-3.4156,-3.3935,-3.3807,-3.3807,-3.3807,-3.3807,-3.3807,-3.3807,-3.3807,-3.3807,-3.3807,-3.3807,-3.3807,-3.3807,-3.3842,-3.3935,-3.4195,-3.4052,-3.354,-3.3977,-3.3808,-3.2694,-3.2019,-3.1612,-3.1415,-3.059,-3.052,-3.1274,-3.1623,-3.2394,-3.3605,-3.3807,-3.3807,-3.3807,-3.3807,-3.3807,-3.3807,-3.3807,-3.3807,-3.3807,-3.3807,-3.3807,-3.3807,-3.3807,-3.3807,-3.3807,-3.3807,-3.3834,-3.3807,-3.3807,-3.3842,-3.3868,-3.3834,-3.3807,-3.3807,-3.3807,-3.3807,-3.3807,-3.3807,-3.3807,-3.3807,-3.3807,-3.3807,-3.3807,-3.3807,-3.3807,-3.3807,-3.3807,-3.3807,-3.3807,-3.3807,-3.368,-3.3522,-3.3196,-3.2961,-3.2731,-3.2474,-3.2287,-3.1991,-3.1898,-3.1868,-3.1948,-3.1758,-3.1443,-3.1258,-3.0486,-2.9531,-2.8495,-2.8039,-2.7798,-3.2009,-3.2173,-3.2466,-3.2788,-3.3029,-3.3373,-3.3471,-3.352,-3.3755,-3.3888,-3.3894,-3.4074,-3.3906,-3.3547,-3.3605,-3.4047,-3.4563,-3.4353,-3.4606,-3.5145,-3.466,-3.4109,-3.3862,-3.3807,-3.3807,-3.3807,-3.3807,-3.3807,-3.3807,-3.3807,-3.3807,-3.3807,-3.3807,-3.3807,-3.3807,-3.3807,-3.3807,-3.3807,-3.3807,-3.3807,-3.3868,-3.4068,-3.3923,-3.352,-3.3637,-3.3317,-3.2485,-3.1919,-3.1609,-3.1487,-3.1117,-3.0974,-3.1023,-3.1513,-3.2302,-3.3117,-3.3623,-3.3807,-3.3807,-3.3807,-3.3807,-3.3807,-3.3807,-3.3807,-3.3807,-3.3807,-3.3807,-3.3807,-3.3807,-3.3807,-3.3834,-3.3902,-3.3935,-3.3935,-3.3975,-3.3987,-3.4054,-3.4025,-3.4037,-3.4062,-3.3972,-3.3876,-3.3928,-3.3842,-3.3834,-3.3807,-3.3807,-3.3807,-3.3807,-3.3807,-3.3834,-3.3834,-3.3807,-3.3807,-3.3807,-3.3807,-3.3807,-3.3726,-3.3569,-3.3513,-3.3358,-3.3148,-3.2937,-3.2229,-3.1924,-3.1941,-3.1951,-3.1391,-3.1009,-3.0907,-3.0879,-3.0073,-2.908,-2.8309,-2.8076,-3.04,-3.1602,-3.1358,-3.1643,-3.2191,-3.236,-3.2386,-3.2319,-3.2466,-3.2529,-3.2592,-3.3049,-3.3123,-3.3176,-3.3504,-3.4092,-3.4604,-3.4174,-3.4211,-3.4706,-3.4705,-3.4383,-3.3862,-3.3807,-3.3807,-3.3807,-3.3807,-3.3807,-3.3807,-3.3807,-3.3807,-3.3807,-3.3807,-3.3807,-3.3807,-3.3807,-3.3807,-3.3807,-3.3807,-3.3807,-3.3834,-3.4068,-3.39,-3.3388,-3.2845,-3.2485,-3.2205,-3.1637,-3.1427,-3.1656,-3.1302,-3.0788,-3.0662,-3.1696,-3.2412,-3.272,-3.3393,-3.3776,-3.3842,-3.3928,-3.3947,-3.3954,-3.3902,-3.3815,-3.3868,-3.3842,-3.3807,-3.3807,-3.3807,-3.3807,-3.3842,-3.4018,-3.4171,-3.4232,-3.4192,-3.429,-3.4547,-3.4352,-3.4269,-3.442,-3.4184,-3.3935,-3.4195,-3.4037,-3.3954,-3.3947,-3.3947,-3.3998,-3.3998,-3.4005,-3.3895,-3.3868,-3.3921,-3.3842,-3.3842,-3.3807,-3.3807,-3.378,-3.3726,-3.3724,-3.3556,-3.3267,-3.2866,-3.2228,-3.1737,-3.1815,-3.1784,-3.1267,-3.0993,-3.1016,-3.0766,-3.034,-2.9764,-2.9034,-2.8428,-2.9903,-3.0491,-3.0442,-3.0521,-3.0752,-3.107,-3.1262,-3.1263,-3.1593,-3.1737,-3.184,-3.2454,-3.2419,-3.2044,-3.3221,-3.3615,-3.3423,-3.3615,-3.3862,-3.4072,-3.4109,-3.4036,-3.3844,-3.3807,-3.3807,-3.3807,-3.3807,-3.3807,-3.3807,-3.3807,-3.3807,-3.3807,-3.3807,-3.3807,-3.3807,-3.3807,-3.3807,-3.3807,-3.3807,-3.3788,-3.3805,-3.4031,-3.3832,-3.3175,-3.3031,-3.2449,-3.1557,-3.1161,-3.1137,-3.1326,-3.0449,-3.0142,-3.0472,-3.1273,-3.1985,-3.2636,-3.3475,-3.4091,-3.4144,-3.4315,-3.4442,-3.442,-3.4195,-3.4099,-3.4074,-3.3928,-3.3834,-3.3807,-3.3807,-3.3834,-3.3868,-3.4068,-3.4383,-3.4736,-3.4521,-3.4314,-3.4352,-3.4255,-3.4265,-3.4292,-3.442,-3.4464,-3.4508,-3.4486,-3.4416,-3.4416,-3.4416,-3.4416,-3.4348,-3.4353,-3.4284,-3.4141,-3.4117,-3.3961,-3.3876,-3.3834,-3.3807,-3.3807,-3.378,-3.3798,-3.3351,-3.2792,-3.2235,-3.1571,-3.1097,-3.1,-3.1334,-3.1263,-3.1214,-3.0808,-3.0516,-3.0028,-3.0275,-2.9899,-2.9034,-2.9576,-3.0404,-3.0196,-3.0142,-3.0225,-3.0803,-3.0893,-3.0718,-3.1154,-3.1397,-3.1495,-3.1868,-3.1825,-3.1531,-3.2357,-3.2745,-3.2629,-3.272,-3.2957,-3.3301,-3.3293,-3.3476,-3.3715,-3.3807,-3.3807,-3.3807,-3.3807,-3.3807,-3.3807,-3.3807,-3.3807,-3.3807,-3.3807,-3.3807,-3.3807,-3.3807,-3.3807,-3.3807,-3.3788,-3.3713,-3.3499,-3.3487,-3.3295,-3.2758,-3.2581,-3.1767,-3.0874,-3.0715,-3.0696,-3.0582,-3.0226,-3.0113,-3.0224,-3.0847,-3.1561,-3.2416,-3.3334,-3.3963,-3.4376,-3.4604,-3.4694,-3.4674,-3.4489,-3.4423,-3.4379,-3.4279,-3.4184,-3.4208,-3.4184,-3.4184,-3.4232,-3.4423,-3.4794,-3.5122,-3.4851,-3.4636,-3.4736,-3.4696,-3.4656,-3.4716,-3.4715,-3.4754,-3.4851,-3.4793,-3.4733,-3.4674,-3.4632,-3.4653,-3.4653,-3.4694,-3.4655,-3.4489,-3.4401,-3.433,-3.426,-3.4208,-3.4062,-3.4037,-3.3947,-3.3921,-3.3353,-3.258,-3.1539,-3.0921,-3.0467,-3.0301,-3.068,-3.0754,-3.0198,-2.9881,-2.9782,-2.9829,-2.9931,-3.0143,-2.9379,-2.9259,-3.0588,-3.0261,-3.0097,-3.0152,-3.0833,-3.0638,-3.0294,-3.0711,-3.1052,-3.1113,-3.1254,-3.1207,-3.1195,-3.152,-3.1806,-3.2227,-3.1873,-3.2082,-3.2428,-3.26,-3.2845,-3.3425,-3.3792,-3.3674,-3.36,-3.3721,-3.391,-3.3986,-3.3935,-3.3921,-3.3979,-3.3972,-3.3921,-3.4023,-3.3972,-3.3858,-3.3736,-3.3696,-3.3383,-3.2985,-3.2752,-3.2537,-3.2127,-3.1316,-3.0864,-3.048,-3.0363,-3.0232,-2.9817,-3.0466,-3.0335,-2.9957,-3.0544,-3.1257,-3.2162,-3.3098,-3.4072,-3.447,-3.4674,-3.4832,-3.4832,-3.4793,-3.4734,-3.4714,-3.4634,-3.4591,-3.4591,-3.4674,-3.4653,-3.4714,-3.4944,-3.5157,-3.5354,-3.5242,-3.5273,-3.5383,-3.5273,-3.5187,-3.5398,-3.5018,-3.4982,-3.5,-3.4963,-3.4793,-3.4999,-3.4963,-3.4981,-3.4981,-3.4981,-3.4907,-3.4755,-3.4734,-3.4714,-3.4674,-3.4632,-3.4464,-3.4311,-3.4165,-3.4012,-3.3574,-3.2644,-3.1155,-3.0257,-2.994,-2.9867,-3.0056,-2.9789,-2.9425,-2.9381,-2.9622,-2.9366,-2.9144,-2.947,-2.9156,-2.8793,-2.9393,-2.951,-2.9444,-2.9324,-2.965,-2.9647,-2.9333,-2.9499,-2.9805,-2.996,-3.0493,-3.0423,-2.9941,-3.0995,-3.1399,-3.106,-3.1364,-3.1918,-3.2107,-3.2024,-3.2139,-3.2686,-3.3455,-3.3486,-3.3175,-3.3964,-3.437,-3.4333,-3.4364,-3.4505,-3.4483,-3.4439,-3.4505,-3.4483,-3.4323,-3.4113,-3.3627,-3.3474,-3.3044,-3.2425,-3.2187,-3.1879,-3.1293,-3.0466,-3.0111,-3.009,-3.0089,-3.0136,-3.0226,-3.0219,-3.0186,-3.0209,-3.1083,-3.16,-3.1902,-3.3449,-3.4454,-3.4299,-3.4836,-3.5324,-3.5254,-3.5105,-3.5016,-3.4999,-3.4832,-3.4734,-3.4694,-3.4694,-3.4832,-3.4999,-3.507,-3.5258,-3.5417,-3.5446,-3.5417,-3.5465,-3.5273,-3.519,-3.5207,-3.5289,-3.5354,-3.5383,-3.5335,-3.527,-3.5304,-3.5304,-3.5304,-3.5289,-3.5239,-3.5155,-3.5016,-3.4999,-3.4981,-3.4908,-3.487,-3.4715,-3.444,-3.4233,-3.3994,-3.3533,-3.2539,-3.1015,-3.0065,-2.947,-2.9518,-2.9774,-2.977,-2.9569,-2.9532,-2.9495,-2.9359,-2.9258,-2.9293,-2.9328,-2.845,-2.9021,-2.9289,-2.9326,-2.9231,-2.942,-2.9446,-2.9355,-2.9326,-2.94,-2.9587,-3.002,-2.9926,-2.9608,-3.0394,-3.0613,-3.0714,-3.1073,-3.1435,-3.1506,-3.1429,-3.1429,-3.1732,-3.2712,-3.3105,-3.2927,-3.4045,-3.4561,-3.4619,-3.46,-3.4653,-3.4694,-3.4675,-3.4653,-3.4581,-3.4298,-3.3838,-3.34,-3.2954,-3.2429,-3.1827,-3.1582,-3.1221,-3.0625,-3.0171,-3.008,-3.0196,-3.0177,-3.0267,-3.0323,-3.0267,-3.0196,-3.0221,-3.0939,-3.139,-3.2199,-3.2989,-3.44,-3.4601,-3.5109,-3.5474,-3.5507,-3.535,-3.532,-3.5273,-3.5157,-3.5088,-3.5051,-3.5105,-3.5138,-3.5254,-3.5289,-3.5383,-3.5446,-3.5507,-3.5507,-3.546,-3.5369,-3.5289,-3.5304,-3.5417,-3.5446,-3.5488,-3.5507,-3.5474,-3.5398,-3.5398,-3.5398,-3.5412,-3.5383,-3.5383,-3.5304,-3.5289,-3.5258,-3.5122,-3.5034,-3.4944,-3.4586,-3.4185,-3.3841,-3.3406,-3.2171,-3.0807,-3.0081,-2.9488,-2.9512,-2.9701,-2.9678,-2.9731,-2.9661,-2.9606,-2.9551,-2.9532,-2.9551,-2.957,-2.8084,-2.8778,-2.9148,-2.9288,-2.9309,-2.9589,-2.972,-2.9678,-2.9533,-2.9487,-2.9685,-2.9668,-2.9597,-2.9748,-2.9786,-3.0184,-3.0508,-3.0433,-3.0411,-3.0883,-3.0801,-3.082,-3.1134,-3.1917,-3.264,-3.3223,-3.4112,-3.4472,-3.4245,-3.4491,-3.4414,-3.4415,-3.4377,-3.4225,-3.415,-3.3753,-3.3222,-3.2919,-3.2408,-3.1794,-3.1245,-3.0975,-3.0627,-3.0314,-3.0266,-3.0323,-3.0355,-3.0367,-3.0398,-3.0398,-3.0398,-3.0398,-3.0417,-3.066,-3.1102,-3.2609,-3.3038,-3.3884,-3.4787,-3.5301,-3.5507,-3.5507,-3.5474,-3.5474,-3.546,-3.5446,-3.5432,-3.5446,-3.5432,-3.5432,-3.5493,-3.546,-3.546,-3.5507,-3.5507,-3.5507,-3.5507,-3.5507,-3.546,-3.546,-3.546,-3.5474,-3.5507,-3.5507,-3.5507,-3.5507,-3.5507,-3.5507,-3.5507,-3.5474,-3.5441,-3.5446,-3.5417,-3.5398,-3.5304,-3.5178,-3.5078,-3.463,-3.4147,-3.3673,-3.3257,-3.2481,-3.137,-3.0227,-2.9718,-2.9751,-2.9799,-2.9896,-2.9896,-2.9799,-2.9815,-2.988,-2.9867,-2.9822,-2.9825,-2.7235,-2.7584,-2.8514,-2.8769,-2.8708,-2.9532,-2.9756,-2.9587,-2.8925,-2.9133,-2.9742,-2.9265,-2.9345,-2.9745,-2.9916,-3.0048,-2.9874,-2.9441,-2.9513,-3.0218,-3.0238,-3.0208,-3.0565,-3.1301,-3.1826,-3.2371,-3.3327,-3.3604,-3.324,-3.3585,-3.3838,-3.3384,-3.3293,-3.3312,-3.3298,-3.2996,-3.2613,-3.224,-3.1833,-3.1301,-3.0778,-3.0567,-3.0502,-3.0299,-3.0367,-3.0379,-3.0398,-3.0398,-3.0398,-3.0398,-3.0398,-3.0398,-3.0494,-3.0987,-3.1499,-3.2095,-3.3115,-3.3968,-3.4518,-3.5147,-3.5416,-3.5507,-3.5507,-3.5507,-3.5507,-3.5507,-3.5507,-3.5507,-3.5507,-3.5507,-3.5507,-3.5507,-3.5507,-3.5507,-3.5507,-3.5507,-3.5507,-3.5507,-3.5507,-3.5507,-3.5507,-3.5507,-3.5507,-3.5507,-3.5507,-3.5507,-3.5507,-3.5507,-3.5507,-3.5468,-3.5435,-3.5455,-3.5474,-3.5474,-3.546,-3.5311,-3.5134,-3.4621,-3.4102,-3.3508,-3.3159,-3.2894,-3.2029,-3.0582,-2.9953,-2.9958,-3.0032,-3.0128,-3.0142,-3.0114,-3.0194,-3.0259,-3.0157,-3.0068,-2.9972,-2.6637,-2.7269,-2.7881,-2.8052,-2.8065,-2.8605,-2.8861,-2.8713,-2.8341,-2.8422,-2.8779,-2.8814,-2.9015,-2.9385,-2.936,-2.918,-2.8807,-2.8469,-2.8753,-2.9505,-2.9615,-2.9564,-2.9813,-3.0621,-3.0641,-3.0956,-3.1948,-3.2872,-3.259,-3.3147,-3.3237,-3.3064,-3.2891,-3.2891,-3.2776,-3.2494,-3.2122,-3.1648,-3.1263,-3.0859,-3.0448,-3.0398,-3.0398,-3.0398,-3.0398,-3.0398,-3.0398,-3.0398,-3.0398,-3.0398,-3.0398,-3.0398,-3.0544,-3.0794,-3.1268,-3.18,-3.2846,-3.3782,-3.4216,-3.4979,-3.5468,-3.5507,-3.5507,-3.5507,-3.5507,-3.5507,-3.5507,-3.5507,-3.5507,-3.5507,-3.5507,-3.5507,-3.5507,-3.5507,-3.5507,-3.5507,-3.5507,-3.5507,-3.5507,-3.5507,-3.5507,-3.5507,-3.5507,-3.5507,-3.5507,-3.5507,-3.5507,-3.5507,-3.5507,-3.5488,-3.5449,-3.5218,-3.5199,-3.5257,-3.5199,-3.5045,-3.4814,-3.4353,-3.3872,-3.3276,-3.2718,-3.234,-3.161,-3.0489,-3.0221,-3.015,-3.0209,-3.0286,-3.0355,-3.0398,-3.0362,-3.0324,-3.035,-3.0297,-3.019,-2.6054,-2.6843,-2.717,-2.7324,-2.7379,-2.7736,-2.7926,-2.7873,-2.7715,-2.7766,-2.7933,-2.8133,-2.8439,-2.867,-2.8459,-2.8121,-2.7832,-2.7783,-2.808,-2.8706,-2.886,-2.8852,-2.9063,-2.941,-2.9679,-2.9698,-3.041,-3.1602,-3.2083,-3.2526,-3.2545,-3.2256,-3.2352,-3.2429,-3.2199,-3.1718,-3.1545,-3.1275,-3.0871,-3.0487,-3.0448,-3.0436,-3.0417,-3.0417,-3.0448,-3.0448,-3.0467,-3.0448,-3.0467,-3.0467,-3.0448,-3.0467,-3.0417,-3.0417,-3.0756,-3.146,-3.2237,-3.3147,-3.4172,-3.4787,-3.5282,-3.5526,-3.5545,-3.5545,-3.5545,-3.5565,-3.5545,-3.5545,-3.5545,-3.5565,-3.5565,-3.5526,-3.5526,-3.5507,-3.5507,-3.5507,-3.5507,-3.5507,-3.5507,-3.5507,-3.5507,-3.5507,-3.5507,-3.5507,-3.5507,-3.5507,-3.5507,-3.5507,-3.5507,-3.5507,-3.5372,-3.4968,-3.4834,-3.4911,-3.4834,-3.4603,-3.4276,-3.3795,-3.3295,-3.2756,-3.216,-3.1602,-3.0931,-3.0452,-3.0349,-3.0311,-3.0379,-3.0398,-3.0398,-3.0398,-3.0398,-3.0386,-3.0381,-3.0381,-3.0324,-2.5263,-2.5597,-2.6387,-2.6717,-2.6814,-2.7477,-2.7852,-2.7706,-2.7044,-2.7218,-2.7624,-2.718,-2.7294,-2.7659,-2.7255,-2.7313,-2.7409,-2.714,-2.7208,-2.7922,-2.8016,-2.8025,-2.8063,-2.8102,-2.8659,-2.8794,-2.9256,-2.9871,-3.0794,-3.1525,-3.1487,-3.1102,-3.1064,-3.0902,-3.116,-3.1017,-3.0737,-3.0729,-3.0633,-3.0568,-3.0552,-3.0552,-3.056,-3.0548,-3.0548,-3.056,-3.0563,-3.0543,-3.0571,-3.0579,-3.0587,-3.0595,-3.0583,-3.0564,-3.0583,-3.0929,-3.1571,-3.2648,-3.3955,-3.4449,-3.4796,-3.5175,-3.5412,-3.5617,-3.5425,-3.5464,-3.5502,-3.568,-3.5669,-3.5655,-3.5655,-3.5617,-3.5603,-3.5584,-3.5565,-3.5526,-3.5526,-3.5545,-3.5545,-3.5545,-3.5565,-3.5526,-3.5526,-3.5507,-3.5507,-3.5507,-3.5507,-3.5507,-3.5411,-3.5334,-3.5488,-3.5141,-3.4737,-3.4757,-3.4834,-3.4545,-3.391,-3.3372,-3.2756,-3.2256,-3.166,-3.116,-3.1025,-3.0655,-3.0513,-3.0398,-3.0398,-3.0398,-3.0398,-3.0398,-3.0398,-3.0398,-3.0398,-3.0398,-3.0398,-2.5214,-2.5341,-2.5717,-2.587,-2.59,-2.6294,-2.6428,-2.6351,-2.6063,-2.6073,-2.6333,-2.6073,-2.6082,-2.6428,-2.6447,-2.6524,-2.639,-2.6082,-2.6352,-2.7026,-2.718,-2.7198,-2.736,-2.7668,-2.8091,-2.7922,-2.8341,-2.9048,-2.979,-3.0467,-3.0756,-3.0602,-3.0498,-3.0616,-3.0615,-3.0613,-3.0621,-3.0621,-3.061,-3.0605,-3.0607,-3.0586,-3.0593,-3.0602,-3.0593,-3.0593,-3.0613,-3.0613,-3.0613,-3.0613,-3.0613,-3.0613,-3.0621,-3.0604,-3.0616,-3.0698,-3.0968,-3.1758,-3.2797,-3.3438,-3.3964,-3.4178,-3.4333,-3.4207,-3.4352,-3.4788,-3.5049,-3.5011,-3.5456,-3.5676,-3.5712,-3.5693,-3.5674,-3.5656,-3.5624,-3.5612,-3.5612,-3.5603,-3.5622,-3.5622,-3.5617,-3.5599,-3.5566,-3.5534,-3.5528,-3.5507,-3.5507,-3.5507,-3.5238,-3.4891,-3.5161,-3.5449,-3.5026,-3.468,-3.4776,-3.468,-3.3853,-3.3199,-3.2333,-3.1795,-3.1198,-3.0814,-3.0737,-3.0648,-3.0475,-3.0398,-3.0398,-3.0398,-3.0398,-3.0398,-3.0398,-3.0398,-3.0398,-3.0398,-3.0398,-2.512,-2.5293,-2.5332,-2.5332,-2.5332,-2.5351,-2.539,-2.539,-2.539,-2.539,-2.5351,-2.537,-2.5351,-2.5428,-2.5947,-2.5967,-2.5447,-2.5351,-2.5726,-2.615,-2.6342,-2.637,-2.6545,-2.6997,-2.7112,-2.6801,-2.7458,-2.8203,-2.8927,-2.9553,-2.9997,-3.0506,-3.0583,-3.0625,-3.0656,-3.0657,-3.0618,-3.0263,-3.0263,-3.0141,-2.9972,-2.9926,-3.0096,-3.0243,-3.036,-3.0469,-3.0657,-3.0696,-3.0696,-3.0696,-3.0696,-3.0715,-3.0715,-3.0711,-3.0722,-3.0761,-3.0891,-3.1095,-3.185,-3.2443,-3.2937,-3.3181,-3.3239,-3.3512,-3.3531,-3.4023,-3.455,-3.4667,-3.5393,-3.5696,-3.5782,-3.5788,-3.5762,-3.5743,-3.5716,-3.5715,-3.5704,-3.5695,-3.5695,-3.5667,-3.5667,-3.5673,-3.5646,-3.5593,-3.5553,-3.5534,-3.5526,-3.5526,-3.5257,-3.4866,-3.5097,-3.5526,-3.5372,-3.4872,-3.4558,-3.4404,-3.368,-3.2993,-3.2127,-3.1749,-3.1415,-3.0883,-3.0564,-3.0456,-3.0398,-3.0417,-3.0417,-3.0417,-3.0398,-3.0398,-3.0398,-3.0398,-3.0398,-3.0398,-3.0398,-2.462,-2.5313,-2.5351,-2.539,-2.539,-2.5466,-2.5476,-2.5466,-2.5476,-2.5495,-2.5466,-2.5409,-2.539,-2.5438,-2.5505,-2.5592,-2.5486,-2.5486,-2.5581,-2.5619,-2.5582,-2.5717,-2.5851,-2.6002,-2.617,-2.6631,-2.6907,-2.7387,-2.801,-2.8337,-2.9302,-3.0444,-3.0371,-3.0651,-3.082,-3.082,-3.041,-3.0,-2.9824,-2.9336,-2.8926,-2.875,-2.8984,-2.9531,-2.9746,-3.0039,-3.0801,-3.084,-3.084,-3.084,-3.084,-3.084,-3.084,-3.084,-3.084,-3.0851,-3.0869,-3.0983,-3.1309,-3.1797,-3.2519,-3.3086,-3.3203,-3.2988,-3.2949,-3.4004,-3.4531,-3.4512,-3.5078,-3.5684,-3.582,-3.5937,-3.5879,-3.5861,-3.5819,-3.58,-3.5794,-3.5768,-3.5749,-3.5709,-3.5741,-3.5764,-3.5784,-3.5737,-3.564,-3.5604,-3.5565,-3.5565,-3.5586,-3.5329,-3.5361,-3.5559,-3.5584,-3.5155,-3.4379,-3.3942,-3.3589,-3.2847,-3.1959,-3.2003,-3.2104,-3.1476,-3.0509,-3.0467,-3.0467,-3.0467,-3.0471,-3.0469,-3.046,-3.0414,-3.0398,-3.0417,-3.0417,-3.0417,-3.0398,-2.4283,-2.462,-2.5159,-2.539,-2.5399,-2.5488,-2.5503,-2.5514,-2.5519,-2.5518,-2.5511,-2.5483,-2.5466,-2.5466,-2.5468,-2.5456,-2.5495,-2.5515,-2.5517,-2.5517,-2.5521,-2.5519,-2.5553,-2.5596,-2.5783,-2.6094,-2.6191,-2.6591,-2.7348,-2.7404,-2.8081,-2.8991,-2.9655,-3.0367,-3.0644,-3.0742,-3.0332,-2.9824,-2.9531,-2.916,-2.8496,-2.8301,-2.8457,-2.873,-2.9453,-2.9687,-3.0117,-3.0664,-3.084,-3.0898,-3.0879,-3.0918,-3.0918,-3.0918,-3.0918,-3.0918,-3.0918,-3.0918,-3.0918,-3.123,-3.1562,-3.168,-3.1836,-3.1934,-3.2109,-3.2715,-3.3066,-3.3516,-3.4453,-3.5137,-3.5195,-3.5605,-3.5957,-3.5957,-3.5898,-3.5801,-3.5801,-3.5742,-3.5859,-3.584,-3.5859,-3.5892,-3.5908,-3.591,-3.5788,-3.5697,-3.5659,-3.5636,-3.5656,-3.5659,-3.5681,-3.5649,-3.5663,-3.5302,-3.4535,-3.403,-3.3568,-3.2686,-3.1803,-3.1803,-3.1861,-3.1327,-3.0568,-3.053,-3.051,-3.0529,-3.0546,-3.054,-3.053,-3.0475,-3.0448,-3.0448,-3.0448,-3.0441,-3.0448,-2.3629,-2.4168,-2.4784,-2.5197,-2.5393,-2.5503,-2.5517,-2.5525,-2.5565,-2.5558,-2.5535,-2.5537,-2.5545,-2.5528,-2.553,-2.5554,-2.555,-2.557,-2.5564,-2.5572,-2.5593,-2.5591,-2.5628,-2.5653,-2.5684,-2.5684,-2.5742,-2.6158,-2.6568,-2.6595,-2.7181,-2.7893,-2.8473,-2.916,-2.9883,-3.0351,-3.0176,-2.9726,-2.9238,-2.8789,-2.8008,-2.7578,-2.7715,-2.7832,-2.8418,-2.8867,-2.9316,-2.9902,-3.0391,-3.0527,-3.0684,-3.0879,-3.0918,-3.0918,-3.0918,-3.0918,-3.0918,-3.0918,-3.0918,-3.0918,-3.0918,-3.1113,-3.1074,-3.1055,-3.1113,-3.166,-3.2402,-3.248,-3.3535,-3.4316,-3.4336,-3.4726,-3.4922,-3.4766,-3.5293,-3.5351,-3.5547,-3.5586,-3.582,-3.5976,-3.5996,-3.5976,-3.5976,-3.5957,-3.5898,-3.5781,-3.5702,-3.5704,-3.5772,-3.5781,-3.5815,-3.5795,-3.5759,-3.527,-3.4681,-3.4046,-3.337,-3.2508,-3.1733,-3.1261,-3.1109,-3.0742,-3.0684,-3.07,-3.0676,-3.0627,-3.0607,-3.0615,-3.0579,-3.0552,-3.0524,-3.05,-3.053,-3.054,-3.0529,-2.262,-2.4043,-2.4226,-2.4741,-2.5383,-2.5527,-2.5603,-2.5605,-2.5644,-2.5644,-2.5586,-2.5586,-2.5598,-2.5588,-2.5599,-2.5629,-2.5664,-2.5664,-2.5664,-2.5664,-2.5664,-2.5703,-2.5684,-2.5684,-2.5684,-2.5684,-2.5742,-2.5801,-2.5976,-2.6169,-2.6562,-2.6933,-2.7458,-2.7851,-2.8457,-2.9238,-2.959,-2.9453,-2.873,-2.791,-2.7226,-2.6504,-2.6543,-2.6894,-2.7324,-2.7812,-2.834,-2.9121,-2.9609,-2.9902,-3.0391,-3.0684,-3.0898,-3.0918,-3.0918,-3.0918,-3.0918,-3.0918,-3.0918,-3.0918,-3.0918,-3.0918,-3.0918,-3.0918,-3.1074,-3.1582,-3.2012,-3.1953,-3.2891,-3.3359,-3.3457,-3.3574,-3.3711,-3.416,-3.4746,-3.5176,-3.5391,-3.5625,-3.5898,-3.6016,-3.6016,-3.6016,-3.6016,-3.5996,-3.5957,-3.5879,-3.5781,-3.5781,-3.5859,-3.5898,-3.5918,-3.5894,-3.5811,-3.5096,-3.4484,-3.3877,-3.316,-3.2305,-3.1641,-3.1172,-3.0918,-3.0801,-3.0801,-3.0859,-3.0817,-3.0717,-3.0692,-3.066,-3.0665,-3.0675,-3.0604,-3.0599,-3.0626,-3.0626,-3.0604,-2.3043,-2.4149,-2.4707,-2.5082,-2.5346,-2.5529,-2.5613,-2.5605,-2.5664,-2.5684,-2.5664,-2.5684,-2.5684,-2.5668,-2.5644,-2.5684,-2.5684,-2.5703,-2.5703,-2.5703,-2.5703,-2.5703,-2.5703,-2.5703,-2.5703,-2.5703,-2.5723,-2.6041,-2.6621,-2.634,-2.6514,-2.6883,-2.6922,-2.742,-2.8301,-2.9023,-2.9355,-2.8691,-2.791,-2.7187,-2.6844,-2.615,-2.5798,-2.6169,-2.662,-2.703,-2.7362,-2.8164,-2.8825,-2.9332,-2.9941,-3.0293,-3.0742,-3.0898,-3.0918,-3.0918,-3.0918,-3.0918,-3.0918,-3.0918,-3.0918,-3.0918,-3.0918,-3.0918,-3.0996,-3.1113,-3.1309,-3.1523,-3.2148,-3.2519,-3.2637,-3.3184,-3.3574,-3.4297,-3.4863,-3.5234,-3.5527,-3.5781,-3.6016,-3.6016,-3.6016,-3.6016,-3.6016,-3.6016,-3.5976,-3.5976,-3.5879,-3.5879,-3.5957,-3.5957,-3.5976,-3.5976,-3.5782,-3.5002,-3.4297,-3.3769,-3.2891,-3.1894,-3.1406,-3.1055,-3.0879,-3.084,-3.0859,-3.0879,-3.0859,-3.081,-3.0789,-3.0775,-3.0812,-3.0808,-3.0723,-3.0684,-3.0684,-3.0684,-3.0646,-2.3129,-2.3744,-2.4543,-2.4889,-2.4966,-2.537,-2.5589,-2.5644,-2.5664,-2.5703,-2.5703,-2.5703,-2.5703,-2.5703,-2.5703,-2.5703,-2.5703,-2.5703,-2.5703,-2.5703,-2.5703,-2.5703,-2.5703,-2.5703,-2.5703,-2.5703,-2.5746,-2.6016,-2.6304,-2.6414,-2.637,-2.636,-2.6671,-2.6845,-2.7559,-2.8066,-2.875,-2.8215,-2.7731,-2.7485,-2.7245,-2.6807,-2.6345,-2.6327,-2.645,-2.6709,-2.6689,-2.7194,-2.8085,-2.8782,-2.9394,-2.9863,-3.0527,-3.0879,-3.0898,-3.0918,-3.0918,-3.0918,-3.0918,-3.0918,-3.0918,-3.0918,-3.0918,-3.0918,-3.0918,-3.0976,-3.0976,-3.1152,-3.1523,-3.168,-3.1934,-3.2559,-3.2871,-3.3555,-3.418,-3.4512,-3.5019,-3.5234,-3.5976,-3.5976,-3.6016,-3.6016,-3.6016,-3.6016,-3.5996,-3.6016,-3.5996,-3.6016,-3.6016,-3.6016,-3.5957,-3.5859,-3.5762,-3.5156,-3.4434,-3.3769,-3.2773,-3.1543,-3.1211,-3.1055,-3.0918,-3.0879,-3.0898,-3.0918,-3.0879,-3.0879,-3.0898,-3.0898,-3.0879,-3.0859,-3.0828,-3.0781,-3.0781,-3.0742,-3.0723,-2.284,-2.3013,-2.3783,-2.4225,-2.4341,-2.5159,-2.557,-2.5684,-2.5703,-2.5703,-2.5703,-2.5703,-2.5703,-2.5703,-2.5703,-2.5703,-2.5703,-2.5703,-2.5703,-2.5703,-2.5703,-2.5703,-2.5703,-2.5703,-2.5703,-2.5703,-2.5751,-2.5812,-2.5736,-2.6033,-2.5967,-2.6005,-2.6535,-2.6515,-2.6765,-2.7252,-2.7926,-2.7775,-2.7673,-2.751,-2.7363,-2.7582,-2.6901,-2.6583,-2.6388,-2.6167,-2.6129,-2.6388,-2.7171,-2.7993,-2.8867,-2.9726,-3.0371,-3.0801,-3.0879,-3.0918,-3.0918,-3.0879,-3.0879,-3.0879,-3.0859,-3.084,-3.0859,-3.0898,-3.0918,-3.0918,-3.0918,-3.0918,-3.1133,-3.1055,-3.1133,-3.123,-3.1348,-3.207,-3.2851,-3.3398,-3.3984,-3.4668,-3.5605,-3.5937,-3.5996,-3.6016,-3.6016,-3.6016,-3.5918,-3.6016,-3.6016,-3.6016,-3.6016,-3.6016,-3.5898,-3.5625,-3.5508,-3.5293,-3.4551,-3.3476,-3.2637,-3.1387,-3.1387,-3.125,-3.1094,-3.1016,-3.1094,-3.1094,-3.0957,-3.0918,-3.0918,-3.0918,-3.0918,-3.0898,-3.0879,-3.0879,-3.084,-3.084,-3.082,-2.3505,-2.4582,-2.4851,-2.4966,-2.5005,-2.5313,-2.5492,-2.5625,-2.5684,-2.5703,-2.5703,-2.5703,-2.5703,-2.5703,-2.5703,-2.5703,-2.5703,-2.5703,-2.5703,-2.5703,-2.5703,-2.5703,-2.5703,-2.5703,-2.5703,-2.5684,-2.5731,-2.588,-2.6352,-2.6362,-2.665,-2.7217,-2.6601,-2.635,-2.6429,-2.6776,-2.7003,-2.7187,-2.7162,-2.7237,-2.7219,-2.7264,-2.6668,-2.6236,-2.5996,-2.5717,-2.564,-2.5726,-2.6419,-2.715,-2.7997,-2.8867,-2.9766,-3.0391,-3.0781,-3.0879,-3.082,-3.0742,-3.0762,-3.0728,-3.07,-3.07,-3.072,-3.0784,-3.084,-3.0898,-3.0898,-3.0879,-3.0859,-3.0859,-3.0859,-3.0879,-3.1055,-3.1621,-3.2383,-3.3027,-3.3711,-3.4648,-3.5547,-3.5957,-3.6016,-3.5879,-3.5898,-3.584,-3.5781,-3.5918,-3.5996,-3.5957,-3.5976,-3.5957,-3.5723,-3.543,-3.5137,-3.4902,-3.3769,-3.2637,-3.2031,-3.1426,-3.1406,-3.1445,-3.1406,-3.1348,-3.1348,-3.1211,-3.0996,-3.0918,-3.0918,-3.0918,-3.0918,-3.0918,-3.0898,-3.0918,-3.0918,-3.0898,-3.0898,-2.3389,-2.4312,-2.4697,-2.5005,-2.5293,-2.537,-2.5444,-2.5527,-2.5619,-2.5664,-2.5664,-2.5703,-2.5703,-2.5703,-2.5703,-2.5703,-2.5703,-2.5703,-2.5703,-2.5703,-2.5703,-2.5703,-2.5703,-2.5684,-2.5684,-2.5663,-2.5679,-2.5765,-2.6256,-2.6275,-2.6419,-2.6563,-2.6255,-2.6178,-2.6073,-2.6044,-2.6102,-2.6314,-2.6458,-2.6612,-2.6698,-2.6842,-2.6534,-2.5928,-2.5745,-2.5591,-2.538,-2.5495,-2.6111,-2.6814,-2.7678,-2.8691,-2.9531,-3.0176,-3.0664,-3.0749,-3.0721,-3.0664,-3.0675,-3.0636,-3.0613,-3.061,-3.0599,-3.0664,-3.0706,-3.0762,-3.0762,-3.0762,-3.0762,-3.0762,-3.0781,-3.084,-3.1172,-3.1523,-3.2207,-3.2891,-3.3809,-3.4766,-3.5371,-3.5859,-3.5898,-3.5742,-3.5644,-3.5566,-3.5371,-3.5098,-3.5273,-3.5684,-3.5723,-3.5781,-3.5449,-3.5059,-3.4766,-3.4453,-3.3242,-3.2441,-3.2246,-3.1855,-3.1406,-3.1465,-3.1582,-3.1426,-3.1172,-3.1035,-3.0937,-3.0898,-3.0898,-3.0918,-3.0918,-3.0918,-3.0918,-3.0918,-3.0918,-3.0918,-3.0898,-2.2754,-2.2947,-2.3725,-2.4601,-2.5255,-2.5274,-2.5303,-2.5379,-2.5414,-2.5527,-2.5586,-2.5664,-2.5703,-2.5703,-2.5703,-2.5703,-2.5703,-2.5703,-2.5703,-2.5703,-2.5703,-2.5703,-2.5703,-2.5699,-2.5658,-2.5619,-2.5582,-2.5582,-2.5447,-2.5524,-2.5563,-2.5303,-2.5399,-2.5486,-2.5524,-2.5524,-2.5582,-2.5678,-2.6025,-2.6314,-2.6602,-2.7036,-2.7392,-2.6554,-2.6236,-2.6082,-2.5687,-2.5918,-2.6524,-2.7054,-2.7873,-2.8865,-2.967,-3.0098,-3.0492,-3.0591,-3.0594,-3.0595,-3.059,-3.0582,-3.0571,-3.056,-3.0583,-3.0584,-3.0586,-3.0661,-3.0672,-3.0685,-3.0685,-3.0931,-3.1022,-3.0852,-3.0976,-3.1445,-3.2051,-3.2715,-3.3476,-3.4336,-3.498,-3.5273,-3.5019,-3.4883,-3.4805,-3.4707,-3.5039,-3.4453,-3.4316,-3.4961,-3.541,-3.5488,-3.5234,-3.4785,-3.4629,-3.4316,-3.3574,-3.293,-3.2891,-3.25,-3.1973,-3.1523,-3.168,-3.1348,-3.0879,-3.084,-3.0801,-3.0859,-3.0859,-3.0879,-3.0898,-3.0918,-3.0918,-3.0918,-3.0918,-3.0918,-3.0918,-2.2197,-2.2889,-2.3744,-2.4562,-2.5168,-2.4659,-2.4793,-2.5255,-2.4728,-2.4953,-2.5508,-2.5644,-2.5703,-2.5703,-2.5703,-2.5703,-2.5703,-2.5703,-2.5703,-2.5703,-2.5703,-2.5703,-2.5684,-2.5668,-2.5627,-2.5581,-2.5524,-2.5428,-2.5351,-2.5313,-2.5313,-2.5303,-2.5313,-2.5313,-2.5313,-2.5313,-2.5313,-2.5351,-2.5524,-2.5765,-2.588,-2.6275,-2.6535,-2.5928,-2.5601,-2.564,-2.5399,-2.5514,-2.5668,-2.5909,-2.7343,-2.8717,-3.0113,-3.043,-3.0578,-3.0598,-3.053,-3.0518,-3.0532,-3.0506,-3.0487,-3.0467,-3.0467,-3.0448,-3.0483,-3.0565,-3.0616,-3.0607,-3.0723,-3.1002,-3.1177,-3.0933,-3.0824,-3.1345,-3.1817,-3.246,-3.3103,-3.3813,-3.4502,-3.4375,-3.4101,-3.4043,-3.4004,-3.416,-3.4434,-3.4277,-3.3828,-3.4062,-3.4766,-3.5059,-3.5019,-3.4707,-3.4668,-3.4297,-3.3613,-3.3301,-3.3203,-3.3398,-3.3144,-3.2559,-3.1906,-3.1553,-3.1237,-3.084,-3.0684,-3.084,-3.0918,-3.0859,-3.0879,-3.0898,-3.0879,-3.0859,-3.0879,-3.0898,-3.0898,-2.1446,-2.235,-2.359,-2.4332,-2.4639,-2.4283,-2.436,-2.4649,-2.439,-2.4529,-2.5068,-2.543,-2.5664,-2.5684,-2.5703,-2.5703,-2.5703,-2.5703,-2.5703,-2.5703,-2.5703,-2.5703,-2.5664,-2.5635,-2.5588,-2.5524,-2.5428,-2.5332,-2.5313,-2.5313,-2.5313,-2.5313,-2.5313,-2.5313,-2.5313,-2.5313,-2.5313,-2.5313,-2.5313,-2.5313,-2.5313,-2.5688,-2.5861,-2.5351,-2.5313,-2.5313,-2.5476,-2.5534,-2.561,-2.5899,-2.7063,-2.8362,-2.9583,-3.021,-3.046,-3.0491,-3.0471,-3.0467,-3.0467,-3.0436,-3.0398,-3.0398,-3.0398,-3.0398,-3.0398,-3.0494,-3.0513,-3.0494,-3.0494,-3.0764,-3.1003,-3.0895,-3.0819,-3.1128,-3.1301,-3.1659,-3.2462,-3.3283,-3.3674,-3.3711,-3.3691,-3.3965,-3.3984,-3.418,-3.4316,-3.3926,-3.3496,-3.391,-3.4465,-3.4759,-3.4684,-3.4612,-3.4581,-3.417,-3.3457,-3.334,-3.3457,-3.3711,-3.4112,-3.3179,-3.231,-3.1971,-3.1629,-3.1266,-3.1022,-3.1016,-3.1055,-3.0849,-3.0855,-3.0898,-3.084,-3.0781,-3.0823,-3.085,-3.0859,-2.0804,-2.1696,-2.3101,-2.3841,-2.3908,-2.3783,-2.383,-2.3936,-2.3918,-2.3986,-2.4261,-2.5017,-2.5461,-2.5664,-2.5703,-2.5703,-2.5703,-2.5703,-2.5703,-2.5703,-2.5703,-2.5684,-2.5648,-2.5609,-2.5533,-2.5447,-2.5351,-2.5313,-2.5313,-2.5313,-2.5313,-2.5313,-2.5313,-2.5313,-2.5313,-2.5313,-2.5313,-2.5313,-2.5313,-2.5313,-2.5313,-2.5313,-2.5332,-2.5332,-2.5313,-2.5313,-2.5553,-2.5745,-2.5841,-2.6313,-2.6948,-2.8352,-2.9371,-3.016,-3.0302,-3.0417,-3.0417,-3.0398,-3.0398,-3.0398,-3.0398,-3.0398,-3.0398,-3.0398,-3.0398,-3.0398,-3.0417,-3.0456,-3.0456,-3.0667,-3.0924,-3.1059,-3.1025,-3.0999,-3.1056,-3.1241,-3.2119,-3.2805,-3.2879,-3.3037,-3.3345,-3.3677,-3.3949,-3.4124,-3.4105,-3.3689,-3.3805,-3.4234,-3.4596,-3.466,-3.4657,-3.4565,-3.4492,-3.3965,-3.3623,-3.3774,-3.41,-3.4326,-3.4564,-3.3564,-3.2806,-3.2681,-3.2342,-3.175,-3.1554,-3.1357,-3.0983,-3.0678,-3.073,-3.0801,-3.0769,-3.0691,-3.0685,-3.072,-3.0771,-2.0765,-2.1526,-2.188,-2.2399,-2.289,-2.2371,-2.2447,-2.2956,-2.2511,-2.2592,-2.3398,-2.4201,-2.4922,-2.5684,-2.5703,-2.5703,-2.5703,-2.5703,-2.5703,-2.5703,-2.5684,-2.5644,-2.5611,-2.5545,-2.5437,-2.5367,-2.5313,-2.5313,-2.5313,-2.5313,-2.5313,-2.5313,-2.5313,-2.5313,-2.5313,-2.5313,-2.5313,-2.5313,-2.5313,-2.5313,-2.5313,-2.5313,-2.5313,-2.5313,-2.5313,-2.5313,-2.539,-2.5457,-2.5437,-2.586,-2.6909,-2.8429,-2.941,-3.0102,-3.034,-3.0398,-3.0398,-3.0398,-3.0398,-3.0398,-3.0398,-3.0398,-3.0398,-3.0398,-3.0398,-3.0398,-3.0436,-3.0552,-3.0698,-3.1141,-3.1379,-3.1455,-3.1455,-3.1468,-3.1506,-3.1929,-3.2545,-3.2461,-3.2312,-3.2524,-3.2821,-3.3194,-3.3577,-3.3975,-3.4546,-3.4392,-3.4693,-3.5085,-3.5046,-3.4885,-3.4699,-3.4635,-3.455,-3.4918,-3.5039,-3.4886,-3.5071,-3.523,-3.5121,-3.4371,-3.3846,-3.3602,-3.3211,-3.2916,-3.2057,-3.154,-3.1128,-3.0704,-3.053,-3.0588,-3.0616,-3.0595,-3.0588,-3.0616,-3.0646]}]]